[[{"header":{"parameterUnit":"m.s-1","parameterCategory":1,"la1":30.6,"la2":28.766,"lo1":-90.7593,"lo2":-88.6598,"dy":0.0162,"dx":0.0183,"nx":116,"ny":114,"refTime":"2023-06-14T12:00:00:Z","depth":0,"parameterNumber":2,"parameterNumberName":"U-component_of_WINDS"},"data":[0.0,0.0,0.0,0.0,0.0,0.0,0.0,0.0,0.0,0.0,0.0,0.0,0.0,0.0,0.0,0.0,0.0,0.0,0.0,0.0,0.0,0.0,0.0,0.0,0.0,0.0,0.0,0.0,0.0,0.0,0.0,0.0,0.0,0.0,0.0,0.0,0.0,0.0,0.0,0.0,0.0,0.0,0.0,0.0,0.0,0.0,0.0,0.0,0.0,0.0,0.0,0.0,0.0,0.0,0.0,0.0,0.0,0.0,0.0,0.0,0.0,0.0,0.0,0.0,0.0,0.0,0.0,0.0,0.0,0.0,0.0,0.0,0.0,0.0,0.0,0.0,0.0,0.0,0.0,0.0,0.0,0.0,0.0,0.0,0.0,0.0,0.0,0.0,0.0,0.0,0.0,0.0,0.0,0.0,0.0,0.0,0.0,0.0,0.0,0.0,0.0,0.0,0.0,0.0,0.0,0.0,0.0,0.0,0.0,0.0,0.0,0.0,0.0,0.0,0.0,0.0,0.0,0.0,0.0,0.0,0.0,0.0,0.0,0.0,0.0,0.0,0.0,0.0,0.0,0.0,0.0,0.0,0.0,0.0,0.0,0.0,0.0,0.0,0.0,0.0,0.0,0.0,0.0,0.0,0.0,0.0,0.0,0.0,0.0,0.0,0.0,0.0,0.0,0.0,0.0,0.0,0.0,0.0,0.0,0.0,0.0,0.0,0.0,0.0,0.0,0.0,0.0,0.0,0.0,0.0,0.0,0.0,0.0,0.0,0.0,0.0,0.0,0.0,0.0,0.0,0.0,0.0,0.0,0.0,0.0,0.0,0.0,0.0,0.0,0.0,0.0,0.0,0.0,0.0,0.0,0.0,0.0,0.0,0.0,0.0,0.0,0.0,0.0,0.0,0.0,0.0,0.0,0.0,0.0,0.0,0.0,0.0,0.0,0.0,0.0,0.0,0.0,0.0,0.0,0.0,0.0,0.0,0.0,0.0,0.0,0.0,0.0,0.0,0.0,0.0,0.0,0.0,0.0,0.0,0.0,0.0,0.0,0.0,0.0,0.0,0.0,0.0,0.0,0.0,0.0,0.0,0.0,0.0,0.0,0.0,0.0,0.0,0.0,0.0,0.0,0.0,0.0,0.0,0.0,0.0,0.0,0.0,0.0,0.0,0.0,0.0,0.0,0.0,0.0,0.0,0.0,0.0,0.0,0.0,0.0,0.0,0.0,0.0,0.0,0.0,0.0,0.0,0.0,0.0,0.0,0.0,0.0,0.0,0.0,0.0,0.0,0.0,0.0,0.0,0.0,0.0,0.0,0.0,0.0,0.0,0.0,0.0,0.0,0.0,0.0,0.0,0.0,0.0,0.0,0.0,0.0,0.0,0.0,0.0,0.0,0.0,0.0,0.0,0.0,0.0,0.0,0.0,0.0,0.0,0.0,0.0,0.0,0.0,0.0,0.0,0.0,0.0,0.0,0.0,0.0,0.0,0.0,0.0,0.0,0.0,0.0,0.0,0.0,0.0,0.0,0.0,0.0,0.0,0.0,0.0,0.0,0.0,0.0,0.0,0.0,0.0,0.0,0.0,0.0,0.0,0.0,0.0,0.0,0.0,0.0,0.0,0.0,0.0,0.0,0.0,0.0,0.0,0.0,0.0,0.0,0.0,0.0,0.0,0.0,0.0,0.0,0.0,0.0,0.0,0.0,0.0,0.0,0.0,0.0,0.0,0.0,0.0,0.0,0.0,0.0,0.0,0.0,0.0,0.0,0.0,0.0,0.0,0.0,0.0,0.0,0.0,0.0,0.0,0.0,0.0,0.0,0.0,0.0,0.0,0.0,0.0,0.0,0.0,0.0,0.0,0.0,0.0,0.0,0.0,0.0,0.0,0.0,0.0,0.0,0.0,0.0,0.0,0.0,0.0,0.0,0.0,0.0,0.0,0.0,0.0,0.0,0.0,0.0,0.0,0.0,0.0,0.0,0.0,0.0,0.0,0.0,0.0,0.0,0.0,0.0,0.0,0.0,0.0,0.0,0.0,0.0,0.0,0.0,0.0,0.0,0.0,0.0,0.0,0.0,0.0,0.0,0.0,0.0,0.0,0.0,0.0,0.0,0.0,0.0,0.0,0.0,0.0,0.0,0.0,0.0,0.0,0.0,0.0,0.0,0.0,0.0,0.0,0.0,0.0,0.0,0.0,0.0,0.0,0.0,0.0,0.0,0.0,0.0,0.0,0.0,0.0,0.0,0.0,0.0,0.0,0.0,0.0,0.0,0.0,0.0,0.0,0.0,0.0,0.0,0.0,0.0,0.0,0.0,0.0,0.0,0.0,0.0,0.0,0.0,0.0,0.0,0.0,0.0,0.0,0.0,0.0,0.0,0.0,0.0,0.0,0.0,0.0,0.0,0.0,0.0,0.0,0.0,0.0,0.0,0.0,0.0,0.0,0.0,0.0,0.0,0.0,0.0,0.0,0.0,0.0,0.0,0.0,0.0,0.0,0.0,0.0,0.0,0.0,0.0,0.0,0.0,0.0,0.0,0.0,0.0,0.0,0.0,0.0,0.0,0.0,0.0,0.0,0.0,0.0,0.0,0.0,0.0,0.0,0.0,0.0,0.0,0.0,0.0,0.0,0.0,0.0,0.0,0.0,0.0,0.0,0.0,0.0,0.0,0.0,0.0,0.0,0.0,0.0,0.0,0.0,0.0,0.0,0.0,0.0,0.0,0.0,0.0,0.0,0.0,0.0,0.0,0.0,0.0,0.0,0.0,0.0,0.0,0.0,0.0,0.0,0.0,0.0,0.0,0.0,0.0,0.0,0.0,0.0,0.0,0.0,0.0,0.0,0.0,0.0,0.0,0.0,0.0,0.0,0.0,0.0,0.0,0.0,0.0,0.0,0.0,0.0,0.0,0.0,0.0,0.0,0.0,0.0,0.0,0.0,0.0,0.0,0.0,0.0,0.0,0.0,0.0,0.0,0.0,0.0,0.0,0.0,0.0,0.0,0.0,0.0,0.0,0.0,0.0,0.0,0.0,0.0,0.0,0.0,0.0,0.0,0.0,0.0,0.0,0.0,0.0,0.0,0.0,0.0,0.0,0.0,0.0,0.0,0.0,0.0,0.0,0.0,0.0,0.0,0.0,0.0,0.0,0.0,0.0,0.0,0.0,0.0,0.0,0.0,0.0,0.0,0.0,0.0,0.0,0.0,0.0,0.0,0.0,0.0,0.0,0.0,0.0,0.0,0.0,0.0,0.0,0.0,0.0,0.0,0.0,0.0,0.0,0.0,0.0,0.0,0.0,0.0,0.0,0.0,0.0,0.0,0.0,0.0,0.0,0.0,0.0,0.0,0.0,0.0,0.0,0.0,0.0,0.0,0.0,0.0,0.0,0.0,0.0,0.0,0.0,0.0,0.0,0.0,0.0,0.0,0.0,0.0,0.0,0.0,0.0,0.0,0.0,0.0,0.0,0.0,0.0,0.0,0.0,0.0,0.0,0.0,0.0,0.0,0.0,0.0,0.0,0.0,0.0,0.0,0.0,0.0,0.0,0.0,0.0,0.0,0.0,0.0,0.0,0.0,0.0,0.0,0.0,0.0,0.0,0.0,0.0,0.0,0.0,0.0,0.0,0.0,0.0,0.0,0.0,0.0,0.0,0.0,0.0,0.0,0.0,0.0,0.0,0.0,0.0,0.0,0.0,0.0,0.0,0.0,0.0,0.0,0.0,0.0,0.0,0.0,0.0,0.0,0.0,0.0,0.0,0.0,0.0,0.0,0.0,0.0,0.0,0.0,0.0,0.0,0.0,0.0,0.0,0.0,0.0,0.0,0.0,0.0,0.0,0.0,0.0,0.0,0.0,0.0,0.0,0.0,0.0,0.0,0.0,0.0,0.0,0.0,0.0,0.0,0.0,0.0,0.0,0.0,0.0,0.0,0.0,0.0,0.0,0.0,0.0,0.0,0.0,0.0,0.0,0.0,0.0,0.0,0.0,0.0,0.0,0.0,0.0,0.0,0.0,0.0,0.0,0.0,0.0,0.0,0.0,0.0,0.0,0.0,0.0,0.0,0.0,0.0,0.0,0.0,0.0,0.0,0.0,0.0,0.0,0.0,0.0,0.0,0.0,0.0,0.0,0.0,0.0,0.0,0.0,0.0,0.0,0.0,0.0,0.0,0.0,0.0,0.0,0.0,0.0,0.0,0.0,0.0,0.0,0.0,0.0,0.0,0.0,0.0,0.0,0.0,0.0,0.0,0.0,0.0,0.0,0.0,0.0,0.0,0.0,0.0,0.0,0.0,0.0,0.0,0.0,0.0,0.0,0.0,0.0,0.0,0.0,0.0,0.0,0.0,0.0,0.0,0.0,0.0,0.0,0.0,0.0,0.0,0.0,0.0,0.0,0.0,0.0,0.0,0.0,0.0,0.0,0.0,0.0,0.0,0.0,0.0,0.0,0.0,0.0,0.0,0.0,0.0,0.0,0.0,0.0,0.0,0.0,0.0,0.0,0.0,0.0,0.0,0.0,0.0,0.0,0.0,0.0,0.0,0.0,0.0,0.0,0.0,0.0,0.0,0.0,0.0,0.0,0.0,0.0,0.0,0.0,0.0,0.0,0.0,0.0,0.0,0.0,0.0,0.0,0.0,0.0,0.0,0.0,0.0,0.0,0.0,0.0,0.0,0.0,0.0,0.0,0.0,0.0,0.0,0.0,0.0,0.0,0.0,0.0,0.0,0.0,0.0,0.0,0.0,0.0,0.0,0.0,0.0,0.0,0.0,0.0,0.0,0.0,0.0,0.0,0.0,0.0,0.0,0.0,0.0,0.0,0.0,0.0,0.0,0.0,0.0,0.0,0.0,0.0,0.0,0.0,0.0,0.0,0.0,0.0,0.0,0.0,0.0,0.0,0.0,0.0,0.0,0.0,0.0,0.0,0.0,0.0,0.0,0.0,0.0,0.0,0.0,0.0,0.0,0.0,0.0,0.0,0.0,0.0,0.0,0.0,0.0,0.0,0.0,0.0,0.0,0.0,0.0,0.0,0.0,0.0,0.0,0.0,0.0,0.0,0.0,0.0,0.0,0.0,0.0,0.0,0.0,0.0,0.0,0.0,0.0,0.0,0.0,0.0,0.0,0.0,0.0,0.0,0.0,0.0,0.0,0.0,0.0,0.0,0.0,0.0,0.0,0.0,0.0,0.0,0.0,0.0,0.0,0.0,0.0,0.0,0.0,0.0,0.0,0.0,0.0,0.0,0.0,0.0,0.0,0.0,0.0,0.0,0.0,0.0,0.0,0.0,0.0,0.0,0.0,0.0,0.0,0.0,0.0,0.0,0.0,0.0,0.0,0.0,0.0,0.0,0.0,0.0,0.0,0.0,0.0,0.0,0.0,0.0,0.0,0.0,0.0,0.0,0.0,0.0,0.0,0.0,0.0,0.0,0.0,0.0,0.0,0.0,0.0,0.0,0.0,0.0,0.0,0.0,0.0,0.0,0.0,0.0,0.0,0.0,0.0,0.0,0.0,0.0,0.0,0.0,0.0,0.0,0.0,0.0,0.0,0.0,0.0,0.0,0.0,0.0,0.0,0.0,0.0,0.0,0.0,0.0,0.0,0.0,0.0,0.0,0.0,0.0,0.0,0.0,0.0,0.0,0.0,0.0,0.0,0.0,0.0,0.0,0.0,0.0,0.0,0.0,0.0,0.0,0.0,0.0,0.0,0.0,0.0,0.0,0.0,0.0,0.0,0.0,0.0,0.0,0.0,0.0,0.0,0.0,0.0,0.0,0.0,0.0,0.0,0.0,0.0,0.0,0.0,0.0,0.0,0.0,0.0,0.0,0.0,0.0,0.0,0.0,0.0,0.0,0.0,0.0,0.0,0.0,0.0,0.0,0.0,0.0,0.0,0.0,0.0,0.0,0.0,0.0,0.0,0.0,0.0,0.0,0.0,0.0,0.0,0.0,0.0,0.0,0.0,0.0,0.0,0.0,0.0,0.0,0.0,0.0,0.0,0.0,0.0,0.0,0.0,0.0,0.0,0.0,0.0,0.0,0.0,0.0,0.0,0.0,0.0,0.0,0.0,0.0,0.0,0.0,0.0,0.0,0.0,0.0,0.0,-4.8853,0.0,0.0,0.0,0.0,0.0,0.0,0.0,0.0,0.0,0.0,0.0,0.0,0.0,0.0,0.0,0.0,0.0,0.0,0.0,0.0,0.0,0.0,0.0,0.0,0.0,0.0,0.0,0.0,0.0,0.0,0.0,0.0,0.0,0.0,0.0,0.0,0.0,0.0,0.0,0.0,0.0,0.0,0.0,0.0,0.0,0.0,0.0,0.0,0.0,0.0,0.0,0.0,0.0,0.0,0.0,0.0,0.0,0.0,0.0,0.0,0.0,0.0,0.0,0.0,0.0,0.0,0.0,0.0,0.0,0.0,0.0,0.0,0.0,0.0,0.0,0.0,0.0,0.0,0.0,0.0,0.0,0.0,0.0,0.0,0.0,0.0,0.0,0.0,0.0,0.0,0.0,0.0,0.0,0.0,0.0,0.0,0.0,0.0,0.0,0.0,0.0,0.0,0.0,0.0,0.0,0.0,0.0,0.0,0.0,0.0,0.0,0.0,0.0,0.0,0.0,0.0,-5.0459,0.0,0.0,0.0,0.0,0.0,0.0,0.0,0.0,0.0,0.0,0.0,0.0,0.0,0.0,0.0,0.0,0.0,0.0,0.0,0.0,0.0,0.0,0.0,0.0,0.0,0.0,0.0,0.0,0.0,0.0,0.0,0.0,0.0,0.0,0.0,0.0,0.0,0.0,0.0,0.0,0.0,0.0,0.0,0.0,0.0,0.0,0.0,0.0,0.0,0.0,0.0,0.0,0.0,0.0,0.0,0.0,0.0,0.0,0.0,0.0,0.0,0.0,0.0,0.0,0.0,0.0,0.0,0.0,0.0,0.0,0.0,0.0,0.0,0.0,0.0,0.0,0.0,0.0,0.0,0.0,0.0,0.0,0.0,0.0,0.0,0.0,0.0,0.0,0.0,0.0,0.0,0.0,0.0,0.0,0.0,0.0,0.0,0.0,0.0,0.0,0.0,0.0,0.0,0.0,0.0,0.0,0.0,0.0,-5.3046,-5.3831,-5.4429,-5.4697,-5.4822,-5.475,-5.3474,-5.26,-5.2101,-5.2101,0.0,0.0,0.0,0.0,0.0,0.0,0.0,0.0,0.0,0.0,0.0,0.0,0.0,0.0,0.0,0.0,0.0,0.0,0.0,0.0,0.0,0.0,0.0,0.0,0.0,0.0,0.0,0.0,0.0,0.0,0.0,0.0,0.0,0.0,0.0,0.0,0.0,0.0,-5.1352,-5.1263,-5.1372,-5.1514,-5.0727,0.0,0.0,0.0,0.0,0.0,0.0,0.0,0.0,0.0,0.0,0.0,0.0,0.0,0.0,0.0,0.0,0.0,0.0,0.0,0.0,0.0,0.0,0.0,0.0,0.0,0.0,0.0,0.0,0.0,0.0,0.0,0.0,0.0,0.0,0.0,0.0,0.0,0.0,0.0,0.0,0.0,0.0,0.0,-3.8061,-3.819,0.0,0.0,0.0,0.0,0.0,0.0,0.0,0.0,0.0,0.0,0.0,0.0,0.0,-4.83,-5.1048,-5.1387,-5.2279,-5.3698,-5.5223,-5.599,-5.6133,-5.7461,-5.8067,-5.8067,-5.7853,0.0,-5.368,-5.368,0.0,0.0,0.0,0.0,0.0,0.0,0.0,0.0,0.0,0.0,0.0,0.0,0.0,0.0,0.0,0.0,0.0,0.0,0.0,0.0,0.0,0.0,0.0,0.0,0.0,0.0,0.0,0.0,0.0,0.0,0.0,0.0,0.0,0.0,0.0,0.0,-4.8884,-4.9795,-5.1162,-5.0972,-5.1019,-5.1304,-5.0922,-5.0723,-5.0571,-4.9571,0.0,0.0,0.0,0.0,0.0,0.0,0.0,0.0,0.0,0.0,0.0,0.0,0.0,0.0,0.0,0.0,0.0,0.0,0.0,0.0,0.0,0.0,0.0,0.0,0.0,0.0,0.0,0.0,0.0,0.0,0.0,0.0,0.0,0.0,0.0,0.0,0.0,0.0,0.0,-3.9585,-4.0102,-4.0206,-4.0864,-4.133,0.0,0.0,0.0,0.0,0.0,0.0,0.0,0.0,0.0,-4.6962,-4.871,-5.0298,-5.1672,-5.3457,-5.467,-5.5384,-5.6954,-5.7703,-5.7739,-5.8388,-5.8692,-5.8692,-5.8692,-5.7907,-5.6641,-5.6641,-5.6123,-5.5348,0.0,0.0,0.0,0.0,-5.3753,-5.3672,0.0,0.0,0.0,0.0,0.0,0.0,0.0,0.0,0.0,0.0,0.0,0.0,0.0,0.0,0.0,0.0,0.0,0.0,0.0,0.0,0.0,0.0,0.0,0.0,0.0,0.0,0.0,0.0,-4.8715,-4.9309,-5.0546,-5.0454,-5.0684,-5.1186,-5.0926,-5.1142,-5.1539,-5.0352,-4.9328,0.0,0.0,0.0,0.0,0.0,0.0,0.0,0.0,0.0,0.0,0.0,0.0,0.0,0.0,0.0,0.0,0.0,0.0,0.0,0.0,0.0,0.0,0.0,0.0,0.0,0.0,0.0,0.0,0.0,0.0,0.0,0.0,0.0,0.0,0.0,0.0,0.0,0.0,-4.1282,-4.1945,-4.2154,-4.2901,-4.3468,0.0,0.0,0.0,0.0,0.0,0.0,-4.5094,-4.6684,-4.7783,-4.8175,-5.0477,-5.2083,-5.2886,-5.5223,-5.6597,-5.7007,-5.8577,-5.9298,-5.9316,-5.9708,-5.9886,-5.9886,-5.969,-5.963,-5.9577,-5.8941,-5.8014,-5.6989,-5.6989,-5.6248,-5.5133,-5.4997,-5.4859,-5.4719,0.0,0.0,0.0,0.0,0.0,0.0,0.0,0.0,0.0,0.0,0.0,0.0,0.0,0.0,0.0,0.0,0.0,0.0,0.0,0.0,0.0,0.0,0.0,0.0,0.0,0.0,0.0,-4.7793,-4.8288,-4.8866,-4.9587,-4.9834,-5.0642,-5.1913,-5.1002,-5.0648,-5.0679,-5.059,-4.9672,-4.8265,0.0,0.0,0.0,0.0,0.0,0.0,0.0,0.0,0.0,0.0,0.0,0.0,0.0,0.0,0.0,0.0,0.0,0.0,0.0,0.0,0.0,0.0,0.0,0.0,0.0,0.0,0.0,0.0,0.0,0.0,0.0,0.0,0.0,0.0,0.0,0.0,0.0,0.0,0.0,-4.3088,-4.3336,0.0,0.0,0.0,0.0,-4.4089,-4.5587,-4.6537,-4.6671,-4.8265,-4.9888,-5.1405,-5.1619,-5.3135,-5.6133,-5.6311,-5.715,-5.8602,-6.0219,-6.0986,-6.1022,-6.2485,-6.3145,-6.3109,-6.2414,-6.211,-6.1932,-5.9666,-5.8638,-5.8567,-5.8567,-5.8463,-5.8247,-5.8119,-5.7954,-5.7756,0.0,0.0,0.0,0.0,0.0,0.0,0.0,0.0,0.0,0.0,0.0,0.0,0.0,0.0,0.0,0.0,0.0,0.0,0.0,0.0,0.0,0.0,0.0,0.0,0.0,0.0,-4.6756,-4.7513,-4.7888,-4.8421,-4.912,-4.9387,-4.9856,-5.047,-5.0393,-5.0342,-5.0336,-5.0336,-5.0035,-4.9419,-4.7986,-4.686,0.0,0.0,0.0,0.0,0.0,0.0,0.0,0.0,0.0,0.0,0.0,0.0,0.0,0.0,0.0,0.0,0.0,0.0,0.0,0.0,0.0,0.0,0.0,0.0,0.0,0.0,0.0,0.0,0.0,0.0,0.0,0.0,0.0,0.0,0.0,0.0,0.0,-4.3998,-4.4607,0.0,-4.59,-4.6059,-4.6442,-4.7137,-4.7734,-4.8192,-4.8408,-4.9971,-5.1101,-5.1672,-5.3671,-5.5259,-5.6383,-5.7899,-5.9202,-6.0272,-6.1343,-6.211,-6.2592,-6.3145,-6.3395,-6.3377,-6.3109,-6.3002,-6.2895,-6.1557,-6.0415,-5.9458,-5.9389,-5.8981,-5.8467,-5.8213,-5.8046,-5.7985,0.0,0.0,0.0,0.0,0.0,0.0,0.0,0.0,0.0,0.0,0.0,0.0,0.0,0.0,0.0,0.0,0.0,0.0,0.0,0.0,0.0,0.0,0.0,0.0,0.0,-4.5757,-4.6227,-4.6961,-4.7225,-4.7732,-4.8425,-4.8644,-4.9048,-4.9593,-4.958,-4.9778,-5.0197,-4.9827,-4.9688,-4.9614,-4.8402,-4.723,-4.6113,0.0,0.0,0.0,0.0,0.0,0.0,0.0,0.0,0.0,0.0,0.0,0.0,0.0,0.0,0.0,0.0,0.0,0.0,0.0,0.0,0.0,0.0,0.0,0.0,0.0,0.0,0.0,0.0,0.0,0.0,0.0,0.0,0.0,0.0,0.0,-4.4965,-4.5285,-4.6065,-4.6847,-4.756,-4.7783,-4.8154,-4.8848,-4.9437,-4.9881,-5.0096,-5.1619,-5.2725,-5.326,-5.5312,-5.6775,-5.7578,-5.9398,-6.0719,-6.1504,-6.2574,-6.3324,-6.3805,-6.4091,-6.4198,-6.418,-6.3912,-6.3805,-6.3752,-6.2967,-6.1866,-6.0564,-6.019,-5.9722,-5.9189,-5.8918,-5.8778,-5.8651,0.0,0.0,0.0,0.0,0.0,0.0,0.0,0.0,0.0,0.0,0.0,0.0,0.0,0.0,0.0,0.0,0.0,0.0,0.0,0.0,0.0,0.0,0.0,0.0,-4.5197,-4.5088,-4.5349,-4.6044,-4.6344,-4.6796,-4.7432,-4.7546,-4.8255,-4.9474,-4.8647,-4.897,-5.003,-4.9077,-4.8677,-4.8677,-4.8677,-4.7639,-4.6067,0.0,0.0,0.0,0.0,0.0,0.0,0.0,0.0,0.0,0.0,0.0,0.0,0.0,0.0,0.0,0.0,0.0,0.0,0.0,0.0,0.0,0.0,0.0,0.0,0.0,0.0,0.0,0.0,0.0,0.0,0.0,0.0,0.0,-4.4082,-4.5346,-4.6517,-4.6978,-4.7665,-4.8207,-4.8504,-4.8702,-4.8872,-4.9015,-5.0584,-5.1599,-5.1762,-5.3242,-5.4768,-5.6347,-5.6472,-5.7614,-5.9933,-6.0736,-6.1539,-6.2378,-6.3895,-6.4595,-6.468,-6.5447,-6.5804,-6.5768,-6.4983,-6.4662,-6.459,-6.377,-6.2892,-6.1942,-6.1156,-6.0714,-6.0596,-6.0441,-6.0283,-6.0001,0.0,0.0,0.0,0.0,0.0,0.0,0.0,0.0,0.0,0.0,0.0,0.0,0.0,0.0,0.0,0.0,0.0,0.0,0.0,0.0,0.0,0.0,0.0,0.0,0.0,-4.437,-4.4812,-4.4874,-4.5796,-4.622,-4.6152,-4.6985,-4.7311,-4.7229,-4.7774,-4.7925,-4.776,-4.8224,-4.8229,-4.7903,-4.8084,-4.7549,-4.6681,0.0,0.0,0.0,0.0,0.0,0.0,0.0,0.0,0.0,0.0,0.0,0.0,0.0,0.0,0.0,0.0,0.0,0.0,0.0,0.0,0.0,0.0,0.0,0.0,0.0,0.0,0.0,0.0,0.0,0.0,0.0,0.0,-4.574,-4.5535,-4.6625,-4.7528,-4.776,-4.8041,-4.8522,-4.9311,-4.9512,-5.0143,-5.1405,-5.2057,-5.2667,-5.3324,-5.4884,-5.5937,-5.6383,-5.806,-5.9541,-6.0754,-6.1557,-6.2628,-6.3984,-6.4412,-6.4929,-6.5482,-6.5697,-6.5804,-6.5786,-6.5572,-6.5482,-6.5411,-6.45,-6.3654,-6.2791,-6.1885,-6.1091,-6.0441,-6.0234,-6.0139,-6.0072,0.0,0.0,0.0,0.0,0.0,0.0,0.0,0.0,0.0,0.0,0.0,0.0,0.0,0.0,0.0,0.0,0.0,0.0,0.0,0.0,0.0,0.0,0.0,0.0,0.0,0.0,-4.4043,-4.438,-4.5013,-4.5399,-4.5603,-4.6125,-4.6334,-4.6307,-4.6651,-4.6768,-4.6836,-4.709,-4.7165,-4.708,-4.7066,-4.6902,-4.6693,-4.6305,-4.5383,-4.4237,-4.3836,-4.3111,-4.2223,-4.1569,0.0,0.0,0.0,0.0,0.0,0.0,0.0,0.0,0.0,0.0,0.0,0.0,0.0,0.0,0.0,0.0,0.0,0.0,0.0,0.0,0.0,0.0,0.0,0.0,-4.635,-4.7073,-4.7158,-4.7872,-4.8469,-4.8605,-4.9001,-4.9625,-5.0575,-5.085,-5.1538,-5.2856,-5.3433,-5.4127,-5.4946,-5.6204,-5.7186,-5.7846,-5.9523,-6.079,-6.1593,-6.2699,-6.3716,-6.4626,-6.5286,-6.5857,-6.6303,-6.6624,-6.6589,0.0,-6.6303,-6.6107,-6.5768,-6.5112,-6.4181,0.0,0.0,0.0,0.0,0.0,-6.0089,-6.0089,0.0,0.0,0.0,0.0,0.0,0.0,0.0,0.0,0.0,0.0,0.0,0.0,0.0,0.0,0.0,0.0,0.0,0.0,0.0,0.0,0.0,0.0,0.0,0.0,0.0,0.0,-4.3142,-4.4145,-4.4101,-4.4508,-4.5279,-4.5057,-4.5313,-4.5983,-4.5403,-4.5681,-4.6483,-4.593,-4.5887,-4.6153,-4.5958,-4.6007,-4.6132,-4.6132,-4.5402,-4.4326,-4.3955,-4.3558,-4.3081,-4.2108,0.0,0.0,0.0,0.0,0.0,0.0,0.0,0.0,0.0,0.0,0.0,0.0,0.0,0.0,0.0,0.0,0.0,0.0,0.0,0.0,0.0,0.0,0.0,0.0,-4.7333,-4.847,-4.8712,-4.9061,-4.9285,-4.9423,-5.0215,-5.1087,-5.1916,-5.2376,-5.2936,-5.3688,-5.4741,-5.5687,-5.649,0.0,0.0,0.0,0.0,-6.1646,-6.2538,-6.393,-6.4697,-6.4894,-6.6321,-6.7035,-6.7142,-6.7784,-6.7695,-6.6981,-6.6981,-6.6535,-6.5772,-6.556,-6.4474,-6.2843,-6.1767,-6.0945,-6.0346,-6.0171,-6.0089,0.0,0.0,0.0,0.0,0.0,0.0,0.0,0.0,0.0,0.0,0.0,0.0,0.0,0.0,0.0,0.0,0.0,0.0,0.0,0.0,0.0,0.0,0.0,0.0,0.0,0.0,0.0,0.0,-4.2544,-4.3485,-4.38,-4.351,-4.4301,-4.4492,-4.4243,-4.4748,-4.4847,-4.476,-4.5419,-4.5518,-4.5302,-4.5693,-4.5658,-4.526,-4.526,-4.4895,-4.4326,-4.3955,-4.3558,-4.3138,-4.2582,-4.1868,-4.1197,-4.1464,-4.1135,0.0,0.0,0.0,0.0,0.0,0.0,0.0,0.0,0.0,0.0,0.0,0.0,0.0,0.0,0.0,0.0,0.0,0.0,0.0,-4.7314,-4.8014,-4.8699,-4.9516,-4.9935,-5.0161,-5.0189,-5.1092,-5.1783,-5.1969,-5.2852,-5.3706,-5.453,-5.5559,-5.6508,-5.7311,-5.8684,0.0,-6.0843,-6.1646,-6.2735,-6.4144,-6.4465,-6.5251,-6.6535,0.0,0.0,-6.7891,-6.8016,-6.7695,-6.6981,-6.6981,-6.6453,-6.556,-6.5397,-6.4213,-6.2347,-6.0926,-6.0294,-6.0171,-6.0089,-6.0089,-6.0001,0.0,0.0,0.0,0.0,0.0,0.0,0.0,0.0,0.0,0.0,0.0,0.0,0.0,0.0,0.0,0.0,0.0,0.0,0.0,0.0,0.0,0.0,0.0,0.0,0.0,0.0,0.0,0.0,-4.259,-4.291,-4.3001,-4.3538,-4.3783,-4.3693,-4.3873,-4.4036,-4.4238,-4.4468,-4.4546,-4.4536,-4.4671,-4.4677,-4.455,-4.4871,-4.4687,-4.4181,-4.4138,-4.3692,-4.3166,-4.2968,-4.2377,-4.1788,-4.2096,-4.1839,-4.1477,0.0,0.0,0.0,0.0,0.0,0.0,0.0,0.0,0.0,0.0,0.0,0.0,0.0,0.0,-4.4976,-4.5777,0.0,-4.716,-4.8014,-4.8596,-4.9208,-4.9948,-5.0257,-5.0582,-5.105,-5.163,-5.234,-5.3215,-5.3861,-5.4735,-5.5943,-5.6647,-5.7507,-5.8684,-5.9862,-6.0861,-6.1664,-6.2842,-6.4019,-6.5197,-6.5607,-6.6392,-6.7552,-6.7963,-6.8337,-6.8712,-6.9122,-6.8658,-6.7552,-6.7486,-6.6729,-6.5424,-6.44,-6.3375,-6.2231,-6.0686,-6.0089,-6.0089,-6.0089,-6.0025,-5.9838,0.0,0.0,0.0,0.0,0.0,0.0,0.0,0.0,0.0,0.0,0.0,0.0,0.0,0.0,0.0,0.0,0.0,0.0,0.0,0.0,0.0,0.0,0.0,0.0,0.0,0.0,0.0,0.0,0.0,-4.2037,-4.2606,-4.2826,-4.3058,-4.3296,-4.31,-4.3315,-4.3794,-4.3531,-4.3504,-4.364,-4.3535,-4.3521,-4.3648,-4.4383,-4.4383,-4.4115,-4.4224,-4.3817,-4.3194,-4.311,-4.2795,-4.2433,-4.2662,-4.248,-4.2248,-4.2551,-4.2538,0.0,0.0,0.0,0.0,0.0,0.0,0.0,0.0,-4.4221,-4.4471,-4.5212,-4.5424,-4.5698,-4.6381,-4.7101,-4.783,-4.8511,-4.9095,-4.9666,-5.0189,-5.0452,-5.0976,-5.1959,-5.2159,-5.286,-5.4455,-5.4984,-5.5826,-5.721,-5.7743,-5.8649,-6.0058,-6.0897,-6.1771,-6.2717,-6.4109,-6.5233,-6.6036,-6.6821,-6.7588,-6.8337,-6.8997,-6.939,-6.9568,-7.0211,-6.9622,-6.807,-6.7603,-6.6634,-6.5273,-6.342,-6.2539,-6.2231,-6.0686,-6.0089,-6.0057,-6.0057,-5.9856,-5.9464,0.0,0.0,0.0,0.0,0.0,0.0,0.0,0.0,0.0,0.0,0.0,0.0,0.0,0.0,0.0,0.0,0.0,0.0,0.0,0.0,0.0,0.0,0.0,0.0,0.0,0.0,0.0,0.0,0.0,0.0,-4.124,-4.2183,-4.2378,-4.1956,-4.2692,-4.2824,-4.2524,-4.286,-4.2742,-4.2461,-4.2958,-4.2708,-4.2122,-4.3009,-4.3757,-4.4294,-4.3994,-4.3584,-4.3167,-4.2812,-4.2545,-4.2433,-4.2662,-4.279,-4.2971,-4.3397,-4.368,-4.3799,-4.3976,-4.3985,-4.3842,-4.3482,-4.3674,-4.4018,0.0,-4.4338,-4.4817,-4.5996,-4.6274,-4.6683,-4.7988,-4.8299,-4.8618,-4.9261,-4.9466,-4.9725,-5.0285,-5.0996,-5.1869,-5.2906,-5.305,-5.3486,-5.449,-5.5956,-5.6978,-5.7281,-5.8759,-6.004,-6.0915,-6.1718,-6.2824,-6.4305,-6.5215,-6.6053,-6.6856,-6.7588,-6.8373,-6.9176,-6.9283,-6.9693,-7.0371,-7.0461,-6.9622,-6.8016,-6.6332,-6.5408,-6.4907,-6.3172,-6.2422,-6.2231,-6.0686,-5.9975,-5.9829,-5.9829,-5.9409,-5.8663,0.0,0.0,0.0,0.0,0.0,0.0,0.0,0.0,0.0,0.0,0.0,0.0,0.0,0.0,0.0,0.0,0.0,0.0,0.0,0.0,0.0,0.0,0.0,0.0,0.0,0.0,0.0,0.0,0.0,0.0,-4.1013,-4.1449,-4.17,-4.1705,-4.1942,-4.2212,-4.2453,-4.2422,-4.2485,-4.2615,-4.2579,-4.2447,-4.2297,-4.2502,-4.2968,-4.3514,-4.3336,-4.3018,0.0,0.0,-4.2598,-4.2581,-4.2648,-4.293,-4.325,-4.3596,-4.3832,-4.4089,-4.4534,-4.4673,-4.4726,-4.4626,-4.4922,-4.5276,-4.5384,-4.5661,-4.6117,-4.6879,-4.7194,-4.7555,-4.837,-4.8673,-4.8954,-4.9411,-4.9577,-4.9796,-5.0331,-5.1094,-5.1991,-5.3057,-5.3576,-5.4224,-5.5256,-5.6421,-5.7397,-5.8071,-5.9643,-6.095,-6.1753,-6.2967,-6.4144,-6.5268,-6.6071,-6.7088,-6.8337,-6.8641,-6.9212,-7.0015,-7.0015,-7.0175,-7.0496,-7.0496,-6.952,-6.7733,-6.5904,-6.4997,-6.4703,-6.3072,-6.2389,-6.2231,-6.0571,-5.9861,-5.9796,-5.9796,-5.9195,-5.8268,0.0,0.0,0.0,0.0,0.0,0.0,0.0,0.0,0.0,0.0,0.0,0.0,0.0,0.0,0.0,0.0,0.0,0.0,0.0,0.0,0.0,0.0,0.0,0.0,0.0,0.0,0.0,0.0,0.0,0.0,0.0,-4.0958,-4.1129,-4.1331,-4.1464,-4.1721,-4.2176,-4.1967,-4.2094,-4.2345,-4.2189,-4.213,-4.2078,-4.2069,-4.2191,-4.2403,-4.2661,-4.2565,0.0,0.0,-4.2619,-4.2688,-4.2769,-4.305,-4.3463,-4.3714,-4.4026,-4.4358,-4.4852,-4.5129,-4.5331,-4.5589,-4.5916,-4.6187,-4.6333,-4.6668,-4.7064,-4.7436,-4.777,-4.8099,-4.8452,-4.8767,-4.9124,-4.9458,-4.9619,-4.9923,-5.0637,-5.1407,-5.2288,-5.3372,-5.4173,-5.5033,-5.608,-5.6934,-5.7929,-5.9204,-6.0618,-6.186,-6.2877,-6.4198,-6.5304,-6.6107,-6.7106,-6.8177,-6.9301,-6.9533,-6.9925,-7.0496,-7.0496,-7.0496,-7.0496,-7.0016,-6.894,-6.7426,-6.5735,-6.4895,-6.4601,-6.3038,-6.2373,-6.2182,-6.0473,-5.9731,-5.9666,-5.9666,-5.8909,-5.7794,0.0,0.0,0.0,0.0,0.0,0.0,0.0,0.0,0.0,0.0,0.0,0.0,0.0,0.0,0.0,0.0,0.0,0.0,0.0,0.0,0.0,0.0,0.0,0.0,0.0,0.0,0.0,0.0,0.0,0.0,0.0,-4.0801,-4.0794,-4.0479,-4.1326,-4.1466,-4.1152,-4.1555,-4.148,-4.1114,-4.1751,-4.1509,-4.0814,-4.1418,-4.138,-4.1185,-4.1995,0.0,0.0,-4.2461,-4.2514,-4.2729,-4.2915,-4.329,-4.3729,-4.3949,-4.4396,-4.4927,-4.5129,-4.5331,-4.5589,-4.6004,-4.6187,-4.6333,-4.6563,-4.6876,-4.7251,-4.7436,-4.777,-4.8099,-4.8452,-4.8767,-4.9124,-4.9458,-4.9619,-5.0159,-5.1402,-5.219,-5.3038,-5.4144,-5.4981,-5.583,0.0,-5.7718,-5.8946,-6.0605,-6.1663,-6.2931,-6.4465,-6.5322,-6.6125,-6.6928,-6.8444,-6.9231,-6.9285,-7.0086,-7.0478,-7.0496,-7.0496,-7.0496,-7.0443,-6.8758,-6.7739,-6.7218,-6.5666,-6.4895,-6.4601,-6.3038,-6.2306,-6.2033,-6.0425,-5.9617,-5.9319,-5.9319,-5.8349,-5.7017,0.0,0.0,0.0,0.0,0.0,0.0,0.0,0.0,0.0,0.0,0.0,0.0,0.0,0.0,0.0,0.0,0.0,0.0,0.0,0.0,0.0,0.0,0.0,0.0,0.0,0.0,0.0,0.0,0.0,0.0,0.0,0.0,-4.0356,-4.0427,-4.0575,-4.0645,-4.0665,-4.0644,-4.049,-4.0249,-4.0754,-4.0757,-4.056,-4.1199,-4.1468,-4.1507,0.0,0.0,0.0,-4.2286,-4.2541,-4.2729,-4.2955,-4.3329,-4.3808,-4.4243,-4.4648,-4.4949,-4.5331,-4.5552,-4.5771,-4.604,-4.6314,-4.6563,-4.6738,-4.7098,-4.7436,-4.7588,-4.8017,-4.8373,-4.8483,-4.8954,-4.9367,-4.9488,-5.0154,-5.0851,-5.1506,-5.2677,-5.3713,-5.425,-5.5437,0.0,0.0,0.0,0.0,-6.0676,-6.218,-6.3716,-6.5322,-6.6161,-6.7195,-6.8498,-6.9051,-6.9568,-7.0104,-7.0371,-7.0496,-7.0496,-7.0359,-7.0306,-7.0236,-6.8379,-6.7445,-6.7218,-6.5529,-6.474,-6.4601,-6.3038,-6.2324,-6.2033,-6.0328,-5.952,-5.9268,-5.9166,-5.8131,-5.6854,0.0,0.0,0.0,0.0,0.0,0.0,0.0,0.0,0.0,0.0,0.0,0.0,0.0,0.0,0.0,0.0,0.0,0.0,0.0,0.0,0.0,0.0,0.0,0.0,0.0,0.0,0.0,0.0,0.0,0.0,0.0,0.0,0.0,-4.025,-4.0233,-4.0224,-4.0279,-4.0227,-4.0093,-3.9924,-4.0127,-4.0137,-4.0153,-4.0567,-4.0848,0.0,0.0,0.0,0.0,-4.2304,-4.2662,-4.285,-4.317,-4.3542,-4.4026,-4.4549,-4.4836,-4.5092,-4.5515,-4.5735,-4.5952,-4.6223,-4.6509,-4.6772,-4.6961,-4.7319,-4.7637,-4.7787,-4.8163,-4.8515,-4.8578,-4.9077,-4.9603,-4.9859,-5.0562,-5.1423,-5.23,-5.3298,-5.4201,-5.5022,-5.5999,-5.7035,0.0,0.0,0.0,-6.1362,-6.3061,-6.4614,-6.5949,-6.71,-6.8166,-6.9182,-6.9552,-6.9997,-7.0496,-7.0496,-7.0462,-7.0393,-7.0272,-6.999,-6.9548,-6.7993,-6.7112,-6.6708,-6.5302,-6.4566,-6.4214,-6.2883,-6.2066,-6.1531,-6.0057,-5.9386,-5.9166,-5.9047,-5.8081,-5.6805,0.0,0.0,0.0,0.0,0.0,0.0,0.0,0.0,0.0,0.0,0.0,0.0,0.0,0.0,0.0,0.0,0.0,0.0,0.0,0.0,0.0,0.0,0.0,0.0,0.0,0.0,0.0,0.0,0.0,0.0,0.0,0.0,0.0,-4.0026,-4.025,-4.0241,-4.0077,-4.0235,-4.0227,-4.0006,-3.9838,-3.9653,-3.9482,-3.9524,0.0,0.0,0.0,0.0,0.0,-4.2441,-4.285,-4.3115,-4.3557,-4.3988,-4.4381,-4.4799,-4.5055,-4.5294,-4.5698,-4.5952,-4.6203,-4.6528,-4.6772,-4.6961,-4.7183,-4.7487,-4.7737,-4.7968,-4.8276,-4.8547,-4.8769,-4.9185,-4.9757,-5.0492,-5.0905,-5.1803,-5.3622,-5.3977,-5.4673,-5.639,-5.6666,-5.7333,-5.8913,-5.9949,0.0,-6.2705,0.0,-6.5568,-6.6433,-6.8057,-6.9012,-6.9048,-6.9967,-7.0462,-7.0462,-7.0462,-7.0393,-7.0167,-7.0167,-6.9583,-6.8487,-6.7676,-6.6778,-6.5847,-6.5057,-6.4285,-6.3496,-6.2573,-6.16,-6.0579,-5.9663,-5.9166,-5.9012,-5.8978,-5.803,-5.6788,0.0,0.0,0.0,0.0,0.0,0.0,0.0,0.0,0.0,0.0,0.0,0.0,0.0,0.0,0.0,0.0,0.0,0.0,0.0,0.0,0.0,0.0,0.0,0.0,0.0,0.0,0.0,0.0,0.0,0.0,0.0,0.0,0.0,0.0,-3.9985,-3.9772,-3.9569,-3.9461,-3.9223,-3.8943,0.0,-3.9475,-3.9338,0.0,0.0,0.0,0.0,0.0,0.0,-4.2629,-4.3065,-4.3557,-4.3832,-4.4205,-4.4587,-4.5017,-4.5257,-4.5515,-4.5916,-4.6116,-4.6314,-4.6528,-4.6842,-4.7183,-4.7369,-4.7554,-4.777,-4.8082,-4.8324,-4.8547,-4.8769,-4.9185,-4.9757,-5.0492,-5.1335,0.0,-5.3709,-5.49,-5.5846,-5.6531,-5.7667,-5.8773,-5.9721,-6.107,-6.2525,0.0,-6.4817,-6.5798,-6.7212,-6.8273,-6.9105,-6.9654,-6.9902,-7.0044,-7.0044,-7.0044,-7.0026,-6.9973,-6.9831,-6.9299,-6.8487,-6.7517,-6.6637,-6.5847,-6.5057,-6.4216,-6.3342,-6.2539,-6.155,-6.0478,-5.9647,-5.9166,-5.8944,-5.8392,-5.7598,-5.6686,0.0,0.0,0.0,0.0,0.0,0.0,0.0,0.0,0.0,0.0,0.0,0.0,0.0,0.0,0.0,0.0,0.0,0.0,0.0,0.0,0.0,0.0,0.0,0.0,0.0,0.0,0.0,0.0,0.0,0.0,0.0,0.0,0.0,0.0,-3.998,-3.9732,-3.9517,0.0,0.0,0.0,0.0,0.0,0.0,0.0,0.0,0.0,0.0,0.0,0.0,0.0,-4.3438,-4.3871,-4.4065,-4.4396,-4.4814,-4.5092,-4.5405,-4.5698,-4.608,-4.6314,-4.6493,-4.6772,-4.7098,-4.7403,-4.7571,-4.7721,-4.7919,-4.826,-4.842,-4.8578,-4.8832,-4.9216,-4.9876,-5.0953,-5.173,-5.281,-5.4539,-5.5605,-5.6512,-5.7407,-5.8657,-5.9773,-6.0546,-6.202,-6.3407,0.0,-6.5511,-6.653,-6.7799,-6.8682,-6.9336,-6.9742,-6.9867,-6.9902,-6.9902,-6.9902,-6.9867,-6.9742,-6.9316,-6.868,-6.7798,-6.6901,-6.6093,-6.5338,0.0,-6.3605,-6.275,-6.1846,-6.0875,-5.9908,-5.9373,-5.9081,-5.8926,-5.8185,-5.7359,-5.6552,0.0,0.0,0.0,0.0,0.0,0.0,0.0,0.0,0.0,0.0,0.0,0.0,0.0,0.0,0.0,0.0,0.0,0.0,0.0,0.0,0.0,0.0,0.0,0.0,0.0,0.0,0.0,0.0,0.0,0.0,0.0,0.0,0.0,0.0,0.0,0.0,0.0,0.0,0.0,0.0,0.0,0.0,0.0,0.0,0.0,0.0,0.0,0.0,0.0,0.0,-4.3871,-4.4026,-4.4281,-4.4625,-4.4964,-4.5167,-4.5515,-4.5916,-4.6207,-4.6474,-4.6703,-4.7098,-4.7369,-4.7537,-4.7671,-4.7853,-4.8099,-4.842,-4.8515,-4.861,-4.894,-4.9277,-5.0013,-5.1534,-5.2022,-5.309,-5.5545,-5.6119,-5.6885,-5.8506,-5.9593,-6.0531,-6.1371,-6.274,-6.3986,-6.4952,-6.6251,-6.7357,-6.8182,-6.9065,-6.9579,-6.9579,-6.9724,-6.9831,-6.9831,-6.9831,-6.9759,-6.9561,-6.8821,-6.7939,-6.6988,-6.6233,-6.5461,-6.4602,0.0,0.0,-6.2019,-6.0963,-6.0012,-5.9234,-5.9047,-5.8961,-5.8771,-5.7996,-5.7155,-5.6248,0.0,0.0,0.0,0.0,0.0,0.0,0.0,0.0,0.0,0.0,-4.0278,-3.9959,0.0,0.0,0.0,0.0,0.0,0.0,0.0,0.0,0.0,0.0,0.0,0.0,0.0,0.0,0.0,0.0,0.0,0.0,0.0,0.0,0.0,0.0,0.0,0.0,0.0,0.0,0.0,0.0,0.0,0.0,0.0,0.0,0.0,0.0,0.0,0.0,0.0,0.0,-4.3988,-4.405,-4.4435,-4.4814,-4.5182,-4.5405,-4.5735,-4.6096,-4.6243,-4.6474,-4.6703,-4.7098,-4.7369,-4.7537,-4.7671,-4.7853,-4.8099,-4.842,-4.8515,-4.861,-4.894,-4.9277,-5.0013,-5.1534,-5.2022,-5.309,-5.5545,-5.6458,-5.7332,-5.8544,-5.9986,-6.1189,-6.2125,-6.3038,-6.4425,0.0,0.0,-6.7357,-6.8182,-6.8973,-6.9432,-6.9432,-6.9486,-6.9486,-6.9486,-6.9486,-6.9486,-6.9432,-6.8622,-6.7832,-6.6988,-6.6233,-6.5374,-6.4393,0.0,0.0,-6.1623,-6.0843,-5.9926,-5.9047,-5.9012,-5.8633,-5.7979,-5.7087,-5.6264,-5.5426,0.0,0.0,0.0,0.0,0.0,0.0,0.0,-4.0489,-4.0558,-4.0765,-4.0673,-4.053,-4.0463,-4.0513,-4.0577,0.0,0.0,0.0,0.0,0.0,0.0,0.0,0.0,0.0,0.0,0.0,0.0,-4.0072,0.0,0.0,0.0,0.0,0.0,0.0,0.0,0.0,0.0,0.0,0.0,0.0,0.0,0.0,0.0,0.0,0.0,0.0,0.0,0.0,0.0,0.0,-4.4166,-4.4243,-4.461,-4.498,-4.5257,-4.5442,-4.5828,-4.6223,-4.6262,-4.6528,-4.6842,-4.7251,-4.7436,-4.7571,-4.7787,-4.7935,-4.8099,-4.842,-4.8515,-4.861,-4.894,-4.9185,-4.9875,-5.1534,-5.196,-5.3105,-5.5971,-5.6725,-5.7619,-5.9363,-6.0697,-6.1844,-6.2765,-6.3569,-6.4848,-6.6865,0.0,-6.7532,-6.8761,-6.9182,-6.9412,-6.9412,-6.9412,-6.9412,-6.9412,-6.9412,-6.9182,-6.8761,-6.7971,-6.7181,-6.6391,-6.5514,-6.4655,-6.3764,-6.284,0.0,-6.0964,-6.0099,-5.9426,-5.8978,-5.8581,-5.8169,-5.7653,-5.6401,-5.5566,-5.4989,0.0,0.0,0.0,0.0,0.0,0.0,0.0,-4.0489,-4.062,-4.0947,-4.0997,-4.1199,-4.1646,-4.1596,-4.1555,0.0,0.0,0.0,0.0,0.0,0.0,0.0,0.0,0.0,0.0,0.0,0.0,-4.0609,-4.0735,0.0,0.0,0.0,0.0,0.0,-4.047,0.0,0.0,0.0,0.0,0.0,0.0,0.0,0.0,0.0,0.0,0.0,0.0,0.0,0.0,0.0,-4.4358,-4.4511,-4.4836,-4.5092,-4.5257,-4.5478,-4.59,-4.6298,-4.6298,-4.658,-4.6996,-4.7403,-4.752,-4.7587,-4.7935,-4.8001,-4.8099,-4.8388,-4.8483,-4.8578,-4.8909,-4.9229,-4.9957,-5.1489,-5.2035,-5.329,-5.6326,-5.6869,-5.7815,-6.0133,-6.1259,-6.2213,-6.3119,-6.3904,0.0,-6.6757,0.0,0.0,-6.9305,-6.9412,-6.9412,-6.9412,-6.9412,-6.9412,-6.9412,-6.9218,-6.8831,-6.8199,-6.7198,-6.6391,-6.5777,-6.4813,-6.3921,-6.3119,-6.2075,0.0,0.0,-5.9409,-5.8926,-5.8719,-5.8099,-5.7602,-5.7054,-5.5753,-5.5006,-5.4533,0.0,0.0,0.0,0.0,0.0,0.0,0.0,-4.0489,-4.077,-4.1452,-4.1639,-4.2015,-4.2849,-4.1975,-4.139,0.0,0.0,0.0,0.0,0.0,0.0,0.0,0.0,0.0,0.0,0.0,0.0,-4.0609,-4.1209,0.0,0.0,0.0,0.0,0.0,0.0,-4.0401,-4.0277,0.0,0.0,0.0,0.0,0.0,0.0,0.0,0.0,0.0,0.0,0.0,-4.4243,0.0,-4.4549,-4.4874,-4.5092,-4.5182,-4.5294,-4.5662,-4.6008,-4.6298,-4.6298,-4.658,-4.6996,-4.7403,-4.752,-4.7587,-4.7935,-4.8001,-4.8033,-4.8212,-4.8388,-4.8564,-4.8769,-4.9608,-5.0555,-5.1386,-5.2369,-5.381,-5.6179,-5.6689,-5.775,-6.0185,-6.1172,-6.1988,-6.2927,-6.3763,-6.486,0.0,0.0,0.0,0.0,-6.9412,-6.9412,-6.9412,-6.9412,-6.9412,-6.9412,-6.8673,-6.8287,-6.8163,-6.6511,-6.5705,-6.5617,-6.4635,-6.3674,-6.2716,0.0,0.0,0.0,-5.934,-5.8616,-5.7961,-5.7792,-5.6882,-5.5562,-5.5126,-5.4448,-5.3769,0.0,0.0,0.0,0.0,0.0,0.0,-4.0864,-4.0864,-4.1062,-4.1639,-4.1751,-4.214,-4.3,-4.265,-4.2338,-4.2284,0.0,0.0,0.0,0.0,0.0,0.0,0.0,0.0,0.0,0.0,-4.1193,-4.1193,-4.1462,0.0,0.0,0.0,0.0,0.0,0.0,-4.0436,-4.0327,0.0,0.0,0.0,0.0,0.0,0.0,0.0,0.0,0.0,0.0,0.0,-4.432,-4.4435,-4.4648,-4.4949,-4.5129,-4.5294,0.0,-4.5698,-4.6044,-4.6298,-4.6298,-4.658,-4.6961,-4.7251,-4.7403,-4.7571,-4.7754,-4.7886,-4.8033,-4.8163,-4.8356,-4.8547,-4.8769,-4.9596,-5.0512,-5.1354,-5.223,-5.3688,-5.6163,-5.6589,-5.7687,-6.0617,-6.1222,-6.1967,0.0,0.0,-6.4697,0.0,0.0,0.0,0.0,-6.9247,-6.9412,-6.9412,-6.9412,-6.9147,-6.8673,-6.8248,-6.7544,-6.6634,-6.5825,-6.5176,-6.4723,-6.3744,-6.2856,-6.1969,0.0,0.0,0.0,-5.865,-5.8117,-5.7671,-5.671,-5.5806,-5.5007,-5.4413,-5.3922,-5.3584,0.0,0.0,0.0,0.0,0.0,-4.1117,-4.1117,-4.1117,-4.1345,-4.2113,-4.2186,-4.2598,-4.37,-4.3809,-4.367,-4.3308,-4.3105,0.0,0.0,0.0,0.0,0.0,0.0,0.0,0.0,0.0,-4.1588,-4.1588,-4.1588,-4.1588,0.0,0.0,-4.1245,-4.1364,0.0,0.0,0.0,0.0,0.0,0.0,0.0,0.0,0.0,0.0,0.0,0.0,0.0,0.0,0.0,0.0,0.0,-4.5039,-4.522,0.0,0.0,0.0,-4.6044,-4.6298,-4.6298,-4.658,-4.6961,-4.7149,-4.7369,-4.7537,-4.7671,-4.7853,-4.8033,-4.8115,-4.8292,-4.8452,-4.8658,-4.9639,-5.0608,-5.131,-5.2274,-5.3715,-5.6012,-5.6438,-5.7655,-6.0838,0.0,-6.1946,0.0,-6.3991,0.0,0.0,0.0,0.0,0.0,-6.8378,-6.8632,-6.8859,-6.8877,-6.8509,-6.7684,-6.733,-6.6593,-6.5528,-6.5085,-6.4508,-6.3744,-6.2993,-6.2106,-6.1155,0.0,0.0,0.0,-5.8065,-5.7499,-5.69,-5.5719,-5.4955,-5.4465,-5.3854,-5.3584,-5.3501,0.0,0.0,0.0,0.0,0.0,0.0,-4.1117,-4.1117,-4.1601,-4.2927,-4.3098,-4.3716,-4.5306,-4.5499,-4.5274,-4.4713,-4.405,0.0,0.0,0.0,0.0,0.0,0.0,0.0,0.0,0.0,-4.1588,-4.1588,-4.1588,-4.1588,-4.1588,-4.139,-4.1583,-4.2069,0.0,0.0,0.0,0.0,0.0,0.0,0.0,0.0,0.0,0.0,0.0,0.0,0.0,0.0,0.0,0.0,0.0,0.0,0.0,-4.5625,0.0,0.0,-4.6044,-4.6298,-4.6298,-4.658,-4.6961,-4.7149,-4.7369,-4.7537,-4.7671,-4.7853,-4.8001,-4.8001,-4.8115,-4.826,-4.8452,-4.9868,-5.1039,-5.1185,-5.2584,0.0,-5.5791,-5.6303,-5.7621,0.0,0.0,-6.191,-6.3444,0.0,0.0,0.0,0.0,0.0,0.0,-6.6532,-6.6862,-6.7611,-6.7629,-6.7263,-6.6514,-6.5729,-6.5329,-6.5294,-6.4346,-6.3494,-6.2697,-6.257,-6.1651,0.0,0.0,0.0,0.0,-5.774,-5.6797,-5.5391,-5.5042,-5.4431,-5.3701,-5.3551,-5.3501,-5.3501,0.0,0.0,0.0,0.0,0.0,0.0,0.0,-4.1439,-4.1909,-4.3137,-4.3325,-4.3858,-4.5322,-4.5515,-4.5494,-4.5439,-4.4812,0.0,0.0,0.0,0.0,0.0,0.0,0.0,0.0,0.0,-4.3042,-4.3042,-4.3026,-4.3026,-4.3008,-4.2821,-4.2742,-4.2786,-4.2605,-4.2566,0.0,0.0,0.0,0.0,0.0,0.0,0.0,0.0,0.0,0.0,0.0,0.0,0.0,0.0,0.0,0.0,0.0,0.0,0.0,-4.5952,-4.6152,-4.6298,-4.6298,-4.658,-4.6927,-4.6996,-4.7251,-4.7504,-4.7571,-4.7803,-4.8001,-4.8001,-4.8115,-4.826,-4.8452,-4.9868,-5.1039,-5.1185,-5.2519,0.0,0.0,0.0,0.0,-5.9902,-6.1354,-6.2496,0.0,0.0,0.0,0.0,0.0,0.0,0.0,-6.6104,-6.6321,-6.6845,-6.6862,-6.6479,-6.5694,-6.5306,-6.4815,-6.4329,-6.3385,-6.2812,-6.2535,-6.1428,0.0,0.0,0.0,0.0,0.0,-5.659,-5.572,-5.499,-5.4362,-5.3871,-5.3551,-5.3534,-5.3162,-5.2689,0.0,0.0,0.0,0.0,0.0,0.0,0.0,-4.1588,-4.2061,-4.3343,-4.35,-4.4051,-4.5468,-4.5625,-4.5662,-4.5771,-4.5396,0.0,0.0,0.0,0.0,0.0,0.0,0.0,-4.3687,-4.3687,-4.3687,-4.3687,-4.3706,-4.3706,-4.3687,-4.3567,-4.3537,-4.3559,-4.3412,-4.3402,0.0,0.0,0.0,0.0,0.0,0.0,-4.4701,0.0,0.0,0.0,0.0,0.0,0.0,0.0,0.0,0.0,0.0,0.0,0.0,0.0,-4.6187,-4.6333,-4.6404,-4.6633,-4.6876,-4.6876,-4.7149,-4.7403,-4.747,-4.7704,-4.7886,-4.7968,-4.8066,-4.8179,-4.8356,-4.9771,-5.0924,-5.1088,-5.247,0.0,0.0,0.0,0.0,-5.9864,0.0,0.0,0.0,0.0,0.0,0.0,0.0,0.0,0.0,0.0,-6.5164,-6.5387,-6.5684,-6.5439,-6.4676,-6.4272,-6.3818,-6.3368,-6.2482,-6.1892,-6.1582,-6.0634,0.0,0.0,0.0,0.0,0.0,-5.5718,-5.4954,-5.4346,-5.3515,-5.3127,-5.301,-5.2739,-5.2334,-5.1894,0.0,0.0,0.0,0.0,0.0,0.0,0.0,-4.1588,-4.211,-4.3497,-4.3706,-4.4227,-4.5649,-4.5807,-4.5807,-4.5807,0.0,0.0,0.0,0.0,0.0,0.0,0.0,0.0,-4.3845,-4.3845,-4.3845,-4.3845,-4.3845,-4.3845,-4.3845,-4.3845,-4.4055,-4.4459,-4.4278,-4.4417,0.0,0.0,0.0,0.0,0.0,0.0,0.0,0.0,0.0,0.0,0.0,0.0,0.0,0.0,0.0,0.0,0.0,0.0,0.0,0.0,0.0,0.0,0.0,-4.6772,-4.6876,-4.6876,-4.7064,-4.7251,-4.7436,-4.7588,0.0,-4.7968,-4.8001,-4.805,-4.8229,-4.9591,-5.076,-5.1041,0.0,0.0,0.0,-5.5959,0.0,0.0,-6.1459,0.0,0.0,0.0,0.0,0.0,0.0,0.0,0.0,0.0,-6.3496,-6.3427,-6.41,-6.4152,-6.3513,-6.2772,-6.2393,-6.2393,-6.1599,-6.0858,-6.0202,-6.0082,0.0,0.0,0.0,0.0,0.0,-5.5106,-5.4462,-5.3514,-5.2636,-5.2266,-5.2147,-5.1471,-5.1183,-5.1133,0.0,0.0,0.0,0.0,0.0,0.0,0.0,0.0,0.0,0.0,-4.3687,-4.4259,-4.5665,-4.5807,-4.5807,0.0,0.0,0.0,0.0,0.0,0.0,0.0,0.0,0.0,-4.5317,-4.5317,-4.5317,-4.5317,-4.5317,-4.5317,-4.5317,-4.5317,-4.5288,-4.5212,-4.5028,-4.4862,0.0,0.0,0.0,0.0,0.0,0.0,0.0,0.0,0.0,0.0,-4.6532,-4.6197,0.0,0.0,0.0,0.0,0.0,0.0,0.0,0.0,-4.6278,-4.6369,-4.6738,0.0,-4.6876,-4.6876,-4.7064,-4.7251,0.0,0.0,-4.7737,-4.7968,-4.8001,-4.8232,-4.8911,-4.9826,-5.0777,0.0,0.0,0.0,-5.5478,0.0,0.0,-5.9468,-5.9974,0.0,0.0,0.0,0.0,0.0,0.0,0.0,0.0,0.0,-6.2479,-6.1858,-6.2013,-6.2306,-6.2737,-6.1979,-6.1582,-6.1565,-6.0823,-6.0358,-6.0151,-5.8978,0.0,0.0,0.0,0.0,0.0,-5.4326,-5.348,-5.2619,-5.2367,-5.1961,-5.1454,-5.1268,-5.0845,-5.0355,0.0,0.0,0.0,0.0,0.0,0.0,0.0,0.0,0.0,0.0,0.0,0.0,0.0,0.0,0.0,0.0,0.0,0.0,0.0,0.0,0.0,0.0,0.0,-4.5807,-4.5807,-4.5807,-4.5807,-4.5807,-4.5807,-4.5807,-4.5807,-4.5807,-4.5735,-4.5641,-4.5755,-4.5619,0.0,0.0,0.0,0.0,-4.6718,0.0,0.0,0.0,0.0,0.0,-4.6765,-4.6394,0.0,-4.5735,-4.5698,-4.5807,0.0,0.0,0.0,0.0,-4.6298,-4.6369,-4.6772,-4.6876,-4.6876,-4.6876,-4.6996,-4.7149,-4.7436,0.0,0.0,-4.7935,-4.8001,-4.8249,-4.9061,-4.9859,-5.076,0.0,-5.2673,0.0,0.0,0.0,-5.7978,-5.901,0.0,0.0,0.0,0.0,0.0,0.0,0.0,0.0,0.0,0.0,-6.1737,-6.1306,-6.0978,-6.1168,-6.1927,-6.1185,-6.0789,-6.0789,-5.9668,-5.9133,-5.9099,-5.7926,0.0,0.0,0.0,0.0,-5.39,-5.341,-5.2617,-5.1775,-5.142,-5.1048,-5.0659,-5.0321,-4.9949,-4.9593,0.0,0.0,0.0,0.0,0.0,0.0,0.0,0.0,0.0,0.0,0.0,0.0,0.0,0.0,0.0,0.0,0.0,0.0,0.0,0.0,0.0,0.0,0.0,-4.6123,-4.6123,-4.6123,-4.6123,-4.6123,-4.6123,-4.6123,-4.6123,-4.6123,-4.6087,-4.6082,-4.6485,-4.6548,0.0,0.0,-4.7341,0.0,-4.7949,0.0,0.0,0.0,0.0,0.0,0.0,0.0,0.0,-4.5924,-4.5807,-4.5792,-4.5681,0.0,0.0,0.0,0.0,0.0,-4.6772,-4.6876,-4.6876,-4.6876,-4.6876,-4.6996,-4.7403,0.0,0.0,-4.7935,-4.8001,-4.8266,-4.9127,-4.9858,0.0,0.0,0.0,0.0,-5.5326,-5.6173,-5.7154,0.0,0.0,0.0,0.0,0.0,0.0,0.0,0.0,0.0,0.0,0.0,0.0,-6.0789,-6.0168,-6.0082,-6.0616,-6.0099,-5.984,-5.9823,-5.8409,-5.7736,-5.7719,-5.6927,0.0,0.0,0.0,0.0,-5.258,-5.2461,-5.1854,-5.098,-5.0338,-5.0016,-4.9847,-4.9238,-4.9001,-4.9001,0.0,0.0,0.0,0.0,0.0,0.0,0.0,0.0,0.0,0.0,0.0,0.0,0.0,0.0,0.0,0.0,0.0,0.0,0.0,0.0,0.0,-4.7593,-4.7577,-4.7577,-4.7577,-4.7577,-4.7577,-4.7577,-4.7577,-4.7577,-4.7577,-4.7577,-4.7502,-4.7312,-4.7422,-4.7315,-4.7161,-4.7232,-4.7622,-4.809,-4.759,0.0,0.0,0.0,0.0,0.0,0.0,0.0,0.0,-4.5803,-4.5807,-4.5697,-4.508,0.0,0.0,0.0,0.0,0.0,-4.6772,-4.6876,-4.6876,-4.6876,-4.6876,-4.6996,-4.7403,-4.752,0.0,0.0,0.0,0.0,0.0,-5.0137,-5.0738,0.0,0.0,-5.4291,0.0,0.0,0.0,0.0,0.0,0.0,0.0,0.0,0.0,0.0,0.0,0.0,0.0,0.0,0.0,-5.8478,-5.8323,-5.8012,-5.7495,-5.7995,-5.8254,-5.8254,-5.7374,-5.6978,-5.6943,-5.6021,-5.556,0.0,0.0,0.0,-5.2529,-5.1754,-5.0979,-5.0253,-5.0135,-4.9712,-4.9154,-4.9035,-4.9001,-4.9001,0.0,0.0,0.0,0.0,0.0,0.0,0.0,0.0,0.0,0.0,0.0,0.0,0.0,0.0,0.0,0.0,0.0,0.0,0.0,0.0,0.0,-4.843,-4.8794,-4.8652,-4.7925,-4.7893,-4.7893,-4.7893,-4.7893,-4.7893,-4.7893,-4.7893,-4.7855,-4.7795,-4.8157,-4.8238,-4.816,-4.816,-4.8333,-4.8569,0.0,0.0,0.0,0.0,0.0,0.0,0.0,0.0,0.0,0.0,-4.5223,-4.5096,-4.4401,0.0,0.0,0.0,0.0,0.0,-4.6207,-4.6585,-4.6876,-4.6876,-4.6876,-4.6996,-4.7403,-4.752,-4.762,0.0,0.0,0.0,0.0,0.0,-5.1236,-5.2562,0.0,0.0,0.0,0.0,0.0,0.0,0.0,0.0,0.0,0.0,0.0,0.0,0.0,0.0,0.0,0.0,0.0,0.0,-5.7239,-5.715,-5.6805,-5.6719,-5.6891,-5.7305,-5.6529,-5.6102,-5.6003,-5.5165,-5.4436,-5.3845,0.0,-5.2089,-5.1227,-5.0775,-5.0168,-4.9509,-4.9509,-4.9306,-4.9001,-4.9001,-4.9001,-4.9001,0.0,0.0,0.0,0.0,0.0,0.0,0.0,0.0,0.0,0.0,0.0,0.0,0.0,0.0,0.0,0.0,0.0,0.0,0.0,0.0,-4.8667,-4.8667,-4.9173,-4.911,-4.8383,-4.8367,-4.8367,-4.8367,-4.8367,-4.8367,-4.8367,-4.8367,-4.8367,-4.8383,-4.8731,-4.8889,-4.8873,-4.8715,-4.8667,-4.8604,0.0,0.0,0.0,0.0,0.0,0.0,0.0,0.0,0.0,0.0,0.0,0.0,0.0,0.0,0.0,-4.3894,-4.4605,-4.5381,-4.5706,-4.6326,-4.6876,-4.6876,-4.6876,-4.6996,-4.7403,-4.7601,-4.7817,-4.82,-4.8845,0.0,0.0,-5.1048,0.0,-5.268,0.0,0.0,0.0,0.0,0.0,0.0,0.0,0.0,0.0,0.0,0.0,0.0,0.0,0.0,0.0,0.0,0.0,0.0,-5.6398,-5.641,-5.6271,-5.5585,-5.5671,-5.6512,-5.5654,-5.5212,-5.5098,-5.4228,-5.3367,-5.2563,-5.2174,-5.1295,-5.0084,-4.9898,-4.9509,-4.8984,-4.8815,-4.8646,-4.8511,-4.868,-4.8748,-4.8781,0.0,0.0,0.0,0.0,0.0,0.0,0.0,0.0,0.0,0.0,0.0,0.0,0.0,0.0,0.0,0.0,0.0,0.0,0.0,0.0,-4.7972,-4.7972,-4.8019,-4.8588,-4.9742,-4.9773,-4.9773,-4.9773,-4.9773,-4.9773,-4.9773,-4.9773,-4.9773,-4.9742,-4.9157,-4.8889,-4.8841,-4.8241,-4.7972,-4.7909,-4.7166,0.0,0.0,0.0,0.0,0.0,0.0,0.0,0.0,0.0,0.0,0.0,0.0,0.0,-4.3651,-4.3338,-4.4221,-4.5381,-4.5706,-4.6326,-4.6876,-4.6876,-4.6876,-4.6996,-4.7403,-4.7978,-4.8539,-4.8961,-4.9624,-5.0353,0.0,-5.1829,0.0,0.0,0.0,0.0,0.0,0.0,0.0,0.0,0.0,0.0,0.0,0.0,0.0,0.0,0.0,0.0,0.0,0.0,0.0,0.0,0.0,-5.5247,-5.4684,-5.4407,-5.475,-5.5701,-5.4733,-5.4308,-5.4259,-5.32,-5.2663,-5.2512,-5.0958,-5.0217,-5.0033,-4.9357,-4.9052,-4.8934,-4.8257,-4.7564,-4.7039,-4.7733,-4.7973,-4.8075,0.0,0.0,0.0,0.0,0.0,0.0,0.0,0.0,0.0,0.0,0.0,0.0,0.0,0.0,0.0,0.0,0.0,0.0,0.0,-4.6834,-4.7214,-4.7214,-4.7656,-4.8146,-4.8652,-4.8667,-4.8873,-4.9284,-4.971,-4.9876,-4.9876,-4.9876,-4.9694,-4.9268,-4.8999,-4.8667,-4.8225,-4.7514,-4.7214,-4.715,-4.6455,-4.6187,0.0,0.0,0.0,0.0,0.0,0.0,0.0,0.0,-4.3295,-4.2947,0.0,-4.2173,-4.2398,-4.2492,-4.3551,-4.4739,-4.5076,-4.6018,-4.6876,-4.6876,-4.7232,-4.7693,-4.8057,-4.8322,-4.8736,-4.9588,-5.0369,-5.0949,-5.1265,0.0,0.0,0.0,0.0,0.0,0.0,0.0,0.0,0.0,0.0,0.0,0.0,0.0,0.0,0.0,0.0,0.0,0.0,0.0,0.0,0.0,0.0,-5.3046,-5.2818,-5.2755,-5.2892,-5.3247,-5.334,-5.3073,-5.2499,-5.2098,-5.1596,-5.1009,-5.0369,-4.983,-4.939,-4.912,-4.8731,-4.8257,-4.7513,-4.7056,-4.6819,-4.7107,-4.7225,-4.7259,0.0,0.0,0.0,0.0,0.0,0.0,0.0,0.0,0.0,0.0,0.0,0.0,0.0,0.0,0.0,0.0,0.0,0.0,-4.5807,-4.6234,-4.6487,-4.6487,-4.6977,-4.7245,-4.7245,-4.7245,-4.7672,-4.8573,-4.9047,-4.9284,-4.9284,-4.9284,-4.9031,-4.8557,-4.8335,-4.7972,-4.7514,-4.6787,-4.6487,-4.6439,-4.5997,-4.5807,0.0,0.0,0.0,0.0,0.0,0.0,0.0,0.0,0.0,0.0,0.0,0.0,0.0,0.0,-4.31,-4.4354,-4.4622,-4.5774,-4.6876,-4.6876,-4.7443,-4.8129,-4.8623,-4.8991,-4.9442,-5.0263,-5.0898,-5.1315,-5.1315,-5.1098,0.0,0.0,0.0,0.0,0.0,0.0,0.0,0.0,0.0,0.0,0.0,0.0,0.0,0.0,0.0,0.0,0.0,0.0,0.0,0.0,0.0,0.0,-5.1822,-5.1743,-5.1592,-5.137,-5.1787,-5.1826,-5.1473,-5.1204,-5.0718,-5.0084,-4.9847,-4.9458,-4.8984,-4.8748,-4.8088,-4.7175,-4.665,-4.6295,-4.6126,-4.6363,-4.6447,-4.6481,0.0,0.0,0.0,0.0,0.0,0.0,0.0,0.0,0.0,0.0,0.0,0.0,0.0,0.0,0.0,0.0,0.0,0.0,-4.5807,-4.5807,-4.5807,-4.5807,-4.5807,-4.5807,-4.5807,-4.5807,-4.6503,-4.7893,-4.7893,-4.7893,-4.7893,-4.7893,-4.7893,-4.7861,-4.7135,-4.6803,-4.674,-4.6092,-4.5807,-4.5807,-4.5807,-4.5807,-4.5807,0.0,0.0,0.0,0.0,0.0,0.0,0.0,-4.2189,0.0,0.0,0.0,0.0,0.0,-4.305,-4.4354,-4.4473,-4.5672,-4.6876,-4.6876,0.0,-4.8223,-4.9102,-4.9997,-5.0769,-5.0963,-5.1175,-5.1315,-5.1299,-5.0684,0.0,0.0,0.0,0.0,0.0,0.0,0.0,0.0,0.0,0.0,0.0,0.0,0.0,0.0,0.0,0.0,0.0,0.0,0.0,0.0,0.0,0.0,-5.1757,-5.1568,-5.1099,-5.0385,-5.0195,-5.0568,-5.1439,-5.0517,-5.0084,-5.0033,-4.9323,-4.9001,-4.8934,-4.8176,-4.7039,-4.5703,-4.5703,-4.5229,-4.4699,-4.5415,-4.5703,-4.5788,0.0,0.0,0.0,0.0,0.0,0.0,0.0,0.0,0.0,0.0,0.0,0.0,0.0,0.0,0.0,0.0,0.0,0.0,-4.6008,-4.6004,-4.5952,-4.5807,-4.5807,-4.5807,-4.5807,-4.5807,-4.625,-4.7135,-4.7656,-4.7893,-4.7893,-4.7893,-4.7624,-4.7119,-4.6898,-4.655,-4.6092,-4.5886,-4.5807,-4.5807,-4.5807,-4.5807,-4.576,0.0,0.0,0.0,0.0,0.0,0.0,0.0,0.0,0.0,0.0,0.0,0.0,-4.1833,-4.305,-4.4354,-4.4473,-4.5672,0.0,-4.6876,0.0,0.0,0.0,-4.9942,-5.0804,-5.114,-5.1245,-5.1,-4.9939,-4.9574,0.0,0.0,0.0,0.0,0.0,0.0,0.0,0.0,0.0,0.0,0.0,0.0,0.0,0.0,0.0,0.0,0.0,0.0,0.0,0.0,0.0,0.0,-4.9817,-4.9755,-4.9622,-4.9402,-4.9354,-4.9472,-4.9723,-4.9455,-4.9323,-4.9306,-4.9086,-4.8714,-4.8139,-4.6887,-4.6092,-4.5652,-4.5128,-4.4801,-4.4632,-4.4869,-4.4925,-4.497,0.0,0.0,0.0,0.0,0.0,0.0,0.0,0.0,0.0,0.0,-4.4042,-4.4464,0.0,0.0,0.0,0.0,0.0,0.0,0.0,-4.5773,-4.5865,-4.5992,-4.5952,-4.588,-4.5807,-4.5807,-4.6013,-4.6408,-4.685,-4.7071,-4.7071,-4.7071,-4.6834,-4.6408,-4.6408,-4.6187,-4.5807,-4.5807,-4.5807,-4.5776,-4.5491,-4.5365,-4.5302,0.0,0.0,0.0,0.0,0.0,0.0,0.0,0.0,0.0,0.0,0.0,0.0,-4.1752,-4.2984,-4.4305,-4.4406,-4.5638,0.0,-4.6876,-4.7443,-4.8188,-4.8959,0.0,0.0,0.0,-5.0851,-5.0137,-4.9276,-4.8862,0.0,0.0,0.0,0.0,0.0,0.0,0.0,0.0,0.0,0.0,0.0,0.0,0.0,0.0,0.0,0.0,0.0,0.0,0.0,0.0,0.0,0.0,-4.8139,-4.8426,-4.8426,-4.8122,-4.8122,-4.8122,-4.8156,-4.8731,-4.8849,-4.8562,-4.8257,-4.7716,-4.6972,-4.6075,-4.5534,-4.5213,-4.4784,-4.4615,-4.4615,-4.4615,-4.4615,-4.4615,0.0,0.0,0.0,0.0,0.0,0.0,0.0,0.0,0.0,0.0,-4.3578,-4.3925,0.0,0.0,0.0,0.0,0.0,0.0,0.0,0.0,-4.5501,-4.617,-4.6156,-4.604,-4.5807,-4.5807,-4.5807,-4.5807,-4.5807,-4.5807,-4.5807,-4.5807,-4.5807,-4.5807,-4.5807,-4.5807,-4.5807,-4.5744,-4.5713,-4.5649,-4.4907,-4.4622,-4.4543,-4.3845,0.0,0.0,0.0,0.0,0.0,0.0,0.0,0.0,0.0,0.0,-4.1588,-4.1588,-4.2886,-4.4305,-4.4305,0.0,0.0,-4.6876,-4.7443,0.0,-4.902,-4.9902,-5.0607,-5.0995,0.0,-4.9094,-4.9011,0.0,0.0,0.0,0.0,0.0,0.0,0.0,0.0,0.0,0.0,0.0,0.0,0.0,0.0,0.0,0.0,0.0,0.0,0.0,0.0,0.0,0.0,0.0,-4.6802,-4.7462,0.0,0.0,-4.6786,-4.6786,-4.6836,-4.8189,-4.8443,-4.7753,-4.7022,-4.6312,-4.5703,-4.5635,-4.5196,-4.4615,-4.4615,-4.4615,-4.4615,-4.4615,-4.4615,-4.4615,0.0,0.0,0.0,0.0,0.0,0.0,0.0,0.0,0.0,0.0,0.0,0.0,0.0,0.0,0.0,0.0,0.0,0.0,0.0,0.0,-4.4918,-4.5485,-4.5975,-4.6187,-4.604,-4.604,-4.5968,-4.5807,-4.5807,-4.5807,-4.5807,-4.5807,-4.5807,-4.5807,-4.5807,-4.5807,-4.5776,-4.5191,-4.4954,-4.4891,-4.4176,-4.3908,-4.3829,-4.3169,-4.2821,0.0,0.0,0.0,0.0,0.0,0.0,0.0,-4.1588,-4.1588,-4.1588,-4.1588,-4.2886,-4.4305,0.0,-4.557,0.0,0.0,-4.7443,-4.8077,-4.8418,-4.8758,-4.9046,-4.9303,-4.9208,-4.8928,0.0,0.0,0.0,0.0,0.0,0.0,0.0,0.0,0.0,0.0,0.0,0.0,0.0,0.0,0.0,0.0,0.0,0.0,0.0,0.0,0.0,0.0,0.0,-4.6955,-4.6786,-4.6955,-4.6955,0.0,-4.6786,-4.6786,-4.6802,-4.7124,-4.7192,-4.7005,-4.6261,-4.5855,-4.5669,-4.506,-4.475,-4.4615,-4.4615,-4.4615,-4.4615,-4.4615,-4.4615,-4.457,0.0,0.0,0.0,0.0,0.0,0.0,0.0,0.0,0.0,0.0,0.0,0.0,0.0,0.0,0.0,0.0,0.0,0.0,0.0,0.0,0.0,-4.4886,-4.5236,-4.5376,-4.5167,-4.5553,-4.5623,-4.5429,-4.5778,-4.588,-4.5807,-4.5807,-4.5807,-4.5807,-4.5807,-4.5618,-4.5254,-4.4875,-4.4527,-4.418,-4.35,-4.3232,-4.3153,-4.2426,-4.2157,-4.211,-4.1731,0.0,0.0,0.0,0.0,0.0,0.0,0.0,-4.1588,-4.1588,-4.2647,-4.3839,0.0,0.0,0.0,0.0,0.0,-4.751,-4.7598,-4.7771,-4.7926,-4.8129,-4.8398,0.0,0.0,0.0,0.0,0.0,0.0,0.0,0.0,0.0,0.0,0.0,0.0,0.0,0.0,0.0,0.0,0.0,0.0,0.0,0.0,0.0,0.0,0.0,0.0,0.0,-4.5766,-4.6092,-4.6046,-4.5587,-4.5587,-4.5575,-4.5534,-4.6051,-4.6261,-4.6227,-4.5483,-4.5162,-4.5145,-4.4666,-4.4468,-4.444,-4.44,-4.4372,-4.4372,-4.4372,-4.4372,-4.4344,0.0,0.0,0.0,0.0,0.0,0.0,0.0,0.0,0.0,0.0,0.0,0.0,0.0,0.0,0.0,0.0,0.0,0.0,0.0,0.0,0.0,-4.433,-4.4475,-4.4473,-4.4271,-4.4847,-4.5067,-4.4859,-4.5463,-4.5675,-4.5496,-4.5697,-4.5807,-4.5807,-4.5681,-4.5286,-4.4685,-4.4464,-4.4038,-4.345,-4.2774,-4.2505,-4.2426,-4.1825,-4.1588,-4.1588,-4.1588,-4.1588,-4.1588,-4.1588,0.0,0.0,0.0,0.0,-4.1588,-4.1588,-4.2359,-4.3309,0.0,0.0,0.0,0.0,0.0,0.0,0.0,-4.7064,0.0,0.0,0.0,0.0,0.0,0.0,0.0,0.0,0.0,0.0,0.0,0.0,0.0,0.0,0.0,0.0,0.0,0.0,0.0,0.0,0.0,0.0,0.0,0.0,0.0,0.0,0.0,-4.5127,-4.453,-4.511,-4.5036,-4.4281,-4.4281,-4.4212,-4.4131,-4.5012,-4.5414,-4.538,-4.4784,-4.4514,-4.4485,-4.431,-4.4281,-4.4253,-4.4155,-4.4097,-4.4097,-4.4097,-4.4097,-4.4097,0.0,0.0,0.0,0.0,0.0,0.0,0.0,0.0,0.0,0.0,-4.3582,-4.3539,0.0,0.0,0.0,0.0,0.0,0.0,-4.2999,0.0,0.0,-4.3816,-4.4431,-4.4655,-4.4473,-4.4569,-4.4516,-4.4297,-4.4393,-4.4389,-4.4246,-4.531,-4.5807,-4.5776,-4.5144,-4.4796,-4.4638,-4.3453,-4.2916,-4.2758,-4.2031,-4.1746,-4.1731,-4.1636,-4.1588,-4.1588,-4.1588,-4.1588,-4.1588,-4.1588,-4.1588,0.0,0.0,0.0,-4.1588,-4.1588,-4.2244,-4.2983,0.0,0.0,0.0,0.0,0.0,0.0,0.0,0.0,0.0,0.0,0.0,0.0,0.0,0.0,0.0,0.0,0.0,0.0,0.0,0.0,0.0,0.0,0.0,0.0,0.0,0.0,0.0,0.0,0.0,0.0,0.0,0.0,-4.4126,-4.4126,-4.4255,0.0,-4.4155,-4.4255,-4.4255,-4.4126,-4.4126,-4.4126,-4.4097,-4.4243,-4.4306,-4.4306,-4.4205,-4.4155,-4.4155,-4.4126,-4.4126,-4.4126,-4.4097,-4.4097,-4.4097,-4.4097,-4.4097,-4.4068,0.0,0.0,0.0,0.0,0.0,0.0,0.0,0.0,0.0,0.0,0.0,-4.3598,0.0,0.0,0.0,-4.3281,-4.3221,-4.3115,-4.2899,-4.313,-4.3215,-4.3072,-4.3379,-4.3509,-4.3444,-4.3848,-4.3943,-4.3762,-4.4179,-4.4271,-4.4118,-4.4598,-4.4709,-4.4587,-4.4255,-4.3943,-4.3532,-4.2947,-4.2457,-4.2047,-4.1715,-4.1588,-4.1588,-4.1588,-4.1588,-4.1588,-4.1588,-4.1588,-4.1588,-4.1588,-4.1588,-4.1588,-4.1588,0.0,0.0,0.0,-4.1958,-4.2489,-4.3167,0.0,0.0,0.0,0.0,0.0,0.0,0.0,0.0,0.0,0.0,0.0,0.0,0.0,0.0,0.0,0.0,0.0,0.0,0.0,0.0,0.0,0.0,0.0,0.0,0.0,0.0,0.0,0.0,0.0,0.0,-4.3939,-4.3998,-4.3998,-4.4056,0.0,-4.4097,-4.4097,-4.3867,-4.338,-4.3248,-4.3202,-4.3202,-4.3202,-4.3523,-4.4097,-4.4097,-4.4097,-4.4097,-4.4027,-4.3998,-4.3969,-4.3864,-4.3835,-4.3835,-4.3835,-4.3835,-4.3805,0.0,0.0,0.0,0.0,0.0,0.0,0.0,0.0,0.0,0.0,0.0,0.0,0.0,0.0,0.0,0.0,-4.3402,-4.3251,-4.2976,-4.293,-4.2837,-4.2665,-4.2634,-4.2602,-4.2602,-4.312,-4.3331,-4.3202,-4.3734,-4.3926,-4.376,-4.3575,-4.3423,-4.3234,-4.339,-4.3169,-4.2679,-4.2489,-4.2094,-4.1588,-4.1588,-4.1588,-4.1588,-4.1588,-4.1588,-4.1588,-4.1588,-4.1588,-4.1588,-4.1588,-4.1588,-4.1588,-4.1588,-4.1588,0.0,0.0,0.0,-4.2091,0.0,0.0,0.0,0.0,0.0,0.0,0.0,0.0,0.0,0.0,0.0,0.0,0.0,0.0,0.0,0.0,0.0,0.0,0.0,0.0,0.0,0.0,0.0,0.0,0.0,0.0,0.0,0.0,0.0,0.0,-4.3598,-4.3734,-4.3822,-4.3822,-4.3939,-4.3898,-4.3697,-4.3514,-4.3089,-4.2442,-4.2282,-4.2208,-4.2208,-4.2208,-4.2767,-4.3697,-4.3898,-4.3981,-4.3952,-4.3852,-4.3822,-4.3793,-4.3658,-4.3598,-4.3598,-4.3598,-4.3598,-4.3598,0.0,0.0,0.0,0.0,0.0,0.0,0.0,0.0,0.0,0.0,0.0,-4.3598,-4.3598,-4.3598,-4.3598,-4.3598,-4.3462,-4.3312,-4.3113,-4.2976,-4.2899,-4.2868,-4.2696,0.0,-4.2602,-4.2635,-4.2651,-4.2651,-4.2683,-4.2621,-4.2494,-4.2286,-4.214,-4.2009,-4.2509,-4.2726,-4.2647,-4.1936,-4.1636,-4.1588,-4.1588,-4.1588,-4.1588,-4.1588,-4.1588,-4.1588,-4.1588,-4.1588,-4.1588,-4.1588,-4.1588,-4.1588,-4.1588,-4.1588,-4.1588,0.0,0.0,0.0,0.0,-4.2848,0.0,0.0,0.0,0.0,0.0,0.0,0.0,0.0,0.0,0.0,0.0,0.0,0.0,0.0,0.0,0.0,0.0,0.0,0.0,0.0,0.0,0.0,0.0,0.0,0.0,0.0,0.0,0.0,-4.3598,-4.3598,-4.3628,-4.3628,-4.3628,-4.328,-4.2585,-4.1872,-4.1508,-4.1475,-4.1475,-4.1446,-4.1446,-4.1446,-4.1872,-4.2618,-4.3313,-4.3628,-4.3628,-4.3628,-4.3628,-4.3628,-4.3598,-4.3598,-4.3598,-4.3598,-4.3598,-4.3598,0.0,0.0,0.0,0.0,0.0,0.0,0.0,0.0,0.0,0.0,0.0,0.0,0.0,-4.3598,-4.3598,-4.3598,-4.3122,-4.2571,-4.1917,-4.1753,-4.1817,-4.2183,-4.2046,-4.2164,-4.2586,-4.2602,-4.2602,-4.2602,-4.2602,-4.2571,-4.2539,-4.2381,-4.219,-4.2012,-4.1989,-4.1983,-4.1968,-4.1699,-4.1588,-4.1588,-4.1588,-4.1588,-4.1588,-4.1588,-4.1588,-4.1588,-4.1588,-4.1588,-4.1588,-4.1588,-4.1588,-4.1588,-4.1588,-4.1588,-4.1509,-4.1083,-4.0769,-4.0578,-4.0734,0.0,0.0,0.0,0.0,0.0,0.0,0.0,0.0,0.0,0.0,0.0,0.0,0.0,0.0,0.0,0.0,0.0,0.0,0.0,0.0,0.0,0.0,0.0,0.0,0.0,0.0,0.0,0.0,0.0,-4.3598,-4.3598,-4.3367,-4.2903,-4.2886,-4.2539,-4.1794,-4.1541,-4.1193,-4.0746,-4.0746,-4.0746,-4.0746,-4.0746,-4.1392,-4.2506,-4.2771,-4.3151,-4.3598,-4.3598,-4.3598,-4.3598,-4.3598,-4.3598,-4.3598,-4.3598,-4.3598,-4.3598,0.0,0.0,0.0,0.0,0.0,0.0,0.0,0.0,-4.3704,-4.3704,0.0,0.0,0.0,0.0,-4.3499,-4.3251,-4.2555,-4.1881,-4.1304,-4.1128,-4.1196,-4.1523,-4.139,-4.161,-4.2261,-4.2278,-4.236,-4.2602,-4.2602,-4.2602,-4.2602,-4.2476,-4.227,-4.2077,-4.1834,-4.167,-4.1588,-4.1588,-4.1588,-4.1588,-4.1588,-4.1588,-4.1588,-4.1588,-4.1588,-4.1588,-4.1588,-4.1588,-4.1588,-4.1588,-4.1588,-4.1588,-4.1588,-4.143,-4.1178,-4.0735,-4.0167,-3.9752,-3.9936,-4.0458,0.0,0.0,0.0,0.0,0.0,0.0,0.0,0.0,0.0,0.0,0.0,0.0,0.0,0.0,0.0,0.0,0.0,0.0,0.0,0.0,0.0,0.0,0.0,0.0,0.0,0.0,0.0,0.0,-4.3234,-4.3234,-4.2886,-4.2142,-4.1922,-4.1558,-4.1077,-4.0829,-4.0464,-4.0044,-4.0044,-4.0044,-4.0044,-4.0044,-4.0663,-4.1823,-4.2026,-4.2688,-4.3598,-4.3598,-4.3598,-4.3598,-4.3598,-4.3598,-4.3598,-4.3598,-4.3598,-4.3598,0.0,0.0,0.0,0.0,0.0,0.0,0.0,0.0,-4.3898,-4.3898,0.0,0.0,0.0,0.0,0.0,-4.2522,-4.1794,-4.1364,-4.1359,-4.1205,-4.1079,-4.098,-4.0789,-4.0954,-4.1563,-4.1579,-4.1873,-4.2538,-4.2538,-4.2554,-4.257,-4.2444,-4.2285,-4.2109,-4.1963,-4.1784,-4.1621,-4.1588,-4.1588,-4.1588,-4.1588,-4.1588,-4.1588,-4.1588,-4.1588,-4.1588,-4.1588,-4.1588,-4.1588,-4.1588,-4.1588,-4.1588,-4.1588,-4.1114,-4.0577,-4.0577,-4.004,-3.9502,0.0,0.0,0.0,-4.0404,0.0,0.0,0.0,0.0,0.0,0.0,0.0,0.0,0.0,0.0,0.0,0.0,0.0,0.0,0.0,0.0,0.0,0.0,0.0,0.0,0.0,0.0,0.0,0.0,0.0,-4.3234,-4.2506,-4.244,-4.2092,-4.138,-4.0696,-4.0348,-4.0348,-3.9636,-3.9299,-3.9299,-3.9299,-3.9299,-3.9299,-3.9299,-3.9713,-4.0442,-4.1094,-4.2191,-4.3565,-4.3582,-4.3598,-4.3598,-4.3598,-4.3598,-4.3598,-4.3598,-4.3598,-4.3598,0.0,0.0,0.0,0.0,0.0,-4.4253,-4.4253,-4.4126,-4.3998,0.0,0.0,0.0,-4.3628,-4.3598,-4.3085,-4.1839,-4.1524,-4.0978,-3.9962,-3.9715,-3.9836,-4.0322,-4.0099,-4.0281,-4.0921,-4.0848,-4.0885,-4.1079,-4.1079,-4.1355,-4.1873,-4.1842,-4.2007,-4.2318,-4.2125,-4.198,-4.1817,-4.167,-4.1588,-4.1588,-4.1588,-4.1588,-4.1588,-4.1588,-4.1588,-4.1588,-4.1588,-4.1588,-4.1588,-4.1588,-4.1588,-4.1588,-4.1588,-4.0767,-3.9803,-3.9803,-3.9058,-3.8243,-3.8435,0.0,0.0,0.0,0.0,0.0,0.0,0.0,0.0,0.0,0.0,0.0,0.0,0.0,0.0,0.0,0.0,0.0,0.0,0.0,0.0,0.0,0.0,0.0,0.0,0.0,0.0,0.0,0.0,-4.2196,-4.1428,-4.0931,-4.0536,-4.0339,-3.9632,-3.9254,-3.9254,-3.904,-3.8958,-3.8942,-3.904,-3.9094,-3.9094,-3.9245,-3.9713,-4.0426,-4.058,-4.1491,-4.2837,-4.3367,-4.3598,-4.3598,-4.3598,-4.3598,-4.3598,-4.3598,-4.3598,-4.3598,0.0,0.0,0.0,0.0,0.0,-4.444,-4.444,-4.4298,-4.4126,0.0,0.0,0.0,-4.3628,-4.3317,-4.2787,-4.1926,-4.1326,-4.063,-3.9812,-3.9357,-3.9275,-3.9622,-3.9488,-3.9691,-4.0264,-4.0222,-4.0264,-4.0496,-4.0496,-4.0707,-4.1158,-4.1158,-4.1294,-4.1512,-4.1292,-4.131,-4.1437,-4.1243,-4.1336,-4.1588,-4.1588,-4.1588,-4.1588,-4.1588,-4.1588,-4.1588,-4.1588,-4.1588,-4.1588,-4.1588,-4.1588,-4.1588,-4.1588,-4.0625,-3.9503,-3.9503,-3.8661,-3.773,-3.7876,-3.8338,-3.8818,-3.8994,0.0,0.0,-4.0075,-4.064,0.0,0.0,0.0,0.0,0.0,0.0,0.0,0.0,0.0,0.0,0.0,0.0,0.0,0.0,0.0,0.0,0.0,0.0,0.0,0.0,-4.1622,-4.134,-4.0574,-3.9837,-3.9444,-3.9444,-3.9018,-3.8805,-3.8805,-3.8805,-3.8805,-3.8805,-3.8887,-3.8914,-3.8914,-3.904,-3.9325,-3.9754,-4.0122,-4.0927,-4.2018,-4.2791,-4.3317,-4.3598,-4.3598,-4.3598,-4.3598,-4.3598,-4.3598,-4.3598,0.0,0.0,-4.4615,-4.4615,-4.4615,-4.4615,-4.4615,-4.444,-4.4281,0.0,-4.3998,-4.3822,-4.3628,-4.3002,-4.2589,-4.2489,-4.1359,-4.0575,-4.0426,-3.9796,-3.9301,-3.9023,-3.9023,-3.9199,-3.9605,-3.9593,-3.98,-4.0283,-4.0283,-4.0302,-4.0383,-4.0383,-4.0372,-4.0319,-4.0105,-4.0352,-4.0849,-4.0689,-4.102,-4.1621,-4.1621,-4.1588,-4.1588,-4.1588,-4.1588,-4.1588,-4.1588,-4.1588,-4.1588,-4.1588,-4.1588,-4.1588,-4.1588,-4.0625,-3.9503,-3.9534,-3.8661,-3.7759,-3.7905,-3.8078,-3.825,-3.8363,-3.8877,0.0,-3.9392,-3.9897,0.0,0.0,0.0,0.0,0.0,0.0,0.0,0.0,0.0,0.0,0.0,0.0,0.0,0.0,0.0,0.0,0.0,0.0,0.0,-4.0905,-4.0774,-4.0447,-3.9764,-3.9093,-3.875,-3.875,-3.875,-3.875,-3.875,-3.875,-3.875,-3.875,-3.8777,-3.8777,-3.8777,-3.8805,-3.8805,-3.8838,-3.9632,-4.0379,-4.1115,-4.1972,-4.2824,-4.3598,-4.3598,-4.3598,-4.3598,-4.3598,-4.3552,-4.3522,0.0,-4.4615,-4.4615,-4.4615,-4.4615,-4.4615,-4.4615,-4.457,-4.4468,-4.4281,-4.4056,-4.3822,-4.3628,-4.3466,-4.3135,-4.2539,-4.227,-4.1607,-4.0475,-4.0276,-3.9901,-3.9262,-3.9094,-3.9035,-3.9128,-3.8939,-3.8881,-3.8983,-3.8853,-3.9104,-3.9716,-3.9716,-3.9978,-4.0437,-4.0303,-4.0614,-4.1195,-4.0896,-4.1182,-4.1833,-4.167,-4.1588,-4.1588,-4.1588,-4.1588,-4.1588,-4.1588,-4.1588,-4.1588,-4.1588,-4.1588,-4.1588,-4.1588,-4.0625,-3.9534,-3.969,-3.8858,-3.7905,-3.8078,-3.825,-3.8379,-3.8391,-3.8505,0.0,-3.8602,-3.9169,-3.9716,0.0,0.0,0.0,0.0,0.0,0.0,0.0,0.0,0.0,0.0,0.0,0.0,0.0,0.0,0.0,0.0,0.0,-4.055,-3.9852,-3.9251,-3.8833,-3.8687,-3.8557,-3.8476,-3.8476,-3.8476,-3.8476,-3.8476,-3.8476,-3.8476,-3.8476,-3.8588,-3.8644,-3.8644,-3.875,-3.8805,-3.8805,-3.898,-3.9483,-4.0205,-4.0972,-4.2202,-4.3598,-4.3598,-4.3539,-4.3432,-4.3432,-4.3342,-4.3204,-4.4615,-4.4615,-4.4615,-4.4615,-4.4615,-4.4615,-4.4615,-4.4615,-4.4542,-4.4338,-4.4085,-4.3868,-4.3763,-4.3658,-4.3449,-4.3069,-4.2704,-4.222,-4.1491,-4.0779,-4.0243,-3.9862,-3.94,-3.9094,-3.8996,-3.8876,-3.8727,-3.8588,-3.8532,-3.8642,-3.8942,-3.8942,-3.912,-3.9444,-3.9314,-3.9629,-4.0259,-4.0367,-4.0816,-4.1502,-4.156,-4.1588,-4.1588,-4.1588,-4.1588,-4.1588,-4.1588,-4.167,-4.1752,-4.1752,-4.1801,-4.1851,-4.1851,-4.0881,-3.9783,-3.986,-3.9038,-3.8078,-3.818,-3.8294,-3.8391,-3.8391,-3.8391,0.0,0.0,-3.8683,-3.8942,0.0,0.0,0.0,0.0,0.0,0.0,0.0,0.0,0.0,0.0,0.0,0.0,0.0,0.0,0.0,0.0,0.0,-3.9703,-3.8991,-3.8602,-3.8246,-3.7873,-3.7857,-3.7711,-3.7371,-3.7355,-3.7355,-3.7355,-3.7679,-3.7857,-3.7873,-3.8286,-3.8504,-3.8504,-3.8572,-3.86,-3.86,-3.8683,-3.9119,-3.9866,-4.066,-4.171,-4.2894,-4.3224,-4.3295,-4.3235,-4.3235,-4.3204,-4.3113,-4.4615,-4.4615,-4.4615,-4.4615,-4.4615,-4.4615,-4.4615,-4.4615,-4.4542,-4.4338,-4.4097,-4.3956,-4.3898,-4.3763,-4.3628,-4.3598,-4.3052,-4.2638,-4.2506,-4.1442,-4.0729,-4.058,-3.9912,-3.9433,-3.9265,-3.9106,-3.8903,-3.8672,-3.8644,-3.856,-3.842,-3.842,-3.842,-3.8408,-3.8294,-3.8624,-3.9304,-3.9847,-4.0491,-4.1149,0.0,-4.1687,-4.1687,-4.1687,-4.1687,-4.1687,-4.1687,-4.1801,-4.1931,-4.1931,-4.2012,-4.2109,-4.2109,-4.1133,-3.9998,-4.0044,-3.9186,-3.8209,-3.8221,-3.8323,-3.8391,-3.8391,-3.8391,-3.8391,0.0,0.0,0.0,0.0,0.0,0.0,0.0,0.0,0.0,0.0,0.0,0.0,0.0,0.0,0.0,0.0,0.0,0.0,0.0,0.0,-3.8634,-3.8035,-3.8003,-3.7744,-3.7134,-3.7101,-3.6869,-3.6319,-3.6303,-3.6303,-3.6303,-3.6826,-3.7166,-3.7295,-3.7906,-3.8262,-3.8391,-3.8391,-3.8391,-3.8408,-3.8504,-3.8885,-3.9528,-4.0361,-4.1125,-4.189,-4.2755,-4.3066,-4.3052,-4.3052,-4.3052,-4.3005,-4.4615,-4.4615,-4.4615,-4.4615,-4.4615,-4.4615,-4.4615,-4.4615,-4.4542,-4.4338,-4.4281,-4.4167,-4.3927,-4.3868,-4.3793,-4.3628,-4.3515,-4.3184,-4.2539,-4.234,-4.196,-4.1326,-4.063,-4.0249,-4.0249,-3.9424,-3.8969,-3.8942,-3.8832,-3.8711,-3.856,-3.856,-3.8504,-3.8391,-3.8363,-3.8768,-3.9496,-4.0059,-4.0661,0.0,-4.1821,-4.2045,0.0,-4.2045,-4.2045,-4.2045,-4.2045,-4.2045,-4.2093,-4.2093,-4.2077,-4.2109,-4.2109,-4.1133,-4.0028,-4.0228,-3.9291,-3.8237,-3.8335,-3.8408,-3.8391,-3.8391,-3.8391,-3.8391,-3.8391,0.0,-3.8391,-3.8391,0.0,0.0,0.0,0.0,0.0,0.0,0.0,0.0,0.0,0.0,0.0,0.0,0.0,0.0,0.0,0.0,0.0,-3.6546,-3.6546,-3.6513,-3.6432,-3.6416,-3.6384,-3.6303,-3.6303,-3.6303,-3.6303,-3.6384,-3.6724,-3.7295,-3.7376,-3.7776,-3.8391,-3.8391,-3.8391,-3.8391,-3.8436,-3.8468,-3.8598,-3.9356,-4.0053,-4.0845,-4.2451,-4.3037,-4.293,-4.293,-4.279,-4.2665,-4.4615,-4.4615,-4.4615,-4.4615,-4.4615,-4.4615,-4.4615,-4.4942,-4.5201,-4.5127,-4.5378,-4.553,-4.5429,-4.5267,-4.5133,-4.5056,-4.4948,-4.4572,-4.3827,-4.3367,-4.2804,-4.2059,-4.1359,-4.0796,-4.0426,-4.0012,-3.955,-3.8996,-3.8942,-3.8832,-3.8711,-3.8644,-3.8576,-3.8504,-3.842,-3.857,-3.8893,0.0,-4.0229,0.0,0.0,-4.2042,0.0,-4.2174,-4.2109,-4.2109,-4.2109,-4.2174,-4.227,0.0,-4.2349,-4.2397,-4.2397,-4.1414,-4.0317,-4.0393,-3.9421,-3.8323,-3.8363,-3.8391,-3.8391,-3.8391,-3.8391,-3.8391,-3.8391,-3.8391,-3.8391,-3.8391,0.0,0.0,0.0,0.0,0.0,0.0,-3.7193,0.0,0.0,0.0,0.0,0.0,0.0,0.0,0.0,0.0,0.0,0.0,0.0,-3.6108,-3.5671,-3.5655,-3.5461,-3.504,-3.5024,-3.5024,-3.5024,-3.5445,-3.6011,-3.6713,-3.7101,-3.7695,-3.8391,-3.8391,-3.8391,-3.8391,-3.8391,-3.8391,-3.8456,-3.9185,-3.991,-4.0623,-4.1766,-4.2416,-4.2728,-4.2728,-4.2665,-4.2602,-4.4682,-4.4643,-4.4615,-4.4615,-4.4615,-4.4682,-4.4886,-4.5348,-4.5771,-4.5974,-4.6359,-4.6574,-4.6514,-4.6321,-4.6185,-4.611,-4.597,-4.5628,-4.5019,-4.4307,-4.3678,-4.3131,-4.222,-4.1475,-4.0978,-4.0608,-4.0062,-3.9391,-3.9176,-3.8996,-3.886,-3.8766,-3.8672,-3.8604,-3.8504,-3.842,-3.844,0.0,-3.991,-4.0545,-4.1304,-4.2002,-4.2571,-4.2333,-4.2238,-4.2238,-4.2238,-4.2333,-4.2445,-4.2445,-4.2508,0.0,-4.2602,-4.1646,-4.0496,-4.0496,-3.9493,-3.8391,-3.8391,-3.8391,-3.8391,-3.8391,-3.8391,-3.8391,-3.8391,-3.8391,-3.8391,-3.8391,-3.8391,0.0,0.0,0.0,-3.7231,-3.7053,0.0,-3.5995,0.0,0.0,0.0,0.0,0.0,0.0,0.0,0.0,0.0,0.0,-3.5704,0.0,-3.4936,-3.4903,-3.4635,-3.4117,-3.4101,-3.4101,-3.4101,-3.4619,-3.5266,-3.6011,-3.6707,-3.7404,-3.8116,-3.8311,-3.8391,-3.8391,-3.8391,-3.8391,-3.844,-3.8974,-3.9703,-4.0545,-4.111,-4.1824,-4.2602,-4.2602,-4.2602,-4.2602,-4.4776,-4.4682,-4.4615,-4.4615,-4.4615,-4.4852,-4.5568,-4.5686,-4.5957,-4.6667,-4.6769,-4.6727,-4.6498,-4.6468,-4.6364,-4.6124,-4.6079,-4.6001,-4.5796,-4.5052,-4.4638,-4.4622,-4.3247,-4.244,-4.2423,-4.1094,-4.0393,-4.0348,-3.962,-3.9175,-3.8996,-3.8996,-3.8849,-3.8588,-3.8604,-3.8504,-3.844,-3.9197,-3.991,-4.0545,-4.1304,-4.2002,-4.2602,0.0,-4.2602,-4.2602,-4.2602,0.0,0.0,-4.2602,-4.2602,0.0,0.0,0.0,0.0,0.0,0.0,0.0,0.0,0.0,0.0,-3.8391,0.0,0.0,-3.8391,-3.8391,-3.8391,-3.8391,-3.8391,-3.8181,-3.7457,-3.7311,-3.7085,-3.6448,-3.5704,0.0,0.0,0.0,0.0,0.0,0.0,0.0,0.0,0.0,0.0,0.0,-3.4165,0.0,-3.4133,-3.4133,-3.4117,-3.4101,-3.4101,-3.4101,-3.4101,-3.4117,-3.4505,-3.5244,-3.5979,-3.6691,-3.7344,-3.8068,-3.8391,-3.8391,-3.8391,-3.8391,-3.8391,-3.8424,-3.925,-4.0496,-4.0529,-4.1387,-4.2602,-4.2602,-4.2602,-4.2602,-4.4803,-4.4682,-4.4615,-4.4615,-4.4615,-4.4869,-4.5602,-4.6549,-4.7259,-4.7513,-4.7953,-4.8227,-4.8149,-4.8074,-4.7981,-4.7905,-4.7764,-4.7452,-4.6905,-4.6545,-4.5918,-4.4936,-4.4284,-4.3495,-4.2506,-4.1558,-4.0829,-4.0409,-3.9663,-3.9272,-3.9218,-3.905,-3.8942,-3.8876,-3.8766,-3.8655,0.0,0.0,0.0,0.0,0.0,-4.2392,-4.2602,0.0,0.0,-4.2602,-4.2602,-4.2602,0.0,-4.2602,-4.2602,-4.2522,-4.2083,-4.1274,-4.0399,-3.9962,-3.9153,0.0,0.0,0.0,-3.8391,-3.8391,0.0,0.0,0.0,0.0,-3.8391,-3.8391,-3.8391,-3.8181,-3.7425,-3.6923,-3.6416,-3.5671,-3.4943,-3.4311,0.0,0.0,0.0,0.0,0.0,0.0,0.0,0.0,0.0,-3.2708,-3.3161,-3.3437,0.0,-3.3858,-3.4101,-3.4101,-3.4101,-3.4101,-3.4101,-3.4101,-3.4473,-3.5211,-3.5946,-3.6632,-3.7328,-3.8068,-3.8391,-3.8391,-3.8391,-3.8391,-3.8391,-3.8391,-3.8958,-3.9865,-4.0318,-4.1079,-4.1986,-4.2424,-4.2602,-4.2602,-4.567,-4.5546,-4.5365,-4.5055,-4.5196,-4.5618,-4.638,-4.728,-4.7973,-4.8274,-4.8934,-4.939,-4.939,-4.955,-4.9624,-4.9592,-4.9213,-4.8765,-4.8216,-4.7619,-4.6839,-4.5901,-4.5169,-4.4348,-4.3418,-4.2348,-4.1458,-4.0746,-4.0044,-3.9564,-3.9299,-3.9175,-3.9067,-3.8996,-3.8914,-3.8794,-3.8655,-3.8655,-3.9402,0.0,0.0,-4.2602,0.0,0.0,-4.2602,-4.2602,0.0,-4.2602,-4.2602,-4.2602,-4.2424,-4.218,-4.1758,-4.0931,-4.0043,-3.9635,-3.8974,-3.8391,-3.8391,-3.8391,0.0,-3.8391,-3.8391,0.0,-3.8391,0.0,-3.8391,0.0,-3.8197,-3.7792,-3.7096,-3.6384,-3.5671,-3.4936,-3.4198,-3.3404,0.0,-3.1915,0.0,0.0,0.0,0.0,0.0,0.0,-3.2012,-3.2012,-3.2433,-3.2708,0.0,0.0,-3.3744,-3.3744,-3.3971,-3.4101,-3.4101,-3.4101,-3.4327,-3.4813,-3.5817,-3.6546,-3.6999,-3.7954,-3.8391,-3.8391,-3.8391,-3.8391,-3.8391,-3.8391,-3.8829,-3.9554,-3.9991,-4.0753,-4.1693,-4.2327,-4.2602,-4.2602,-4.7261,-4.7123,-4.6792,-4.5969,-4.6397,-4.709,-4.777,-4.7939,-4.8244,-4.8968,-4.9695,-5.0135,-5.0135,-5.0777,-5.1153,-5.1007,-5.0384,-4.9866,-4.9638,-4.8299,-4.7479,-4.7412,-4.5935,-4.506,-4.5023,-4.3402,-4.2204,-4.1475,-4.0757,-4.0044,-3.9348,-3.9315,-3.9218,-3.9023,-3.9023,0.0,-3.8805,-3.8805,-3.9556,-4.0818,-4.2113,-4.2634,-4.2602,-4.2602,0.0,-4.2602,-4.2602,-4.2602,-4.2586,-4.2554,-4.2132,-4.1596,-4.1531,-4.0591,-3.9505,-3.9473,-3.8942,-3.8391,-3.8391,-3.8391,-3.8391,-3.8391,0.0,0.0,0.0,0.0,-3.8391,0.0,0.0,-3.7085,-3.6432,-3.5687,-3.4968,-3.4214,-3.3501,-3.2546,-3.1098,-3.0872,-3.0619,0.0,0.0,0.0,0.0,-3.1898,-3.1898,-3.1898,-3.1931,-3.1963,0.0,0.0,0.0,-3.308,-3.3744,-3.4101,-3.4101,-3.4101,-3.4101,-3.4117,-3.5606,-3.6303,-3.6351,-3.776,-3.8391,-3.8391,-3.8391,-3.8391,-3.8391,-3.8391,-3.8796,-3.9457,-3.9505,-4.0364,-4.1662,-4.2344,-4.2602,-4.2571,-4.7261,-4.7461,-4.7594,-4.7378,-4.7496,-4.7699,0.0,-4.8832,-4.9593,-4.9779,-5.0456,-5.093,-5.093,-5.1099,-5.1185,-5.1153,-5.1,-5.0597,-5.0008,-4.951,-4.8757,-4.7679,-4.7074,-4.6263,-4.5172,-4.409,-4.3186,-4.2425,-4.1078,-4.031,-4.0111,-3.9564,-3.9272,-3.9202,-3.9202,-3.9121,-3.8942,-3.8942,-3.9696,-4.104,-4.2419,-4.2898,0.0,0.0,-4.2728,-4.2602,-4.2602,-4.2602,-4.2522,-4.2019,-4.1758,-4.1417,-4.038,-3.9797,-3.9408,-3.8829,-3.8537,-3.8391,-3.8391,-3.8391,-3.8391,-3.8391,-3.8391,-3.8391,0.0,0.0,0.0,0.0,0.0,0.0,0.0,0.0,-3.4968,-3.4214,-3.308,-3.1963,-3.1034,-3.0474,-3.0091,-2.9913,0.0,0.0,0.0,-3.0447,-3.0447,-3.0447,-3.0911,0.0,0.0,0.0,0.0,-3.308,-3.3744,-3.4101,-3.4101,-3.4101,-3.4101,-3.4117,-3.5606,-3.6303,-3.6351,-3.776,-3.8391,-3.8391,-3.8391,-3.8391,-3.8391,-3.8391,-3.8505,-3.8732,-3.9295,-4.0275,-4.1492,-4.2312,-4.2539,-4.2445,-4.8323,-4.869,-4.8975,-4.8866,-4.9137,0.0,-4.8917,-4.956,0.0,-5.0541,-5.1234,-5.1691,-5.1691,-5.2012,-5.2215,-5.2215,-5.1894,-5.1505,-5.1082,-5.0377,-4.962,-4.8776,-4.7964,-4.6982,-4.579,-4.4905,-4.396,-4.2896,-4.1605,-4.079,-4.0458,-3.9674,-3.9299,-3.9299,-3.9299,-3.9245,-3.917,-3.9715,-4.04,-4.1202,-4.257,0.0,0.0,-4.2976,-4.2883,-4.2728,-4.2728,-4.2665,-4.2489,-4.1839,-4.1401,-4.0948,-3.9846,-3.9295,-3.8926,-3.8521,-3.8391,-3.8391,-3.8391,-3.8391,-3.8391,-3.8391,-3.8391,-3.8391,-3.8391,-3.8149,-3.7922,0.0,0.0,0.0,0.0,0.0,-3.4376,-3.3356,-3.253,-3.1639,-3.0619,-3.0139,-2.9896,-2.9896,-2.9896,0.0,0.0,0.0,-2.9896,-2.9896,0.0,0.0,0.0,0.0,0.0,0.0,-3.3291,-3.3793,-3.4101,-3.4101,-3.4101,-3.4117,-3.5606,-3.6303,-3.6351,-3.776,-3.8391,-3.8391,-3.8391,-3.8391,-3.8391,-3.8391,-3.8391,-3.8472,-3.9127,-3.9946,-4.084,-4.1641,-4.2076,-4.2254,-5.0012,-5.0277,-5.049,-5.0299,-5.0777,0.0,0.0,-5.0388,0.0,-5.1268,0.0,-5.2469,-5.2469,-5.3078,-5.3501,-5.3501,-5.2858,-5.2418,-5.2317,-5.0997,-5.0185,-5.0084,-4.8658,-4.745,-4.6561,-4.5757,-4.4658,-4.3183,-4.2194,-4.1405,-4.0754,-3.9787,-3.9325,-3.9325,0.0,0.0,0.0,-4.0739,-4.1263,-4.1478,-4.2692,-4.3157,-4.3143,-4.3143,-4.3037,-4.2899,-4.2899,-4.2759,-4.2473,-4.1695,-4.1045,-4.0367,-3.959,-3.891,-3.8391,-3.8391,-3.8391,-3.8436,-3.8436,-3.842,-3.8415,-3.8306,-3.8274,-3.8258,-3.8149,-3.763,-3.7166,-3.7166,-3.6125,-3.5211,0.0,0.0,-3.3663,-3.2368,-3.206,-3.1542,-3.022,-2.9945,-2.9896,-2.9896,-2.9896,0.0,0.0,0.0,0.0,0.0,0.0,0.0,0.0,0.0,0.0,0.0,-3.2708,0.0,-3.4101,0.0,-3.4101,-3.4117,-3.5606,-3.6303,-3.6351,-3.776,-3.8391,-3.8391,-3.8391,-3.8391,-3.8391,-3.8363,-3.8379,-3.8371,-3.8853,-3.9365,-3.9919,-4.067,-4.1342,-4.1901,-5.1506,-5.1452,-5.1286,-5.1255,-5.1229,-5.1369,-5.1843,-5.1911,-5.1961,-5.2097,-5.2807,-5.3298,-5.3298,-5.3416,-5.3501,-5.3501,-5.3365,-5.301,-5.235,-5.1505,-5.0744,-5.0118,-4.9241,-4.8142,-4.679,-4.6456,-4.556,-4.408,-4.2585,-4.1782,-4.1632,-4.0144,-3.9458,-3.9475,0.0,0.0,-4.0276,-4.1049,0.0,-4.2344,-4.3191,-4.3432,-4.3342,-4.3342,-4.316,-4.2899,-4.2899,-4.2759,-4.2392,-4.1112,-4.0594,-4.027,-3.8991,-3.8505,-3.8391,-3.8391,-3.8476,-3.856,-3.856,-3.8655,-3.8547,-3.7834,-3.766,-3.7487,-3.6816,-3.6578,-3.6481,-3.6481,-3.5785,-3.5211,-3.5211,0.0,0.0,-3.3032,-3.24,-3.1704,-3.0839,-3.0247,-2.9896,-2.9896,-2.9896,-2.9896,0.0,0.0,0.0,0.0,0.0,0.0,0.0,0.0,0.0,0.0,0.0,0.0,0.0,0.0,0.0,-3.4117,-3.5606,-3.6303,-3.6351,-3.776,-3.8391,-3.8391,-3.8391,-3.8391,-3.8391,-3.8294,-3.8135,-3.8008,-3.8091,-3.8467,-3.9033,-3.9782,-4.0388,-4.0959,-5.1953,-5.2175,-5.2306,-5.2228,-5.2391,0.0,0.0,-5.2975,0.0,-5.2926,-5.3264,-5.3501,-5.3501,-5.3501,-5.3501,-5.3501,-5.3501,-5.3348,-5.2959,-5.186,-5.1048,-5.0693,-4.9593,-4.8494,-4.7394,-4.6883,-4.611,-4.5031,-4.3373,-4.2366,-4.198,-4.0756,-3.9957,-3.9616,0.0,-3.9794,0.0,0.0,0.0,-4.2555,-4.33,-4.3568,-4.3492,-4.3492,-4.3358,-4.3146,-4.3037,-4.2914,-4.2517,-4.1012,-4.0496,-4.0254,-3.8845,-3.8391,-3.8391,-3.8476,-3.8548,-3.8535,-3.8226,-3.8194,-3.8041,-3.7241,-3.6981,-3.6847,-3.6458,-3.6048,-3.572,-3.572,-3.5137,-3.4619,-3.4619,-3.4327,0.0,0.0,0.0,0.0,0.0,-3.0312,-2.9896,-2.9896,-2.9896,-2.9896,0.0,0.0,0.0,0.0,0.0,0.0,0.0,0.0,0.0,0.0,0.0,0.0,0.0,0.0,0.0,-3.3915,-3.4993,-3.5701,-3.6061,-3.715,-3.781,-3.8135,-3.8135,-3.8135,-3.8135,-3.8078,-3.7934,-3.7788,-3.7788,-3.8114,-3.8692,-3.939,-4.004,-4.0704,-5.2564,-5.2966,-5.3298,-5.3173,-5.349,0.0,-5.3766,-5.3634,-5.3534,-5.3501,-5.3501,-5.3501,-5.3501,-5.3501,-5.3501,-5.3501,-5.3501,-5.3501,-5.3501,-5.2063,-5.1185,-5.1185,-4.9796,-4.8663,-4.7906,-4.7175,-4.643,-4.5703,-4.4052,-4.2951,-4.2351,-4.1476,-4.0769,0.0,0.0,0.0,0.0,0.0,-4.2116,-4.2846,-4.3396,-4.3598,-4.3598,-4.3598,-4.3539,-4.3372,-4.3204,-4.3068,-4.2657,-4.1072,-4.0526,-4.0254,-3.8845,-3.8391,-3.8436,-3.856,-3.8518,-3.8313,-3.7888,-3.7662,-3.7393,-3.661,-3.6352,-3.6215,-3.6,-3.5451,-3.4994,-3.4968,-3.4489,-3.4101,-3.4101,-3.4101,0.0,0.0,0.0,0.0,0.0,0.0,-2.9896,-2.9896,-2.9896,-2.9896,-2.9896,0.0,0.0,0.0,0.0,0.0,0.0,0.0,0.0,0.0,0.0,0.0,-3.3832,0.0,-3.3797,0.0,-3.4456,-3.5161,-3.581,-3.6558,-3.7262,-3.7905,-3.7905,-3.786,-3.7876,-3.7876,-3.7788,-3.7642,-3.7642,-3.7931,-3.8381,-3.9044,-3.9756,-4.0467,-5.4273,-5.4181,0.0,0.0,0.0,0.0,-5.398,-5.3816,-5.3634,-5.3534,-5.3501,-5.3501,-5.3501,-5.3501,-5.3501,-5.3501,-5.3501,-5.3501,-5.3501,-5.2063,-5.1185,-5.1185,-4.9796,-4.8663,-4.7906,-4.7175,-4.643,-4.5703,-4.4136,-4.3358,-4.3274,-4.2395,0.0,0.0,0.0,0.0,0.0,-4.2705,-4.3069,-4.3768,-4.3641,-4.3598,-4.3598,-4.3598,-4.3539,-4.3402,-4.3372,-4.3176,-4.2688,-4.1241,-4.0648,-4.0254,-3.8845,-3.8391,-3.8436,-3.856,-3.8226,-3.7806,-3.7949,-3.7586,-3.6943,-3.6075,-3.5869,-3.5629,-3.4692,-3.4447,-3.4348,-3.4223,-3.4149,-3.4101,-3.4101,-3.4101,-3.4084,0.0,0.0,0.0,0.0,0.0,-2.9896,-2.9896,-2.9896,-2.9896,0.0,0.0,0.0,0.0,0.0,0.0,0.0,0.0,0.0,0.0,0.0,-3.2425,-3.372,-3.372,0.0,-3.371,-3.4456,-3.5161,-3.581,-3.6558,-3.7262,-3.7905,-3.7905,-3.7847,-3.773,-3.773,-3.7642,-3.751,-3.751,-3.7541,-3.7654,-3.8349,-3.9029,-3.9708,0.0,0.0,0.0,0.0,0.0,0.0,0.0,-5.4664,-5.4343,-5.3868,-5.3618,-5.3501,-5.3501,-5.3501,-5.3501,-5.3501,-5.3501,-5.3501,-5.3501,-5.2063,-5.1185,-5.1185,-4.9796,-4.8866,-4.8578,-4.7394,-4.665,-4.6363,-4.4857,-4.3876,-4.3375,-4.3033,0.0,0.0,0.0,-4.2427,-4.3105,-4.2964,-4.3285,-4.3898,-4.3793,-4.3704,-4.3598,-4.3598,-4.3568,-4.3509,-4.3449,-4.3018,-4.2359,-4.1183,-4.0677,-4.0254,-3.8845,-3.8391,-3.8367,-3.8133,-3.7899,-3.758,-3.6949,-3.6621,-3.6249,-3.5456,-3.5209,-3.5005,-3.4538,-3.4349,-3.425,-3.4126,-3.4101,-3.4101,-3.4101,-3.4101,-3.4101,0.0,0.0,0.0,0.0,0.0,-2.9764,-2.9675,-2.9742,-2.9786,-2.9786,0.0,0.0,0.0,0.0,0.0,0.0,0.0,0.0,-3.175,0.0,-3.2376,-3.3565,-3.3581,-3.3555,-3.345,-3.3763,-3.4255,-3.4911,-3.5669,-3.6622,-3.7642,-3.7642,-3.7628,-3.7599,-3.7599,-3.7539,-3.751,-3.751,-3.751,-3.7589,-3.8254,-3.8934,-3.9613,-5.5926,0.0,-5.6805,0.0,-5.6689,-5.6331,-5.5575,-5.5306,-5.4934,-5.4148,-5.38,-5.3618,-5.3551,-5.3534,-5.3501,-5.3501,-5.3501,-5.3501,-5.3501,-5.2063,-5.1185,-5.1185,-4.9796,0.0,-4.9001,-4.7767,-4.7022,-4.6786,-4.5534,-4.4519,-4.3758,0.0,0.0,0.0,-4.2871,-4.3103,-4.3608,-4.3452,-4.3612,-4.3998,-4.3927,-4.3822,-4.3687,-4.3628,-4.3598,-4.3565,-4.3261,-4.2776,-4.2127,-4.0987,-4.0469,-4.0096,-3.8809,-3.8436,-3.8358,-3.7856,-3.7586,-3.7255,-3.6266,-3.5843,-3.5545,-3.5032,-3.4828,-3.4715,-3.4546,-3.4423,-3.43,-3.4126,-3.4101,-3.4101,-3.4101,-3.4101,-3.4101,-3.4101,0.0,0.0,0.0,-3.0651,0.0,-2.963,-2.9697,-2.9764,-2.9764,-2.9836,0.0,0.0,0.0,0.0,0.0,0.0,0.0,0.0,0.0,0.0,0.0,0.0,-3.3398,-3.3309,-3.3309,-3.3656,-3.432,-3.5268,-3.6342,-3.751,-3.751,-3.751,-3.751,-3.751,-3.751,-3.751,-3.751,-3.751,-3.7573,-3.8033,-3.8634,-3.9313,-5.6633,-5.6788,-5.6805,-5.6805,-5.6805,-5.6529,-5.5704,-5.5487,-5.5132,-5.4293,-5.4078,-5.3915,-5.3717,-5.3584,-5.3501,-5.3501,-5.3501,-5.3501,-5.3501,-5.2063,-5.1185,0.0,0.0,-4.9001,-4.9001,-4.8291,-4.753,-4.6786,0.0,0.0,-4.4598,0.0,-4.4581,-4.4581,-4.4581,-4.4581,-4.457,-4.4367,-4.4293,-4.4281,-4.3998,-4.3898,-4.3868,-4.3674,-4.3598,-4.3499,-4.2771,-4.2418,-4.2074,-4.0609,-4.0031,-3.9731,-3.8731,-3.8476,-3.8469,-3.7883,-3.7337,-3.6776,-3.6183,-3.5462,-3.4916,-3.4899,-3.4899,-3.4828,-3.4546,-3.4497,-3.4423,-3.4151,-3.4101,-3.4101,-3.4101,-3.4101,-3.4101,-3.4101,0.0,0.0,0.0,0.0,0.0,-2.9896,-2.9896,-2.9896,-2.9896,0.0,0.0,0.0,0.0,0.0,0.0,0.0,0.0,-3.1558,-3.1453,0.0,-3.3293,-3.3309,-3.3309,-3.3309,-3.3309,-3.3656,-3.4336,-3.5758,-3.6801,-3.751,-3.751,-3.751,-3.751,-3.751,-3.751,-3.751,-3.751,-3.751,-3.751,-3.7526,-3.7938,-3.8587,-5.7442,-5.7961,-5.8305,-5.8305,-5.8305,-5.7874,-5.6615,-5.636,-5.588,-5.4571,-5.4239,-5.411,-5.4028,-5.3783,-5.3634,0.0,-5.3551,-5.3501,0.0,-5.2063,-5.1185,-5.1185,-4.9796,-4.9001,-4.9001,-4.8261,-4.777,-4.7564,0.0,0.0,0.0,-4.4615,-4.4615,-4.4615,-4.4615,-4.4615,-4.4615,-4.4542,-4.444,-4.4293,-4.4212,-4.4068,-4.3898,-4.3822,-4.3418,-4.2804,-4.2572,-4.1877,-4.091,-4.032,-3.9742,-3.9226,-3.8804,-3.8711,-3.8521,-3.7485,-3.7037,-3.6644,-3.5554,-3.5081,-3.4899,-3.4899,-3.4899,-3.4851,-3.4683,-3.4497,-3.4325,-3.4126,-3.4101,-3.4101,-3.4101,-3.4101,-3.4101,-3.4101,-3.2919,0.0,0.0,0.0,-2.9742,-2.9653,-2.972,-2.9748,0.0,-2.9852,0.0,0.0,0.0,0.0,0.0,0.0,0.0,0.0,-3.1557,0.0,-3.3293,-3.3309,-3.3309,-3.3309,-3.3309,-3.3656,-3.432,-3.5284,-3.6105,-3.6785,-3.7275,-3.751,-3.751,-3.751,-3.751,-3.751,-3.751,-3.751,-3.751,-3.751,-3.7862,-3.8401,-5.8234,-5.8736,-5.9012,-5.9012,-5.8788,-5.8185,-5.6978,-5.6546,-5.5908,-5.4667,-5.4399,-5.4303,-5.4303,-5.4078,0.0,-5.3816,-5.3734,-5.3685,-5.3685,-5.2242,-5.141,-5.141,-4.9904,-4.9094,-4.9094,0.0,0.0,-4.7889,-4.643,-4.5466,-4.4993,-4.4733,-4.4615,-4.4615,-4.4615,-4.4615,-4.4615,-4.4615,-4.4542,-4.4412,-4.4338,-4.4196,-4.4023,-4.3639,-4.3124,-4.251,-4.1934,-4.1143,-4.0332,-3.9941,-3.9501,-3.9094,-3.9013,-3.8804,-3.8344,-3.7244,-3.6924,-3.6687,-3.5273,-3.4899,-3.4899,-3.4899,-3.4899,-3.4851,-3.4667,-3.4448,-3.425,-3.4126,-3.4101,-3.4101,-3.4101,-3.4101,-3.402,-3.3761,-3.2757,-3.1875,-3.1506,0.0,-2.9726,0.0,0.0,0.0,0.0,-2.9852,0.0,0.0,0.0,0.0,0.0,0.0,0.0,-3.1574,-3.1813,0.0,-3.3293,-3.3309,-3.3309,-3.3309,-3.3309,-3.3656,-3.432,-3.5047,-3.5774,-3.644,-3.718,-3.751,-3.751,-3.751,-3.751,-3.751,-3.751,-3.751,-3.751,-3.751,-3.7659,-3.7916,-5.8868,-5.9011,0.0,0.0,-5.8288,0.0,-5.684,-5.6081,-5.5357,-5.4615,-5.4512,-5.4512,-5.4512,-5.4335,-5.4175,-5.4063,0.0,0.0,0.0,-5.2562,-5.1694,-5.1694,-5.0121,0.0,-4.9229,-4.9094,-4.8677,-4.7919,-4.6532,-4.5805,-4.5703,-4.4993,-4.4649,-4.4615,-4.4615,-4.4615,-4.4615,-4.4615,-4.4615,-4.457,-4.4412,-4.4293,-4.4197,-4.3191,-4.2777,-4.2532,-4.0962,-4.0376,-4.0227,-3.9531,-3.9299,-3.9299,-3.9299,-3.8775,-3.8037,-3.7164,-3.6967,-3.6721,-3.5297,-3.4899,-3.4899,-3.4899,-3.4899,-3.4828,-3.457,-3.4423,-3.4275,-3.4151,-3.4101,-3.4101,-3.4101,-3.4101,-3.3874,-3.3194,-3.2481,-3.1729,-3.1001,0.0,0.0,0.0,0.0,0.0,0.0,-2.9896,-2.9896,0.0,0.0,0.0,0.0,0.0,-3.1028,-3.159,-3.2203,-3.2778,-3.3319,-3.3293,-3.3309,-3.3309,-3.3309,-3.3625,-3.4257,-3.4984,-3.5695,-3.6361,-3.7101,-3.7462,-3.751,-3.751,-3.751,-3.751,-3.751,-3.751,-3.751,-3.748,-3.7359,-3.7258,0.0,0.0,-5.7453,-5.7356,-5.7185,-5.6788,-5.6012,-5.5736,-5.5357,-5.4615,-5.4512,-5.4512,-5.4512,-5.448,-5.4416,-5.4367,-5.4143,-5.398,-5.398,-5.2562,-5.1694,-5.1694,-5.0243,-4.9428,-4.9428,-4.9398,-4.8933,-4.8048,-4.7606,-4.6819,-4.5703,-4.5517,-4.5128,-4.4615,-4.4615,-4.4615,-4.4615,-4.4615,-4.4615,-4.4615,-4.4542,-4.444,-4.4226,-4.3418,-4.2629,-4.1844,-4.0906,-4.0126,-3.9531,-3.9365,-3.9299,-3.9299,-3.9299,-3.8775,-3.8037,-3.7266,-3.6679,-3.6059,-3.5148,-3.4899,-3.4899,-3.4899,-3.4899,-3.4851,-3.4691,-3.4546,-3.4423,-3.4275,-3.4176,-3.4101,-3.4101,-3.4101,-3.3874,-3.3194,-3.2481,-3.1729,-3.1001,-3.0312,0.0,0.0,-2.9896,-2.9896,-2.9896,-2.9896,-2.9896,0.0,0.0,0.0,0.0,0.0,-3.17,-3.175,-3.2286,-3.2864,-3.345,-3.3346,-3.3309,-3.3309,-3.3309,-3.3388,-3.3561,-3.4241,-3.4936,-3.5679,-3.6374,-3.6975,-3.751,-3.751,-3.751,-3.751,-3.751,-3.751,-3.748,-3.7329,-3.718,-3.7045,-5.7115,-5.7111,-5.6982,-5.6902,-5.6527,-5.6115,-5.5684,-5.5322,-5.496,-5.4563,-5.4512,-5.4512,-5.4512,-5.4512,-5.4512,-5.4512,-5.4335,-5.407,-5.3744,-5.2595,-5.1788,-5.1445,-5.0253,-4.959,-4.959,-4.9547,-4.9253,-4.8737,-4.8235,-4.7399,-4.6309,-4.5884,-4.5314,-4.4615,-4.4615,-4.4615,-4.4615,-4.4615,-4.4615,-4.4615,-4.4615,-4.4542,-4.4322,-4.3143,-4.2349,-4.1726,-4.0602,-3.9861,-3.9379,-3.9379,-3.9352,-3.9299,-3.9299,-3.856,-3.7632,-3.7218,-3.6589,-3.5843,-3.5098,-3.4899,-3.4899,-3.4899,-3.4899,-3.4859,-3.4715,-3.4643,-3.4546,-3.4349,-3.425,-3.4176,-3.4126,-3.4101,-3.3777,-3.2757,-3.2271,-3.1639,-3.0587,-3.0139,0.0,-2.9896,-2.9896,-2.9896,-2.9896,-2.9896,-2.9896,-2.9896,0.0,0.0,-3.0888,-3.1931,-3.2426,-3.2249,-3.2816,-3.3233,-3.3503,-3.3388,-3.3309,-3.3309,-3.3309,-3.3309,-3.3324,-3.3988,-3.4683,-3.5426,-3.6093,-3.6832,-3.751,-3.751,-3.751,-3.751,-3.751,-3.751,-3.748,-3.7254,-3.7119,-3.6969,-5.7034,-5.6906,-5.6732,-5.67,-5.6003,-5.5475,-5.5475,-5.4908,-5.4512,-5.4512,-5.4512,-5.4512,-5.4512,-5.4512,-5.4512,-5.4512,-5.4512,-5.4201,-5.346,-5.2666,-5.186,-5.1149,-5.0209,-4.9755,-4.9755,-4.959,-4.9547,-4.9547,-4.8703,-4.7916,-4.7185,-4.6309,-4.5523,-4.4795,-4.4677,-4.4626,-4.4615,-4.4615,-4.4615,-4.4615,-4.4615,-4.453,-4.4248,-4.2709,-4.2048,-4.1752,-4.0268,-3.9625,-3.9511,-3.9511,-3.9432,-3.9309,-3.9193,-3.8205,-3.7085,-3.6986,-3.6406,-3.5694,-3.5065,-3.4899,-3.4899,-3.4899,-3.4899,-3.4875,-3.4756,-3.4715,-3.4659,-3.4399,-3.4349,-3.43,-3.4151,-3.4126,-3.3704,-3.2384,-3.2077,-3.1542,-3.0237,0.0,-2.9896,-2.9896,-2.9896,-2.9896,-2.9896,-2.9896,-2.9929,-3.0042,-3.0587,0.0,0.0,-3.2417,-3.3064,-3.3006,-3.3476,-3.3658,-3.3503,-3.3388,-3.3309,-3.3309,-3.3309,-3.3309,-3.3324,-3.3878,-3.4604,-3.5426,-3.6011,-3.6722,-3.751,-3.751,-3.751,-3.751,-3.751,-3.751,-3.748,-3.7254,-3.7119,-3.6969,-5.5561,-5.5518,-5.5427,-5.534,-5.5116,-5.4922,-5.4922,-5.4692,-5.4512,-5.4512,-5.4512,-5.4512,-5.4512,-5.4512,-5.4512,-5.4512,-5.4512,-5.4201,-5.346,-5.2666,-5.186,-5.1149,-5.0361,-4.9964,-4.9964,-4.9755,-4.9679,-4.9679,-4.9428,-4.8894,-4.816,-4.7363,-4.651,-4.5677,-4.5065,-4.4709,-4.4615,-4.4615,-4.4615,-4.4615,-4.4615,-4.4181,-4.3504,-4.2598,-4.1808,-4.1071,-4.0178,-3.9781,-3.9677,-3.9677,-3.959,-3.9358,-3.8726,-3.7884,-3.6986,-3.6357,-3.5644,-3.5048,-3.4932,-3.4899,-3.4899,-3.4899,-3.4899,-3.4899,-3.4875,-3.478,-3.4691,-3.4643,-3.4546,-3.4423,-3.43,-3.4275,-3.3965,-3.3072,-3.2417,-3.172,-3.0856,0.0,-2.9896,-2.9896,-2.9896,-2.9896,-2.9896,-2.9896,-3.0139,-3.0694,-3.0839,-3.1438,-3.2692,-3.2967,-3.3356,-3.3881,-3.3885,-3.3745,-3.3503,-3.3388,-3.3309,-3.3309,-3.3309,-3.3309,-3.3309,-3.3419,-3.4162,-3.5394,-3.5505,-3.6295,-3.751,-3.751,-3.751,-3.751,-3.751,-3.751,-3.748,-3.7254,-3.7119,-3.6969,-5.5383,-5.5259,-5.5169,-5.5109,-5.4992,-5.4917,-5.4917,-5.478,-5.4655,-5.4655,-5.4575,-5.4512,-5.4512,-5.4512,-5.4512,-5.4512,-5.4149,-5.358,-5.2804,-5.2425,-5.1701,-5.0562,-5.0183,-5.0011,-5.0011,-4.9906,-4.986,-4.986,-4.9696,-4.9213,-4.8477,-4.7603,-4.6777,-4.597,-4.5154,-4.4765,-4.4709,-4.4626,-4.4615,-4.4615,-4.4615,-4.4113,-4.3308,-4.2574,-4.1803,-4.1024,-4.0282,-3.991,-3.9824,-3.9824,-3.9452,-3.8955,-3.8605,-3.7695,-3.6653,-3.6231,-3.5527,-3.4899,-3.4899,-3.4899,-3.4899,-3.4899,-3.4899,-3.4899,-3.4899,-3.4851,-3.4804,-3.4715,-3.4643,-3.457,-3.4423,-3.4399,-3.417,-3.3379,-3.2988,0.0,0.0,-3.1378,-3.1138,-3.1138,-3.1092,-3.1024,-3.1024,-3.1024,-3.1154,-3.1454,-3.1866,-3.2384,-3.3048,-3.3437,-3.3777,-3.4084,-3.3899,-3.3694,-3.3503,-3.3388,-3.3309,-3.3309,-3.3309,-3.3309,-3.3309,-3.3309,-3.4067,-3.5394,-3.5394,-3.6213,-3.751,-3.751,-3.751,-3.751,-3.751,-3.751,-3.748,-3.7254,-3.7119,-3.6969,-5.5507,-5.5401,-5.5277,-5.5277,-5.5156,-5.5035,-5.5035,-5.4948,-5.4842,-5.4842,-5.4669,-5.4575,-5.4575,-5.4543,-5.4443,-5.427,-5.3736,-5.2994,-5.2028,-5.1929,-5.1373,-5.0062,-5.0011,-5.0011,-5.0011,-5.0011,-5.0011,-5.0011,-4.986,-4.9492,-4.8908,-4.782,-4.701,-4.6366,-4.535,-4.4858,-4.4776,-4.4682,-4.4626,-4.4615,-4.4615,-4.4012,-4.3098,-4.2523,-4.1728,-4.0865,-4.0316,-4.0037,-3.9918,-3.975,-3.9228,-3.8589,-3.8237,-3.7341,-3.6355,-3.6076,-3.5514,-3.497,-3.4923,-3.4899,-3.4899,-3.4899,-3.4899,-3.4899,-3.4899,-3.4899,-3.4875,-3.478,-3.4756,-3.4707,-3.457,-3.4546,-3.4341,-3.3743,0.0,0.0,0.0,-3.2413,-3.2245,-3.2183,-3.2106,-3.2035,-3.2012,-3.2012,-3.2077,-3.2238,-3.2773,-3.3161,-3.3307,-3.3809,-3.4101,-3.4101,-3.3873,-3.3684,-3.3555,-3.3398,-3.3319,-3.3309,-3.3309,-3.3309,-3.3309,-3.3309,-3.4067,-3.5394,-3.5394,-3.6213,-3.751,-3.751,-3.751,-3.751,-3.751,-3.751,-3.748,-3.7329,-3.718,-3.703,-5.5507,-5.5478,-5.5478,-5.5478,-5.5324,-5.5199,-5.5199,-5.5066,-5.4992,-5.4992,-5.4855,-5.4797,-5.4797,-5.4606,-5.4236,-5.3546,-5.3442,-5.277,-5.1287,-5.1183,-5.0838,-5.0045,-5.0011,-5.0011,-5.0011,-5.0011,-5.0011,-5.0011,-4.9982,-4.9947,-4.9861,-4.8379,-4.7571,-4.7311,-4.5846,-4.5032,-4.4803,-4.4776,-4.4709,-4.4615,-4.4615,-4.3718,-4.2371,-4.2303,-4.1433,-4.018,-4.013,-4.0096,-3.9969,-3.9309,-3.8957,-3.8546,-3.7175,-3.6575,-3.6255,-3.5552,-3.5318,-3.5222,-3.497,-3.4899,-3.4899,-3.4899,-3.4899,-3.4899,-3.4899,-3.4899,-3.4899,-3.4899,-3.4899,-3.4835,-3.4707,-3.4691,-3.4626,-3.4456,0.0,0.0,-3.3334,-3.2777,-3.2338,-3.2222,-3.2199,-3.2129,-3.2012,-3.2012,-3.2287,-3.2967,-3.3064,-3.3356,-3.3987,-3.4068,-3.4101,-3.4101,-3.3949,-3.3822,-3.3684,-3.3555,-3.3424,-3.3309,-3.3309,-3.3309,-3.3309,-3.3309,-3.4067,-3.5394,-3.5394,-3.6213,-3.751,-3.751,-3.751,-3.751,-3.751,-3.751,-3.751,-3.748,-3.7359,-3.7164,-5.5507,-5.5507,-5.5507,-5.5507,-5.5431,-5.5401,-5.5401,-5.5247,-5.5109,-5.5109,-5.5022,-5.4917,-5.4917,-5.4855,-5.4464,-5.3597,-5.3112,-5.2356,-5.1183,-5.0683,-5.0304,-5.0011,-5.0011,-5.0011,-5.0011,-5.0011,-5.0011,-5.0011,-5.0011,-4.9752,-4.9223,-4.8172,-4.742,-4.6911,-4.5728,-4.5123,-4.5032,-4.4951,-4.4858,-4.4686,-4.4245,-4.3332,-4.2236,-4.1779,-4.0984,-4.0096,-4.0096,-3.9808,-3.9385,-3.9089,-3.8355,-3.7462,-3.6912,-3.6359,-3.5851,-3.5513,-3.5377,-3.5268,-3.5175,-3.5105,-3.5018,-3.5018,-3.497,-3.4899,-3.4899,-3.4899,-3.4899,-3.4899,-3.4899,-3.4899,-3.4828,-3.4811,-3.4804,-3.4756,0.0,-3.4327,-3.4327,-3.4025,-3.3813,-3.3766,-3.3598,-3.3478,-3.3429,-3.3356,-3.342,-3.3696,-3.3712,-3.3825,-3.4084,-3.4101,-3.4101,-3.4101,-3.405,-3.3949,-3.3822,-3.3607,-3.3477,-3.3424,-3.3319,-3.3309,-3.3309,-3.3309,-3.4067,-3.5394,-3.5394,-3.6213,-3.751,-3.751,-3.751,-3.751,-3.751,-3.751,-3.751,-3.751,-3.7359,-3.7178,-5.5507,-5.5507,-5.5507,-5.5507,-5.5507,-5.5507,-5.5507,-5.5383,-5.5306,-5.5306,-5.5156,-5.5066,-5.5066,-5.4796,-5.4252,-5.3398,-5.2604,-5.1812,-5.095,-5.0356,-5.0051,-5.0011,-5.0011,-5.0011,-5.0011,-5.0011,-5.0011,-5.0011,-5.0011,-4.9597,-4.8775,-4.8034,-4.7293,-4.6552,-4.5662,-4.5247,-4.5177,-4.5113,-4.4978,-4.479,-4.4058,-4.3212,-4.2281,-4.1553,-4.0781,-4.0079,-3.9842,-3.9436,-3.892,-3.8488,-3.7642,-3.6761,-3.6485,-3.6045,-3.5577,-3.5543,-3.5475,-3.5389,-3.5389,-3.5314,-3.5222,-3.5175,-3.5065,-3.497,-3.497,-3.4923,-3.4899,-3.4899,-3.4899,-3.4899,-3.4899,-3.4899,-3.4899,-3.4899,-3.4899,-3.4899,-3.4899,-3.4828,-3.4756,-3.4707,-3.4546,-3.4399,-3.43,-3.4226,-3.4151,-3.4101,-3.4101,-3.4101,-3.4101,-3.4101,-3.4101,-3.4101,-3.4101,-3.405,-3.3975,-3.3745,-3.3591,-3.3555,-3.3424,-3.3346,-3.3346,-3.3335,-3.4067,-3.5394,-3.5394,-3.6213,-3.751,-3.751,-3.751,-3.751,-3.751,-3.751,-3.751,-3.751,-3.7405,-3.73,-5.5507,-5.5507,-5.5507,-5.5507,-5.5507,-5.5507,-5.5507,-5.5507,-5.5507,-5.5507,-5.5324,-5.5199,-5.5199,-5.4368,-5.35,-5.2752,-5.197,-5.1187,-5.0467,-5.0274,-5.0149,-5.0011,-5.0011,-5.0011,-5.0011,-5.0011,-5.0011,-5.0011,-4.9993,-4.9597,-4.8775,-4.8034,-4.732,-4.6562,-4.5759,-4.5344,-4.5203,-4.5203,-4.5123,-4.4937,-4.4202,-4.3337,-4.2422,-4.1665,-4.0858,-4.0011,-3.9283,-3.8988,-3.8751,-3.7303,-3.6795,-3.666,-3.5836,-3.56,-3.56,-3.56,-3.56,-3.56,-3.56,-3.5566,-3.5469,-3.5314,-3.5198,-3.5088,-3.5088,-3.4994,-3.4899,-3.4899,-3.4899,-3.4899,-3.4899,-3.4899,-3.4899,-3.4899,-3.4899,-3.4899,-3.4899,-3.4899,-3.4851,-3.4715,-3.4691,-3.4594,-3.4325,-3.43,-3.425,-3.4126,-3.4101,-3.4101,-3.4101,-3.4101,-3.4101,-3.4101,-3.4101,-3.4101,-3.4101,-3.3975,-3.3822,-3.3694,-3.3581,-3.3503,-3.3503,-3.3346,-3.4067,-3.5394,-3.5394,-3.6213,-3.751,-3.751,-3.751,-3.751,-3.751,-3.751,-3.751,-3.751,-3.751,-3.748,-5.5507,-5.5507,-5.5507,-5.5507,-5.5507,-5.5507,-5.5507,-5.5507,-5.5507,-5.5507,-5.5448,-5.5401,-5.5401,-5.4671,-5.3795,-5.2939,-5.2142,-5.1346,-5.0467,-5.0341,-5.0331,-5.0274,-5.0109,-5.0011,-5.0011,-5.0011,-5.0011,-5.0011,-4.9413,-4.8758,-4.8,-4.7258,-4.6527,-4.5742,-4.55,-4.5371,-4.5344,-4.5344,-4.4964,-4.43,-4.3563,-4.2715,-4.1776,-4.105,-4.0599,-4.0285,-3.9552,-3.8915,-3.8278,-3.7222,-3.6514,-3.6056,-3.5729,-3.56,-3.56,-3.56,-3.56,-3.56,-3.56,-3.5577,-3.5549,-3.5452,-3.5337,-3.5222,-3.5128,-3.5065,-3.5018,-3.4923,-3.4899,-3.4899,-3.4899,-3.4899,-3.4899,-3.4899,-3.4899,-3.4899,-3.4899,-3.4899,-3.4899,-3.4851,-3.4763,-3.4667,-3.4594,-3.4423,-3.4275,-3.425,-3.4151,-3.4101,-3.4101,-3.4101,-3.4101,-3.4101,-3.4101,-3.4101,-3.4101,-3.3975,-3.3873,-3.3848,-3.3694,-3.3658,-3.3633,-3.3503,-3.4228,-3.5534,-3.545,-3.6213,-3.751,-3.751,-3.751,-3.751,-3.751,-3.751,-3.751,-3.751,-3.751,-3.748,-5.5578,-5.5537,-5.5507,-5.5507,-5.5507,-5.5507,-5.5507,-5.5507,-5.5507,-5.5507,-5.5507,-5.5507,-5.5507,-5.4524,-5.3653,-5.3048,-5.2033,-5.1172,-5.0499,-5.0481,-5.0453,-5.0397,-5.0235,-5.0149,-5.0149,-5.0149,-4.9982,-4.9631,-4.9147,-4.8359,-4.7269,-4.682,-4.6155,-4.5397,-4.5397,-4.5397,-4.5397,-4.5397,-4.494,-4.4113,-4.3373,-4.2516,-4.1602,-4.0849,-4.0387,-3.9963,-3.9187,-3.8435,-3.7644,-3.6808,-3.6196,-3.5773,-3.5644,-3.56,-3.56,-3.56,-3.56,-3.56,-3.56,-3.56,-3.5577,-3.5566,-3.5452,-3.5377,-3.5268,-3.5175,-3.5065,-3.4994,-3.4947,-3.4899,-3.4899,-3.4899,-3.4899,-3.4899,-3.4899,-3.4899,-3.4899,-3.4899,-3.4899,-3.4899,-3.4828,-3.4763,-3.4707,-3.4546,-3.4423,-3.43,-3.4176,-3.4101,-3.4101,-3.4101,-3.4101,-3.4101,-3.4101,-3.4101,-3.4101,-3.4025,-3.3975,-3.3975,-3.3848,-3.3771,-3.3787,-3.3946,-3.4617,-3.57,-3.5832,-3.6537,-3.7553,-3.751,-3.751,-3.751,-3.751,-3.751,-3.751,-3.751,-3.751,-3.751,-5.5706,-5.5607,-5.5507,-5.5507,-5.5507,-5.5507,-5.5507,-5.5507,-5.5507,-5.5507,-5.5507,-5.5507,-5.5507,-5.4121,-5.3201,-5.3201,-5.1786,-5.0819,-5.063,-5.063,-5.0575,-5.0443,-5.0373,-5.0338,-5.0338,-5.031,-4.9924,-4.9136,-4.8969,-4.8124,-4.6613,-4.6527,-4.6113,-4.5397,-4.5397,-4.5397,-4.5397,-4.5328,-4.4889,-4.4138,-4.3396,-4.2546,-4.1648,-4.0978,-4.0185,-3.932,-3.851,-3.7758,-3.7023,-3.6275,-3.5927,-3.5795,-3.5667,-3.5622,-3.5622,-3.56,-3.56,-3.56,-3.56,-3.56,-3.56,-3.56,-3.5549,-3.5514,-3.5492,-3.5314,-3.5128,-3.5088,-3.4994,-3.4923,-3.4899,-3.4899,-3.4899,-3.4899,-3.4899,-3.4899,-3.4899,-3.4899,-3.4899,-3.4899,-3.4899,-3.4851,-3.4732,-3.4707,-3.4594,-3.4325,-3.4201,-3.4126,-3.4101,-3.4101,-3.4101,-3.4101,-3.4101,-3.4101,-3.4101,-3.4101,-3.4101,-3.4101,-3.3975,-3.3924,-3.3931,-3.4551,-3.5177,-3.5854,-3.6386,-3.7033,-3.77,-3.7569,-3.751,-3.751,-3.751,-3.751,-3.751,-3.751,-3.751,-3.751,-5.5908,-5.5735,-5.5666,-5.5666,-5.5566,-5.5507,-5.5507,-5.5507,-5.5507,-5.5507,-5.5507,-5.5507,-5.5507,-5.4121,-5.3201,-5.3201,-5.1786,-5.0873,-5.0846,-5.0846,-5.0819,-5.0792,-5.0196,-4.9863,-4.9863,-4.9664,-4.9458,-4.9274,-4.8047,-4.722,-4.674,-4.6117,-4.5658,-4.5397,-4.5397,-4.5397,-4.5363,-4.4785,-4.4121,-4.3362,-4.2585,-4.1785,-4.1088,-4.0916,-4.0341,-3.9543,-3.8785,-3.8045,-3.7266,-3.6444,-3.6079,-3.5932,-3.5795,-3.5751,-3.5751,-3.5622,-3.56,-3.56,-3.56,-3.56,-3.56,-3.56,-3.5577,-3.5571,-3.5514,-3.5446,-3.5337,-3.5152,-3.5065,-3.5018,-3.4923,-3.4899,-3.4899,-3.4899,-3.4899,-3.4899,-3.4899,-3.4899,-3.4899,-3.4899,-3.4899,-3.4899,-3.4875,-3.4763,-3.4594,-3.4325,-3.4275,-3.4226,-3.4101,-3.4101,-3.4101,-3.4101,-3.4101,-3.4101,-3.4101,-3.4101,-3.4101,-3.4101,-3.4075,-3.405,-3.4083,-3.4665,-3.531,-3.599,-3.6586,-3.7163,-3.77,-3.7671,-3.7583,-3.751,-3.751,-3.751,-3.751,-3.751,-3.751,-3.751,-5.6049,-5.5908,-5.5793,-5.5793,-5.5735,-5.5666,-5.5625,-5.5578,-5.5549,-5.5507,-5.5507,-5.5367,-5.4981,-5.3892,-5.292,-5.2155,-5.1392,-5.0891,-5.0891,-5.0891,-5.0715,-5.0329,-4.9934,-4.9504,-4.9135,-4.8654,-4.8373,-4.8294,-4.7492,-4.6839,-4.6317,-4.5823,-4.5563,-4.5502,-4.5423,-4.519,-4.4854,-4.4466,-4.3655,-4.2603,-4.2171,-4.1567,-4.086,-4.0457,-3.9859,-3.9077,-3.8336,-3.7577,-3.6853,-3.6367,-3.6144,-3.6079,-3.5949,-3.5861,-3.5795,-3.5728,-3.5644,-3.56,-3.56,-3.56,-3.56,-3.56,-3.56,-3.5577,-3.5549,-3.552,-3.5469,-3.5314,-3.5198,-3.5065,-3.4994,-3.4947,-3.4899,-3.4899,-3.4899,-3.4899,-3.4899,-3.4899,-3.4899,-3.4899,-3.4899,-3.4899,-3.4899,-3.478,-3.4643,-3.4497,-3.4423,-3.4374,-3.43,-3.4226,-3.4201,-3.4201,-3.4126,-3.4101,-3.4101,-3.4101,-3.4101,-3.4101,-3.4101,-3.4279,-3.4635,-3.5328,-3.5986,-3.6653,-3.7239,-3.7684,-3.7934,-3.7847,-3.77,-3.7599,-3.7599,-3.7569,-3.751,-3.751,-3.751,-3.751,-5.6235,-5.6077,-5.5947,-5.5947,-5.5918,-5.5861,-5.5764,-5.5735,-5.5677,-5.5578,-5.5443,-5.5109,-5.4413,-5.3552,-5.2418,-5.1013,-5.0891,-5.0838,-5.0697,-5.068,-5.0329,-4.9521,-4.9363,-4.8977,-4.8345,-4.7573,-4.7206,-4.7227,-4.7105,-4.6601,-4.5821,-4.5718,-4.5641,-4.5607,-4.5476,-4.5018,-4.4294,-4.4173,-4.3293,-4.1999,-4.1854,-4.1464,-4.0825,-4.0008,-3.9232,-3.8491,-3.7771,-3.6973,-3.628,-3.6251,-3.6208,-3.6187,-3.6062,-3.5971,-3.5861,-3.5817,-3.5728,-3.5622,-3.56,-3.56,-3.56,-3.56,-3.56,-3.56,-3.56,-3.5549,-3.5514,-3.5492,-3.5314,-3.5152,-3.5105,-3.4994,-3.4923,-3.4899,-3.4899,-3.4899,-3.4899,-3.4899,-3.4899,-3.4899,-3.4899,-3.4899,-3.4899,-3.4804,-3.4715,-3.4691,-3.4594,-3.4521,-3.4497,-3.4399,-3.4325,-3.4325,-3.4201,-3.4126,-3.4126,-3.4126,-3.4101,-3.4101,-3.4101,-3.4489,-3.5244,-3.5963,-3.6675,-3.7328,-3.7971,-3.8237,-3.818,-3.802,-3.7876,-3.773,-3.773,-3.7642,-3.7539,-3.751,-3.751,-3.751,-5.6373,-5.6263,-5.6169,-5.6169,-5.6021,-5.589,-5.589,-5.5861,-5.5861,-5.5833,-5.5285,-5.4815,-5.4578,-5.3134,-5.1821,-5.0961,-5.0891,-5.0592,-4.9916,-4.9864,-4.9486,-4.8714,-4.8047,-4.7661,-4.7538,-4.6783,-4.6688,-4.7354,-4.6688,-4.6202,-4.5972,-4.5947,-4.5821,-4.5607,-4.5581,-4.5096,-4.4259,-4.3621,-4.2827,-4.1947,-4.1309,-4.0998,-4.0825,-4.0008,-3.9232,-3.8491,-3.7771,-3.6973,-3.6301,-3.628,-3.628,-3.6259,-3.6187,-3.6161,-3.6101,-3.5861,-3.5795,-3.5751,-3.5622,-3.56,-3.56,-3.56,-3.56,-3.56,-3.56,-3.56,-3.5571,-3.5514,-3.5469,-3.5377,-3.5152,-3.5105,-3.5018,-3.4923,-3.4899,-3.4899,-3.4899,-3.4899,-3.4899,-3.4899,-3.4899,-3.4899,-3.4899,-3.4899,-3.4811,-3.4707,-3.4667,-3.4618,-3.4497,-3.4472,-3.4472,-3.4472,-3.4349,-3.4275,-3.4275,-3.4151,-3.4101,-3.4101,-3.4101,-3.4489,-3.5244,-3.5963,-3.6675,-3.7328,-3.8056,-3.8323,-3.8209,-3.818,-3.8049,-3.7876,-3.7876,-3.7788,-3.7642,-3.7539,-3.751,-3.751,-5.6401,-5.6346,-5.6318,-5.6318,-5.6245,-5.6162,-5.6077,-5.6067,-5.5879,-5.5352,-5.4988,-5.4457,-5.3472,-5.2242,-5.1368,-5.1034,-5.0523,-5.0092,-4.9723,-4.9276,-4.8696,-4.7924,-4.7573,-4.7187,-4.6748,-4.6372,-4.6372,-4.6748,-4.6372,-4.6172,-4.6097,-4.6023,-4.5922,-4.5803,-4.531,-4.4601,-4.3764,-4.2978,-4.2151,-4.136,-4.1032,-4.0912,-4.0774,-3.9566,-3.887,-3.8439,-3.7249,-3.6594,-3.6301,-3.6301,-3.6301,-3.6301,-3.6276,-3.6229,-3.6182,-3.6075,-3.5927,-3.5795,-3.5728,-3.5667,-3.56,-3.56,-3.56,-3.56,-3.56,-3.56,-3.5577,-3.5571,-3.552,-3.5469,-3.5354,-3.5198,-3.5065,-3.5018,-3.4947,-3.4899,-3.4899,-3.4899,-3.4899,-3.4899,-3.4899,-3.4899,-3.4899,-3.4899,-3.4875,-3.4828,-3.4811,-3.4804,-3.4732,-3.4643,-3.4618,-3.4618,-3.4472,-3.4374,-3.43,-3.425,-3.4176,-3.4101,-3.4101,-3.47,-3.5817,-3.6157,-3.6902,-3.7938,-3.8262,-3.8379,-3.8307,-3.8307,-3.8237,-3.8049,-3.8049,-3.7963,-3.7817,-3.7759,-3.773,-3.773]},{"header":{"parameterUnit":"m.s-1","parameterCategory":1,"la1":30.6,"la2":28.766,"lo1":-90.7593,"lo2":-88.6598,"dy":0.0162,"dx":0.0183,"nx":116,"ny":114,"refTime":"2023-06-14T12:00:00:Z","depth":0,"parameterNumber":3,"parameterNumberName":"V-component_of_WINDS"},"data":[0.0,0.0,0.0,0.0,0.0,0.0,0.0,0.0,0.0,0.0,0.0,0.0,0.0,0.0,0.0,0.0,0.0,0.0,0.0,0.0,0.0,0.0,0.0,0.0,0.0,0.0,0.0,0.0,0.0,0.0,0.0,0.0,0.0,0.0,0.0,0.0,0.0,0.0,0.0,0.0,0.0,0.0,0.0,0.0,0.0,0.0,0.0,0.0,0.0,0.0,0.0,0.0,0.0,0.0,0.0,0.0,0.0,0.0,0.0,0.0,0.0,0.0,0.0,0.0,0.0,0.0,0.0,0.0,0.0,0.0,0.0,0.0,0.0,0.0,0.0,0.0,0.0,0.0,0.0,0.0,0.0,0.0,0.0,0.0,0.0,0.0,0.0,0.0,0.0,0.0,0.0,0.0,0.0,0.0,0.0,0.0,0.0,0.0,0.0,0.0,0.0,0.0,0.0,0.0,0.0,0.0,0.0,0.0,0.0,0.0,0.0,0.0,0.0,0.0,0.0,0.0,0.0,0.0,0.0,0.0,0.0,0.0,0.0,0.0,0.0,0.0,0.0,0.0,0.0,0.0,0.0,0.0,0.0,0.0,0.0,0.0,0.0,0.0,0.0,0.0,0.0,0.0,0.0,0.0,0.0,0.0,0.0,0.0,0.0,0.0,0.0,0.0,0.0,0.0,0.0,0.0,0.0,0.0,0.0,0.0,0.0,0.0,0.0,0.0,0.0,0.0,0.0,0.0,0.0,0.0,0.0,0.0,0.0,0.0,0.0,0.0,0.0,0.0,0.0,0.0,0.0,0.0,0.0,0.0,0.0,0.0,0.0,0.0,0.0,0.0,0.0,0.0,0.0,0.0,0.0,0.0,0.0,0.0,0.0,0.0,0.0,0.0,0.0,0.0,0.0,0.0,0.0,0.0,0.0,0.0,0.0,0.0,0.0,0.0,0.0,0.0,0.0,0.0,0.0,0.0,0.0,0.0,0.0,0.0,0.0,0.0,0.0,0.0,0.0,0.0,0.0,0.0,0.0,0.0,0.0,0.0,0.0,0.0,0.0,0.0,0.0,0.0,0.0,0.0,0.0,0.0,0.0,0.0,0.0,0.0,0.0,0.0,0.0,0.0,0.0,0.0,0.0,0.0,0.0,0.0,0.0,0.0,0.0,0.0,0.0,0.0,0.0,0.0,0.0,0.0,0.0,0.0,0.0,0.0,0.0,0.0,0.0,0.0,0.0,0.0,0.0,0.0,0.0,0.0,0.0,0.0,0.0,0.0,0.0,0.0,0.0,0.0,0.0,0.0,0.0,0.0,0.0,0.0,0.0,0.0,0.0,0.0,0.0,0.0,0.0,0.0,0.0,0.0,0.0,0.0,0.0,0.0,0.0,0.0,0.0,0.0,0.0,0.0,0.0,0.0,0.0,0.0,0.0,0.0,0.0,0.0,0.0,0.0,0.0,0.0,0.0,0.0,0.0,0.0,0.0,0.0,0.0,0.0,0.0,0.0,0.0,0.0,0.0,0.0,0.0,0.0,0.0,0.0,0.0,0.0,0.0,0.0,0.0,0.0,0.0,0.0,0.0,0.0,0.0,0.0,0.0,0.0,0.0,0.0,0.0,0.0,0.0,0.0,0.0,0.0,0.0,0.0,0.0,0.0,0.0,0.0,0.0,0.0,0.0,0.0,0.0,0.0,0.0,0.0,0.0,0.0,0.0,0.0,0.0,0.0,0.0,0.0,0.0,0.0,0.0,0.0,0.0,0.0,0.0,0.0,0.0,0.0,0.0,0.0,0.0,0.0,0.0,0.0,0.0,0.0,0.0,0.0,0.0,0.0,0.0,0.0,0.0,0.0,0.0,0.0,0.0,0.0,0.0,0.0,0.0,0.0,0.0,0.0,0.0,0.0,0.0,0.0,0.0,0.0,0.0,0.0,0.0,0.0,0.0,0.0,0.0,0.0,0.0,0.0,0.0,0.0,0.0,0.0,0.0,0.0,0.0,0.0,0.0,0.0,0.0,0.0,0.0,0.0,0.0,0.0,0.0,0.0,0.0,0.0,0.0,0.0,0.0,0.0,0.0,0.0,0.0,0.0,0.0,0.0,0.0,0.0,0.0,0.0,0.0,0.0,0.0,0.0,0.0,0.0,0.0,0.0,0.0,0.0,0.0,0.0,0.0,0.0,0.0,0.0,0.0,0.0,0.0,0.0,0.0,0.0,0.0,0.0,0.0,0.0,0.0,0.0,0.0,0.0,0.0,0.0,0.0,0.0,0.0,0.0,0.0,0.0,0.0,0.0,0.0,0.0,0.0,0.0,0.0,0.0,0.0,0.0,0.0,0.0,0.0,0.0,0.0,0.0,0.0,0.0,0.0,0.0,0.0,0.0,0.0,0.0,0.0,0.0,0.0,0.0,0.0,0.0,0.0,0.0,0.0,0.0,0.0,0.0,0.0,0.0,0.0,0.0,0.0,0.0,0.0,0.0,0.0,0.0,0.0,0.0,0.0,0.0,0.0,0.0,0.0,0.0,0.0,0.0,0.0,0.0,0.0,0.0,0.0,0.0,0.0,0.0,0.0,0.0,0.0,0.0,0.0,0.0,0.0,0.0,0.0,0.0,0.0,0.0,0.0,0.0,0.0,0.0,0.0,0.0,0.0,0.0,0.0,0.0,0.0,0.0,0.0,0.0,0.0,0.0,0.0,0.0,0.0,0.0,0.0,0.0,0.0,0.0,0.0,0.0,0.0,0.0,0.0,0.0,0.0,0.0,0.0,0.0,0.0,0.0,0.0,0.0,0.0,0.0,0.0,0.0,0.0,0.0,0.0,0.0,0.0,0.0,0.0,0.0,0.0,0.0,0.0,0.0,0.0,0.0,0.0,0.0,0.0,0.0,0.0,0.0,0.0,0.0,0.0,0.0,0.0,0.0,0.0,0.0,0.0,0.0,0.0,0.0,0.0,0.0,0.0,0.0,0.0,0.0,0.0,0.0,0.0,0.0,0.0,0.0,0.0,0.0,0.0,0.0,0.0,0.0,0.0,0.0,0.0,0.0,0.0,0.0,0.0,0.0,0.0,0.0,0.0,0.0,0.0,0.0,0.0,0.0,0.0,0.0,0.0,0.0,0.0,0.0,0.0,0.0,0.0,0.0,0.0,0.0,0.0,0.0,0.0,0.0,0.0,0.0,0.0,0.0,0.0,0.0,0.0,0.0,0.0,0.0,0.0,0.0,0.0,0.0,0.0,0.0,0.0,0.0,0.0,0.0,0.0,0.0,0.0,0.0,0.0,0.0,0.0,0.0,0.0,0.0,0.0,0.0,0.0,0.0,0.0,0.0,0.0,0.0,0.0,0.0,0.0,0.0,0.0,0.0,0.0,0.0,0.0,0.0,0.0,0.0,0.0,0.0,0.0,0.0,0.0,0.0,0.0,0.0,0.0,0.0,0.0,0.0,0.0,0.0,0.0,0.0,0.0,0.0,0.0,0.0,0.0,0.0,0.0,0.0,0.0,0.0,0.0,0.0,0.0,0.0,0.0,0.0,0.0,0.0,0.0,0.0,0.0,0.0,0.0,0.0,0.0,0.0,0.0,0.0,0.0,0.0,0.0,0.0,0.0,0.0,0.0,0.0,0.0,0.0,0.0,0.0,0.0,0.0,0.0,0.0,0.0,0.0,0.0,0.0,0.0,0.0,0.0,0.0,0.0,0.0,0.0,0.0,0.0,0.0,0.0,0.0,0.0,0.0,0.0,0.0,0.0,0.0,0.0,0.0,0.0,0.0,0.0,0.0,0.0,0.0,0.0,0.0,0.0,0.0,0.0,0.0,0.0,0.0,0.0,0.0,0.0,0.0,0.0,0.0,0.0,0.0,0.0,0.0,0.0,0.0,0.0,0.0,0.0,0.0,0.0,0.0,0.0,0.0,0.0,0.0,0.0,0.0,0.0,0.0,0.0,0.0,0.0,0.0,0.0,0.0,0.0,0.0,0.0,0.0,0.0,0.0,0.0,0.0,0.0,0.0,0.0,0.0,0.0,0.0,0.0,0.0,0.0,0.0,0.0,0.0,0.0,0.0,0.0,0.0,0.0,0.0,0.0,0.0,0.0,0.0,0.0,0.0,0.0,0.0,0.0,0.0,0.0,0.0,0.0,0.0,0.0,0.0,0.0,0.0,0.0,0.0,0.0,0.0,0.0,0.0,0.0,0.0,0.0,0.0,0.0,0.0,0.0,0.0,0.0,0.0,0.0,0.0,0.0,0.0,0.0,0.0,0.0,0.0,0.0,0.0,0.0,0.0,0.0,0.0,0.0,0.0,0.0,0.0,0.0,0.0,0.0,0.0,0.0,0.0,0.0,0.0,0.0,0.0,0.0,0.0,0.0,0.0,0.0,0.0,0.0,0.0,0.0,0.0,0.0,0.0,0.0,0.0,0.0,0.0,0.0,0.0,0.0,0.0,0.0,0.0,0.0,0.0,0.0,0.0,0.0,0.0,0.0,0.0,0.0,0.0,0.0,0.0,0.0,0.0,0.0,0.0,0.0,0.0,0.0,0.0,0.0,0.0,0.0,0.0,0.0,0.0,0.0,0.0,0.0,0.0,0.0,0.0,0.0,0.0,0.0,0.0,0.0,0.0,0.0,0.0,0.0,0.0,0.0,0.0,0.0,0.0,0.0,0.0,0.0,0.0,0.0,0.0,0.0,0.0,0.0,0.0,0.0,0.0,0.0,0.0,0.0,0.0,0.0,0.0,0.0,0.0,0.0,0.0,0.0,0.0,0.0,0.0,0.0,0.0,0.0,0.0,0.0,0.0,0.0,0.0,0.0,0.0,0.0,0.0,0.0,0.0,0.0,0.0,0.0,0.0,0.0,0.0,0.0,0.0,0.0,0.0,0.0,0.0,0.0,0.0,0.0,0.0,0.0,0.0,0.0,0.0,0.0,0.0,0.0,0.0,0.0,0.0,0.0,0.0,0.0,0.0,0.0,0.0,0.0,0.0,0.0,0.0,0.0,0.0,0.0,0.0,0.0,0.0,0.0,0.0,0.0,0.0,0.0,0.0,0.0,0.0,0.0,0.0,0.0,0.0,0.0,0.0,0.0,0.0,0.0,0.0,0.0,0.0,0.0,0.0,0.0,0.0,0.0,0.0,0.0,0.0,0.0,0.0,0.0,0.0,0.0,0.0,0.0,0.0,0.0,0.0,0.0,0.0,0.0,0.0,0.0,0.0,0.0,0.0,0.0,0.0,0.0,0.0,0.0,0.0,0.0,0.0,0.0,0.0,0.0,0.0,0.0,0.0,0.0,0.0,0.0,0.0,0.0,0.0,0.0,0.0,0.0,0.0,0.0,0.0,0.0,0.0,0.0,0.0,0.0,0.0,0.0,0.0,0.0,0.0,0.0,0.0,0.0,0.0,0.0,0.0,0.0,0.0,0.0,0.0,0.0,0.0,0.0,0.0,0.0,0.0,0.0,0.0,0.0,0.0,0.0,0.0,0.0,0.0,0.0,0.0,0.0,0.0,0.0,0.0,0.0,0.0,0.0,0.0,0.0,0.0,0.0,0.0,0.0,0.0,0.0,0.0,0.0,0.0,0.0,0.0,0.0,0.0,0.0,0.0,0.0,0.0,0.0,0.0,0.0,0.0,0.0,0.0,0.0,0.0,0.0,0.0,0.0,0.0,0.0,0.0,0.0,0.0,0.0,0.0,0.0,0.0,0.0,0.0,0.0,0.0,0.0,0.0,0.0,0.0,0.0,0.0,0.0,0.0,0.0,0.0,0.0,0.0,0.0,0.0,0.0,0.0,0.0,0.0,0.0,0.0,0.0,0.0,0.0,0.0,0.0,0.0,0.0,0.0,0.0,0.0,0.0,0.0,0.0,0.0,0.0,0.0,0.0,0.0,0.0,0.0,0.0,0.0,0.0,0.0,0.0,0.0,0.0,0.0,0.0,0.0,0.0,0.0,0.0,0.0,0.0,0.0,0.0,0.0,0.0,0.0,0.0,0.0,0.0,0.0,0.0,0.0,0.0,0.0,0.0,0.0,0.0,0.0,0.0,0.0,0.0,0.0,0.0,0.0,0.0,0.0,0.0,0.0,0.0,0.0,0.0,0.0,0.0,0.0,-2.1751,0.0,0.0,0.0,0.0,0.0,0.0,0.0,0.0,0.0,0.0,0.0,0.0,0.0,0.0,0.0,0.0,0.0,0.0,0.0,0.0,0.0,0.0,0.0,0.0,0.0,0.0,0.0,0.0,0.0,0.0,0.0,0.0,0.0,0.0,0.0,0.0,0.0,0.0,0.0,0.0,0.0,0.0,0.0,0.0,0.0,0.0,0.0,0.0,0.0,0.0,0.0,0.0,0.0,0.0,0.0,0.0,0.0,0.0,0.0,0.0,0.0,0.0,0.0,0.0,0.0,0.0,0.0,0.0,0.0,0.0,0.0,0.0,0.0,0.0,0.0,0.0,0.0,0.0,0.0,0.0,0.0,0.0,0.0,0.0,0.0,0.0,0.0,0.0,0.0,0.0,0.0,0.0,0.0,0.0,0.0,0.0,0.0,0.0,0.0,0.0,0.0,0.0,0.0,0.0,0.0,0.0,0.0,0.0,0.0,0.0,0.0,0.0,0.0,0.0,0.0,0.0,-2.2466,0.0,0.0,0.0,0.0,0.0,0.0,0.0,0.0,0.0,0.0,0.0,0.0,0.0,0.0,0.0,0.0,0.0,0.0,0.0,0.0,0.0,0.0,0.0,0.0,0.0,0.0,0.0,0.0,0.0,0.0,0.0,0.0,0.0,0.0,0.0,0.0,0.0,0.0,0.0,0.0,0.0,0.0,0.0,0.0,0.0,0.0,0.0,0.0,0.0,0.0,0.0,0.0,0.0,0.0,0.0,0.0,0.0,0.0,0.0,0.0,0.0,0.0,0.0,0.0,0.0,0.0,0.0,0.0,0.0,0.0,0.0,0.0,0.0,0.0,0.0,0.0,0.0,0.0,0.0,0.0,0.0,0.0,0.0,0.0,0.0,0.0,0.0,0.0,0.0,0.0,0.0,0.0,0.0,0.0,0.0,0.0,0.0,0.0,0.0,0.0,0.0,0.0,0.0,0.0,0.0,0.0,0.0,0.0,-2.3618,-2.3967,-2.4305,-2.4424,-2.448,-2.4448,-2.3808,-2.3419,-2.3197,-2.3197,0.0,0.0,0.0,0.0,0.0,0.0,0.0,0.0,0.0,0.0,0.0,0.0,0.0,0.0,0.0,0.0,0.0,0.0,0.0,0.0,0.0,0.0,0.0,0.0,0.0,0.0,0.0,0.0,0.0,0.0,0.0,0.0,0.0,0.0,0.0,0.0,0.0,0.0,-3.3989,-3.4334,-3.4732,-3.5322,-3.5191,0.0,0.0,0.0,0.0,0.0,0.0,0.0,0.0,0.0,0.0,0.0,0.0,0.0,0.0,0.0,0.0,0.0,0.0,0.0,0.0,0.0,0.0,0.0,0.0,0.0,0.0,0.0,0.0,0.0,0.0,0.0,0.0,0.0,0.0,0.0,0.0,0.0,0.0,0.0,0.0,0.0,0.0,0.0,-2.1534,-2.1224,0.0,0.0,0.0,0.0,0.0,0.0,0.0,0.0,0.0,0.0,0.0,0.0,0.0,-2.1505,-2.2728,-2.2879,-2.3276,-2.3978,-2.4587,-2.4928,-2.4992,-2.5658,-2.5929,-2.5929,-2.5834,0.0,-2.397,-2.397,0.0,0.0,0.0,0.0,0.0,0.0,0.0,0.0,0.0,0.0,0.0,0.0,0.0,0.0,0.0,0.0,0.0,0.0,0.0,0.0,0.0,0.0,0.0,0.0,0.0,0.0,0.0,0.0,0.0,0.0,0.0,0.0,0.0,0.0,0.0,0.0,-3.2586,-3.3508,-3.459,-3.4869,-3.5558,-3.651,-3.6406,-3.6516,-3.6826,-3.7355,0.0,0.0,0.0,0.0,0.0,0.0,0.0,0.0,0.0,0.0,0.0,0.0,0.0,0.0,0.0,0.0,0.0,0.0,0.0,0.0,0.0,0.0,0.0,0.0,0.0,0.0,0.0,0.0,0.0,0.0,0.0,0.0,0.0,0.0,0.0,0.0,0.0,0.0,0.0,-2.2568,-2.2286,-2.2058,-2.1785,-2.1572,0.0,0.0,0.0,0.0,0.0,0.0,0.0,0.0,0.0,-2.0909,-2.1687,-2.2394,-2.3006,-2.38,-2.4341,-2.4658,-2.5357,-2.5691,-2.5707,-2.6073,-2.6208,-2.6208,-2.6208,-2.5858,-2.5292,-2.5292,-2.5061,-2.4642,0.0,0.0,0.0,0.0,-2.4709,-2.4885,0.0,0.0,0.0,0.0,0.0,0.0,0.0,0.0,0.0,0.0,0.0,0.0,0.0,0.0,0.0,0.0,0.0,0.0,0.0,0.0,0.0,0.0,0.0,0.0,0.0,0.0,0.0,0.0,-3.3325,-3.4048,-3.4902,-3.5411,-3.6236,-3.7275,-3.7597,-3.7929,-3.8311,-3.8811,-3.8887,0.0,0.0,0.0,0.0,0.0,0.0,0.0,0.0,0.0,0.0,0.0,0.0,0.0,0.0,0.0,0.0,0.0,0.0,0.0,0.0,0.0,0.0,0.0,0.0,0.0,0.0,0.0,0.0,0.0,0.0,0.0,0.0,0.0,0.0,0.0,0.0,0.0,0.0,-2.3178,-2.3071,-2.2769,-2.2571,-2.2328,0.0,0.0,0.0,0.0,0.0,0.0,-2.0491,-2.0907,-2.1274,-2.1449,-2.2474,-2.3189,-2.3546,-2.4587,-2.5199,-2.5381,-2.608,-2.6479,-2.6487,-2.6662,-2.6741,-2.6741,-2.6654,-2.6549,-2.6525,-2.6319,-2.5905,-2.5373,-2.5373,-2.5117,-2.4836,-2.5136,-2.5436,-2.5734,0.0,0.0,0.0,0.0,0.0,0.0,0.0,0.0,0.0,0.0,0.0,0.0,0.0,0.0,0.0,0.0,0.0,0.0,0.0,0.0,0.0,0.0,0.0,0.0,0.0,0.0,0.0,-3.2771,-3.3498,-3.4137,-3.4641,-3.5711,-3.6794,-3.7803,-3.8959,-3.9482,-3.9506,-3.9525,-3.9866,-4.032,0.0,0.0,0.0,0.0,0.0,0.0,0.0,0.0,0.0,0.0,0.0,0.0,0.0,0.0,0.0,0.0,0.0,0.0,0.0,0.0,0.0,0.0,0.0,0.0,0.0,0.0,0.0,0.0,0.0,0.0,0.0,0.0,0.0,0.0,0.0,0.0,0.0,0.0,0.0,-2.297,-2.2499,0.0,0.0,0.0,0.0,-2.1029,-2.1379,-2.1515,-2.1269,-2.1679,-2.2212,-2.2887,-2.2982,-2.3657,-2.4992,-2.5071,-2.5445,-2.6168,-2.6811,-2.7153,-2.7169,-2.782,-2.8114,-2.8098,-2.7788,-2.7653,-2.7574,-2.6565,-2.6184,-2.6152,-2.6152,-2.6336,-2.6622,-2.6947,-2.7255,-2.7626,0.0,0.0,0.0,0.0,0.0,0.0,0.0,0.0,0.0,0.0,0.0,0.0,0.0,0.0,0.0,0.0,0.0,0.0,0.0,0.0,0.0,0.0,0.0,0.0,0.0,0.0,-3.2587,-3.3038,-3.4,-3.4698,-3.5199,-3.6295,-3.7399,-3.8465,-3.946,-4.0404,-4.1218,-4.1218,-4.1337,-4.1467,-4.0984,-4.0645,0.0,0.0,0.0,0.0,0.0,0.0,0.0,0.0,0.0,0.0,0.0,0.0,0.0,0.0,0.0,0.0,0.0,0.0,0.0,0.0,0.0,0.0,0.0,0.0,0.0,0.0,0.0,0.0,0.0,0.0,0.0,0.0,0.0,0.0,0.0,0.0,0.0,-2.3087,-2.2974,0.0,-2.2885,-2.2652,-2.2401,-2.2168,-2.2322,-2.2217,-2.1743,-2.2314,-2.2752,-2.3006,-2.3896,-2.4603,-2.5103,-2.5778,-2.6358,-2.6835,-2.7312,-2.7653,-2.7868,-2.8114,-2.8225,-2.8217,-2.8098,-2.805,-2.8003,-2.7407,-2.6899,-2.655,-2.6753,-2.6802,-2.6799,-2.73,-2.7609,-2.7735,0.0,0.0,0.0,0.0,0.0,0.0,0.0,0.0,0.0,0.0,0.0,0.0,0.0,0.0,0.0,0.0,0.0,0.0,0.0,0.0,0.0,0.0,0.0,0.0,0.0,-3.204,-3.2594,-3.3112,-3.4154,-3.4918,-3.5426,-3.6573,-3.7721,-3.8833,-3.9793,-4.0943,-4.212,-4.2557,-4.2719,-4.2656,-4.2354,-4.197,-4.152,0.0,0.0,0.0,0.0,0.0,0.0,0.0,0.0,0.0,0.0,0.0,0.0,0.0,0.0,0.0,0.0,0.0,0.0,0.0,0.0,0.0,0.0,0.0,0.0,0.0,0.0,0.0,0.0,0.0,0.0,0.0,0.0,0.0,0.0,0.0,-2.4098,-2.3449,-2.3598,-2.3741,-2.3583,-2.3306,-2.3033,-2.2843,-2.2922,-2.2798,-2.237,-2.2982,-2.3475,-2.3713,-2.4627,-2.5278,-2.5635,-2.6446,-2.7034,-2.7383,-2.786,-2.8193,-2.8408,-2.8535,-2.8583,-2.8575,-2.8456,-2.8408,-2.8384,-2.8035,-2.7625,-2.7282,-2.7351,-2.7296,-2.7286,-2.7866,-2.8115,-2.829,0.0,0.0,0.0,0.0,0.0,0.0,0.0,0.0,0.0,0.0,0.0,0.0,0.0,0.0,0.0,0.0,0.0,0.0,0.0,0.0,0.0,0.0,0.0,0.0,-3.1647,-3.1939,-3.2347,-3.2919,-3.3903,-3.4706,-3.5258,-3.6566,-3.7786,-3.8827,-4.0012,-4.1091,-4.2167,-4.342,-4.3926,-4.3926,-4.3926,-4.3558,-4.2958,0.0,0.0,0.0,0.0,0.0,0.0,0.0,0.0,0.0,0.0,0.0,0.0,0.0,0.0,0.0,0.0,0.0,0.0,0.0,0.0,0.0,0.0,0.0,0.0,0.0,0.0,0.0,0.0,0.0,0.0,0.0,0.0,0.0,-2.4372,-2.4749,-2.4799,-2.4001,-2.4287,-2.4298,-2.3788,-2.3426,-2.3115,-2.2856,-2.3186,-2.3312,-2.3046,-2.3705,-2.4456,-2.5087,-2.5143,-2.5651,-2.6684,-2.7042,-2.7399,-2.7772,-2.8448,-2.8844,-2.8797,-2.9139,-2.9298,-2.9282,-2.8932,-2.8789,-2.8757,-2.8392,-2.8248,-2.831,-2.787,-2.799,-2.8337,-2.8667,-2.8996,-2.9265,0.0,0.0,0.0,0.0,0.0,0.0,0.0,0.0,0.0,0.0,0.0,0.0,0.0,0.0,0.0,0.0,0.0,0.0,0.0,0.0,0.0,0.0,0.0,0.0,0.0,-3.1868,-3.2558,-3.2903,-3.412,-3.4987,-3.5494,-3.6874,-3.7971,-3.8846,-4.0176,-4.1295,-4.2255,-4.3612,-4.4388,-4.4768,-4.4546,-4.4146,-4.3531,0.0,0.0,0.0,0.0,0.0,0.0,0.0,0.0,0.0,0.0,0.0,0.0,0.0,0.0,0.0,0.0,0.0,0.0,0.0,0.0,0.0,0.0,0.0,0.0,0.0,0.0,0.0,0.0,0.0,0.0,0.0,0.0,-2.5289,-2.5176,-2.5053,-2.4808,-2.4401,-2.428,-2.4192,-2.405,-2.3815,-2.3716,-2.397,-2.3861,-2.3794,-2.3811,-2.4436,-2.4905,-2.5103,-2.585,-2.6509,-2.705,-2.7407,-2.7884,-2.8487,-2.8678,-2.8908,-2.9155,-2.925,-2.9298,-2.929,-2.9194,-2.9155,-2.9123,-2.9055,-2.8841,-2.8615,-2.8529,-2.8569,-2.8667,-2.9053,-2.925,-2.9299,0.0,0.0,0.0,0.0,0.0,0.0,0.0,0.0,0.0,0.0,0.0,0.0,0.0,0.0,0.0,0.0,0.0,0.0,0.0,0.0,0.0,0.0,0.0,0.0,0.0,0.0,-3.222,-3.2915,-3.3766,-3.4679,-3.5629,-3.6607,-3.7688,-3.8856,-4.002,-4.1195,-4.2264,-4.3434,-4.4271,-4.4873,-4.4859,-4.4606,-4.4117,-4.3845,-4.2973,-4.1796,-4.0968,-4.0027,-3.9031,-3.7924,0.0,0.0,0.0,0.0,0.0,0.0,0.0,0.0,0.0,0.0,0.0,0.0,0.0,0.0,0.0,0.0,0.0,0.0,0.0,0.0,0.0,0.0,0.0,0.0,-2.6357,-2.6026,-2.5872,-2.5454,-2.503,-2.4765,-2.4632,-2.4607,-2.4667,-2.4322,-2.4238,-2.4647,-2.4421,-2.4311,-2.4536,-2.5024,-2.5461,-2.5755,-2.6501,-2.7065,-2.7423,-2.7915,-2.8368,-2.8773,-2.9067,-2.9322,-2.952,-2.9663,-2.9647,0.0,-2.952,-2.9433,-2.9282,-2.9502,-2.9333,0.0,0.0,0.0,0.0,0.0,-2.9307,-2.9307,0.0,0.0,0.0,0.0,0.0,0.0,0.0,0.0,0.0,0.0,0.0,0.0,0.0,0.0,0.0,0.0,0.0,0.0,0.0,0.0,0.0,0.0,0.0,0.0,0.0,0.0,-3.1633,-3.274,-3.3157,-3.4075,-3.5535,-3.6162,-3.727,-3.8755,-3.973,-4.0861,-4.213,-4.3018,-4.3831,-4.4569,-4.4966,-4.4916,-4.4647,-4.4647,-4.394,-4.2806,-4.1895,-4.1065,-4.0174,-3.8839,0.0,0.0,0.0,0.0,0.0,0.0,0.0,0.0,0.0,0.0,0.0,0.0,0.0,0.0,0.0,0.0,0.0,0.0,0.0,0.0,0.0,0.0,0.0,0.0,-2.6643,-2.6729,-2.6449,-2.5881,-2.5451,-2.5182,-2.5173,-2.5263,-2.5391,-2.4842,-2.4614,-2.5035,-2.4803,-2.4793,-2.5151,0.0,0.0,0.0,0.0,-2.7447,-2.7844,-2.8464,-2.8805,-2.8893,-2.9528,-2.9846,-2.9893,-3.0179,-3.014,-2.9822,-2.9822,-2.9623,-2.9369,-2.9791,-2.9723,-2.9388,-2.9379,-2.9151,-2.8865,-2.9185,-2.9307,0.0,0.0,0.0,0.0,0.0,0.0,0.0,0.0,0.0,0.0,0.0,0.0,0.0,0.0,0.0,0.0,0.0,0.0,0.0,0.0,0.0,0.0,0.0,0.0,0.0,0.0,0.0,0.0,-3.1914,-3.3066,-3.4066,-3.4999,-3.6195,-3.7251,-3.8207,-3.9677,-4.0736,-4.1466,-4.282,-4.3765,-4.4324,-4.4902,-4.477,-4.4283,-4.4283,-4.3734,-4.2806,-4.1895,-4.1065,-4.0227,-3.9276,-3.8031,-3.685,-3.6283,-3.568,0.0,0.0,0.0,0.0,0.0,0.0,0.0,0.0,0.0,0.0,0.0,0.0,0.0,0.0,0.0,0.0,0.0,0.0,0.0,-2.7386,-2.7027,-2.6717,-2.6606,-2.6064,-2.5627,-2.5572,-2.5473,-2.5396,-2.5417,-2.5068,-2.5043,-2.5355,-2.5173,-2.5159,-2.5516,-2.6128,0.0,-2.7089,-2.7447,-2.7931,-2.8559,-2.8702,-2.9051,-2.9623,0.0,0.0,-3.0227,-3.0283,-3.014,-2.9822,-2.9822,-2.976,-2.9791,-3.0148,-3.0285,-3.0157,-2.9551,-2.9244,-2.9185,-2.9307,-2.9307,-2.9265,0.0,0.0,0.0,0.0,0.0,0.0,0.0,0.0,0.0,0.0,0.0,0.0,0.0,0.0,0.0,0.0,0.0,0.0,0.0,0.0,0.0,0.0,0.0,0.0,0.0,0.0,0.0,0.0,-3.2533,-3.3525,-3.4821,-3.5493,-3.6576,-3.8066,-3.9073,-4.0175,-4.1253,-4.2291,-4.3112,-4.3766,-4.4186,-4.4096,-4.3779,-4.4094,-4.3723,-4.3039,-4.2438,-4.1463,-4.0341,-3.9894,-3.8662,-3.7215,-3.6836,-3.621,-3.5582,0.0,0.0,0.0,0.0,0.0,0.0,0.0,0.0,0.0,0.0,0.0,0.0,0.0,0.0,-2.8929,-2.8466,0.0,-2.7918,-2.7303,-2.7146,-2.6927,-2.6418,-2.5953,-2.5703,-2.5731,-2.5531,-2.5457,-2.5668,-2.5402,-2.5378,-2.579,-2.5517,-2.5604,-2.6128,-2.6652,-2.7097,-2.7455,-2.7979,-2.8503,-2.9028,-2.921,-2.956,-3.0076,-3.0259,-3.0426,-3.0593,-3.0775,-3.0569,-3.0076,-3.0224,-3.0147,-2.9902,-3.0116,-3.0228,-3.0352,-2.9599,-2.9307,-2.9307,-2.9307,-2.9438,-2.9509,0.0,0.0,0.0,0.0,0.0,0.0,0.0,0.0,0.0,0.0,0.0,0.0,0.0,0.0,0.0,0.0,0.0,0.0,0.0,0.0,0.0,0.0,0.0,0.0,0.0,0.0,0.0,0.0,0.0,-3.2991,-3.4502,-3.4758,-3.589,-3.7719,-3.8384,-3.9517,-4.0928,-4.149,-4.2195,-4.2978,-4.3251,-4.3237,-4.3081,-4.3615,-4.3615,-4.3163,-4.28,-4.1672,-4.0368,-4.0201,-3.8957,-3.7459,-3.7168,-3.6603,-3.6003,-3.5705,-3.4988,0.0,0.0,0.0,0.0,0.0,0.0,0.0,0.0,-3.0964,-3.0707,-2.9996,-2.971,-2.9323,-2.8492,-2.8511,-2.8244,-2.7098,-2.7214,-2.7107,-2.6127,-2.5915,-2.5834,-2.5835,-2.5651,-2.5639,-2.5974,-2.5859,-2.581,-2.6072,-2.5936,-2.6112,-2.674,-2.7113,-2.7502,-2.7923,-2.8543,-2.9043,-2.9401,-2.975,-3.0092,-3.0426,-3.072,-3.0894,-3.0974,-3.126,-3.0998,-3.0307,-3.0631,-3.0543,-3.0091,-2.9996,-3.0165,-3.0352,-2.9599,-2.9307,-2.9373,-2.9373,-2.9518,-2.9648,0.0,0.0,0.0,0.0,0.0,0.0,0.0,0.0,0.0,0.0,0.0,0.0,0.0,0.0,0.0,0.0,0.0,0.0,0.0,0.0,0.0,0.0,0.0,0.0,0.0,0.0,0.0,0.0,0.0,0.0,-3.3396,-3.4619,-3.5638,-3.6552,-3.802,-3.907,-3.9741,-4.0495,-4.1185,-4.1726,-4.2307,-4.2337,-4.2122,-4.245,-4.2719,-4.2867,-4.2023,-4.1179,-4.0254,-3.9488,-3.8476,-3.7459,-3.7168,-3.6871,-3.6539,-3.6093,-3.5688,-3.5388,-3.5137,-3.421,-3.3112,-3.2322,-3.1731,-3.1253,0.0,-3.083,-3.0515,-3.0156,-3.0051,-2.9812,-2.912,-2.9021,-2.8638,-2.7517,-2.7349,-2.6999,-2.5898,-2.6054,-2.6144,-2.5947,-2.5874,-2.587,-2.599,-2.6316,-2.6343,-2.6105,-2.6392,-2.6732,-2.7121,-2.7478,-2.7971,-2.863,-2.9036,-2.9409,-2.9766,-3.0092,-3.0442,-3.0799,-3.0847,-3.1029,-3.1331,-3.1371,-3.0998,-3.0283,-3.0404,-3.0587,-3.0872,-3.047,-3.0361,-3.0352,-2.9599,-2.9495,-2.9748,-2.9748,-2.9539,-2.9328,0.0,0.0,0.0,0.0,0.0,0.0,0.0,0.0,0.0,0.0,0.0,0.0,0.0,0.0,0.0,0.0,0.0,0.0,0.0,0.0,0.0,0.0,0.0,0.0,0.0,0.0,0.0,0.0,0.0,0.0,-3.3211,-3.379,-3.4835,-3.6334,-3.7189,-3.8175,-3.9329,-3.9906,-4.0493,-4.1063,-4.166,-4.1712,-4.1474,-4.1767,-4.1766,-4.1565,-4.1214,-4.0556,0.0,0.0,-3.8272,-3.7261,-3.7155,-3.6828,-3.6452,-3.6098,-3.5812,-3.5464,-3.4872,-3.4278,-3.3627,-3.3173,-3.2638,-3.2146,-3.1926,-3.1529,-3.1033,-3.0589,-3.0283,-2.986,-2.9207,-2.8814,-2.8335,-2.753,-2.7269,-2.6826,-2.5852,-2.6033,-2.6206,-2.5949,-2.6131,-2.6228,-2.6061,-2.6384,-2.6461,-2.6159,-2.6711,-2.7137,-2.7494,-2.8035,-2.8559,-2.9059,-2.9417,-2.987,-3.0426,-3.0561,-3.0815,-3.1172,-3.1172,-3.1244,-3.1387,-3.1387,-3.1225,-3.0957,-3.0819,-3.1002,-3.1296,-3.0677,-3.0429,-3.0352,-2.9788,-2.9683,-2.9813,-2.9813,-2.9837,-2.9849,0.0,0.0,0.0,0.0,0.0,0.0,0.0,0.0,0.0,0.0,0.0,0.0,0.0,0.0,0.0,0.0,0.0,0.0,0.0,0.0,0.0,0.0,0.0,0.0,0.0,0.0,0.0,0.0,0.0,0.0,0.0,-3.3093,-3.4055,-3.5692,-3.6283,-3.7319,-3.8563,-3.9135,-3.9685,-4.0272,-4.083,-4.0862,-4.0635,-4.0981,-4.0743,-4.0239,-4.0307,-3.9954,0.0,0.0,-3.7956,-3.7108,-3.7015,-3.6687,-3.6228,-3.5955,-3.5572,-3.5126,-3.4494,-3.4162,-3.3927,-3.358,-3.3131,-3.2718,-3.2443,-3.1924,-3.1373,-3.0879,-3.036,-2.9837,-2.9185,-2.8654,-2.8077,-2.7485,-2.7152,-2.6755,-2.594,-2.6193,-2.6355,-2.6104,-2.6422,-2.6619,-2.6374,-2.6624,-2.6706,-2.6592,-2.7068,-2.7542,-2.7995,-2.8583,-2.9075,-2.9433,-2.9878,-3.0354,-3.0855,-3.0958,-3.1133,-3.1387,-3.1387,-3.1387,-3.1387,-3.1265,-3.1418,-3.1621,-3.1178,-3.1214,-3.1508,-3.0746,-3.0506,-3.0496,-2.9986,-2.9944,-3.0074,-3.0074,-3.0097,-3.0086,0.0,0.0,0.0,0.0,0.0,0.0,0.0,0.0,0.0,0.0,0.0,0.0,0.0,0.0,0.0,0.0,0.0,0.0,0.0,0.0,0.0,0.0,0.0,0.0,0.0,0.0,0.0,0.0,0.0,0.0,0.0,-3.282,-3.3479,-3.4042,-3.5608,-3.6606,-3.7135,-3.7911,-3.8512,-3.9016,-3.9621,-3.9649,-3.9414,-3.9997,-3.9699,-3.8998,-3.9419,0.0,0.0,-3.7898,-3.7366,-3.7062,-3.6815,-3.6405,-3.5968,-3.5668,-3.5078,-3.4396,-3.4162,-3.3927,-3.358,-3.3042,-3.2718,-3.2443,-3.2077,-3.1618,-3.1127,-3.0879,-3.036,-2.9837,-2.9185,-2.8654,-2.8077,-2.7485,-2.7152,-2.6811,-2.6332,-2.6592,-2.6733,-2.6481,-2.6816,-2.7079,0.0,-2.7068,-2.7253,-2.7619,-2.7696,-2.8019,-2.8702,-2.9083,-2.9441,-2.9798,-3.0473,-3.0914,-3.0938,-3.1204,-3.1379,-3.1387,-3.1387,-3.1387,-3.1363,-3.1063,-3.1318,-3.2061,-3.1321,-3.1214,-3.1508,-3.0746,-3.0642,-3.0929,-3.0127,-3.0213,-3.0879,-3.0879,-3.0374,-2.976,0.0,0.0,0.0,0.0,0.0,0.0,0.0,0.0,0.0,0.0,0.0,0.0,0.0,0.0,0.0,0.0,0.0,0.0,0.0,0.0,0.0,0.0,0.0,0.0,0.0,0.0,0.0,0.0,0.0,0.0,0.0,0.0,-3.312,-3.3922,-3.4654,-3.541,-3.6215,-3.6677,-3.7021,-3.7369,-3.8087,-3.8341,-3.8322,-3.8926,-3.8839,-3.8453,0.0,0.0,0.0,-3.7742,-3.7307,-3.7062,-3.6769,-3.6358,-3.5872,-3.5271,-3.4726,-3.4335,-3.3927,-3.363,-3.3331,-3.2992,-3.2505,-3.2077,-3.1823,-3.1322,-3.0879,-3.0609,-2.9931,-2.9353,-2.9132,-2.8335,-2.7647,-2.7431,-2.7232,-2.6967,-2.6385,-2.684,-2.7,-2.6533,-2.7039,0.0,0.0,0.0,0.0,-2.7652,-2.7928,-2.8368,-2.9083,-2.9457,-2.9917,-3.0497,-3.0743,-3.0974,-3.1212,-3.1331,-3.1387,-3.1387,-3.1694,-3.1763,-3.1824,-3.1704,-3.1809,-3.2061,-3.1608,-3.1489,-3.1508,-3.0746,-3.065,-3.0929,-3.0408,-3.049,-3.0935,-3.1129,-3.0746,-3.0071,0.0,0.0,0.0,0.0,0.0,0.0,0.0,0.0,0.0,0.0,0.0,0.0,0.0,0.0,0.0,0.0,0.0,0.0,0.0,0.0,0.0,0.0,0.0,0.0,0.0,0.0,0.0,0.0,0.0,0.0,0.0,0.0,0.0,-3.3402,-3.3909,-3.4583,-3.5324,-3.5825,-3.6179,-3.6424,-3.7012,-3.7346,-3.7443,-3.783,-3.7843,0.0,0.0,0.0,0.0,-3.7428,-3.7168,-3.6922,-3.6546,-3.6133,-3.5572,-3.4884,-3.4482,-3.4211,-3.3679,-3.3381,-3.3081,-3.2667,-3.219,-3.1772,-3.1527,-3.1023,-3.0568,-3.0297,-2.9659,-2.9079,-2.8973,-2.8121,-2.7425,-2.7566,-2.7381,-2.7055,-2.672,-2.7084,-2.7246,-2.691,-2.7313,-2.7818,0.0,0.0,0.0,-2.8451,-2.8822,-2.9276,-2.9881,-3.0226,-3.0617,-3.1073,-3.1058,-3.1165,-3.1387,-3.1387,-3.1464,-3.1617,-3.184,-3.2081,-3.2246,-3.2158,-3.2101,-3.2086,-3.1762,-3.1491,-3.1319,-3.084,-3.0776,-3.093,-3.0683,-3.075,-3.1129,-3.1313,-3.0882,-3.0204,0.0,0.0,0.0,0.0,0.0,0.0,0.0,0.0,0.0,0.0,0.0,0.0,0.0,0.0,0.0,0.0,0.0,0.0,0.0,0.0,0.0,0.0,0.0,0.0,0.0,0.0,0.0,0.0,0.0,0.0,0.0,0.0,0.0,-3.2412,-3.3402,-3.3991,-3.4305,-3.5285,-3.5825,-3.6101,-3.6345,-3.6575,-3.6817,-3.6857,0.0,0.0,0.0,0.0,0.0,-3.6975,-3.6922,-3.6581,-3.6146,-3.562,-3.5066,-3.4531,-3.4261,-3.3977,-3.3431,-3.3081,-3.2729,-3.2128,-3.1772,-3.1527,-3.123,-3.0765,-3.0339,-3.0047,-2.9511,-2.9026,-2.8727,-2.797,-2.751,-2.7916,-2.7567,-2.7255,-2.7395,-2.7429,-2.7482,-2.758,-2.7638,-2.7963,-2.8734,-2.8835,0.0,-2.9909,0.0,-3.0662,-3.0978,-3.1375,-3.1542,-3.1558,-3.1518,-3.1464,-3.1464,-3.1464,-3.1617,-3.2069,-3.2069,-3.2263,-3.2667,-3.228,-3.212,-3.2116,-3.173,-3.1354,-3.1055,-3.1028,-3.0965,-3.095,-3.0894,-3.1129,-3.1377,-3.1359,-3.0855,-3.0195,0.0,0.0,0.0,0.0,0.0,0.0,0.0,0.0,0.0,0.0,0.0,0.0,0.0,0.0,0.0,0.0,0.0,0.0,0.0,0.0,0.0,0.0,0.0,0.0,0.0,0.0,0.0,0.0,0.0,0.0,0.0,0.0,0.0,0.0,-3.2742,-3.3152,-3.3424,-3.3852,-3.4247,-3.4682,0.0,-3.5465,-3.5733,0.0,0.0,0.0,0.0,0.0,0.0,-3.7057,-3.67,-3.6146,-3.5812,-3.532,-3.4835,-3.431,-3.4026,-3.3679,-3.3131,-3.2818,-3.2505,-3.2128,-3.1669,-3.123,-3.0983,-3.0661,-3.0287,-2.9827,-2.9396,-2.9026,-2.8727,-2.797,-2.751,-2.7916,-2.78,0.0,-2.744,-2.7898,-2.8149,-2.7648,-2.8126,-2.8665,-2.9128,-2.9703,-3.0327,0.0,-3.0743,-3.0769,-3.1341,-3.1746,-3.2041,-3.2296,-3.2318,-3.2291,-3.2291,-3.2291,-3.2375,-3.2443,-3.2748,-3.2869,-3.2667,-3.2566,-3.2411,-3.2116,-3.173,-3.1494,-3.1323,-3.1096,-3.1108,-3.1232,-3.0968,-3.1129,-3.1341,-3.1047,-3.0626,-3.022,0.0,0.0,0.0,0.0,0.0,0.0,0.0,0.0,0.0,0.0,0.0,0.0,0.0,0.0,0.0,0.0,0.0,0.0,0.0,0.0,0.0,0.0,0.0,0.0,0.0,0.0,0.0,0.0,0.0,0.0,0.0,0.0,0.0,0.0,-3.2376,-3.268,-3.2939,0.0,0.0,0.0,0.0,0.0,0.0,0.0,0.0,0.0,0.0,0.0,0.0,0.0,-3.6288,-3.5764,-3.5524,-3.5078,-3.4543,-3.4211,-3.3828,-3.3431,-3.2869,-3.2505,-3.2179,-3.1772,-3.1322,-3.0931,-3.0672,-3.0401,-3.0088,-2.9501,-2.9237,-2.8973,-2.8621,-2.7916,-2.7576,-2.8171,-2.8014,-2.7858,-2.8089,-2.8408,-2.8562,-2.8388,-2.8768,-2.9153,-2.953,-3.0249,-3.0926,0.0,-3.1511,-3.1733,-3.2248,-3.2484,-3.2701,-3.2892,-3.2672,-3.2596,-3.2596,-3.2596,-3.2672,-3.2892,-3.2969,-3.2851,-3.2702,-3.2539,-3.2236,-3.1867,0.0,-3.1453,-3.1286,-3.1173,-3.1185,-3.1186,-3.1155,-3.1249,-3.1332,-3.0937,-3.0659,-3.0387,0.0,0.0,0.0,0.0,0.0,0.0,0.0,0.0,0.0,0.0,0.0,0.0,0.0,0.0,0.0,0.0,0.0,0.0,0.0,0.0,0.0,0.0,0.0,0.0,0.0,0.0,0.0,0.0,0.0,0.0,0.0,0.0,0.0,0.0,0.0,0.0,0.0,0.0,0.0,0.0,0.0,0.0,0.0,0.0,0.0,0.0,0.0,0.0,0.0,0.0,-3.5764,-3.5572,-3.5223,-3.4787,-3.4347,-3.4113,-3.3679,-3.3131,-3.2656,-3.224,-3.1874,-3.1322,-3.0983,-3.0724,-3.0443,-3.0193,-2.9837,-2.9237,-2.9079,-2.892,-2.8398,-2.7809,-2.7652,-2.8493,-2.8172,-2.808,-2.8992,-2.8903,-2.8906,-2.925,-2.9388,-2.9605,-2.9932,-3.06,-3.1208,-3.1679,-3.2313,-3.2852,-3.3254,-3.3313,-3.3281,-3.3281,-3.2977,-3.2748,-3.2748,-3.2748,-3.2901,-3.3272,-3.2918,-3.277,-3.2672,-3.2304,-3.1927,-3.1683,0.0,0.0,-3.1175,-3.1314,-3.124,-3.1,-3.1313,-3.135,-3.1249,-3.0918,-3.071,-3.054,0.0,0.0,0.0,0.0,0.0,0.0,0.0,0.0,0.0,0.0,-3.0214,-2.9433,0.0,0.0,0.0,0.0,0.0,0.0,0.0,0.0,0.0,0.0,0.0,0.0,0.0,0.0,0.0,0.0,0.0,0.0,0.0,0.0,0.0,0.0,0.0,0.0,0.0,0.0,0.0,0.0,0.0,0.0,0.0,0.0,0.0,0.0,0.0,0.0,0.0,0.0,-3.562,-3.5512,-3.503,-3.4543,-3.4125,-3.3828,-3.3381,-3.288,-3.2606,-3.224,-3.1874,-3.1322,-3.0983,-3.0724,-3.0443,-3.0193,-2.9837,-2.9237,-2.9079,-2.892,-2.8398,-2.7809,-2.7652,-2.8493,-2.8172,-2.808,-2.8992,-2.9312,-2.9449,-2.9348,-2.9826,-3.0258,-3.0301,-3.0746,-3.1422,0.0,0.0,-3.2852,-3.3254,-3.3547,-3.3677,-3.3677,-3.3609,-3.3609,-3.3609,-3.3609,-3.3609,-3.3677,-3.3377,-3.2992,-3.2672,-3.2304,-3.2062,-3.2018,0.0,0.0,-3.1823,-3.1504,-3.1362,-3.1313,-3.1377,-3.1176,-3.0909,-3.0754,-3.0469,-3.0251,0.0,0.0,0.0,0.0,0.0,0.0,0.0,-3.1705,-3.1617,-3.135,-3.0859,-3.0334,-2.9737,-2.9569,-2.9481,0.0,0.0,0.0,0.0,0.0,0.0,0.0,0.0,0.0,0.0,0.0,0.0,-2.9114,0.0,0.0,0.0,0.0,0.0,0.0,0.0,0.0,0.0,0.0,0.0,0.0,0.0,0.0,0.0,0.0,0.0,0.0,0.0,0.0,0.0,0.0,-3.5368,-3.5271,-3.4775,-3.4359,-3.4026,-3.3779,-3.322,-3.2667,-3.2544,-3.2128,-3.1669,-3.1127,-3.0879,-3.0672,-3.0297,-3.0099,-2.9837,-2.9237,-2.9079,-2.892,-2.8398,-2.797,-2.786,-2.8493,-2.8285,-2.8385,-2.9526,-2.9686,-2.9915,-3.041,-3.076,-3.1003,-3.1037,-3.1349,-3.1891,-3.2612,0.0,-3.2938,-3.3537,-3.3743,-3.3761,-3.3761,-3.3761,-3.3761,-3.3761,-3.3761,-3.3743,-3.3537,-3.3152,-3.2766,-3.2381,-3.2219,-3.1972,-3.1792,-3.176,0.0,-3.1652,-3.1452,-3.1431,-3.1359,-3.1148,-3.1092,-3.0978,-3.0544,-3.0484,-3.0559,0.0,0.0,0.0,0.0,0.0,0.0,0.0,-3.1705,-3.1665,-3.1562,-3.1529,-3.1329,-3.1028,-3.0569,-3.0261,0.0,0.0,0.0,0.0,0.0,0.0,0.0,0.0,0.0,0.0,0.0,0.0,-2.9504,-2.9596,0.0,0.0,0.0,0.0,0.0,-3.1761,0.0,0.0,0.0,0.0,0.0,0.0,0.0,0.0,0.0,0.0,0.0,0.0,0.0,0.0,0.0,-3.5126,-3.4932,-3.4482,-3.4211,-3.4026,-3.3729,-3.3119,-3.2493,-3.2493,-3.2088,-3.1476,-3.0931,-3.0786,-3.0682,-3.0099,-2.9994,-2.9837,-2.929,-2.9132,-2.8973,-2.8451,-2.8208,-2.8192,-2.8614,-2.8474,-2.8784,-3.0107,-3.0,-3.0257,-3.1387,-3.155,-3.1614,-3.1728,-3.2036,0.0,-3.2921,0.0,0.0,-3.3802,-3.3761,-3.3761,-3.3761,-3.3761,-3.3761,-3.3761,-3.376,-3.3571,-3.3263,-3.2865,-3.256,-3.2259,-3.2226,-3.2044,-3.1728,-3.1885,0.0,0.0,-3.1422,-3.1332,-3.1222,-3.0973,-3.0951,-3.0978,-3.0508,-3.0569,-3.0853,0.0,0.0,0.0,0.0,0.0,0.0,0.0,-3.1705,-3.1853,-3.2313,-3.2168,-3.2094,-3.2289,-3.1273,-3.0487,0.0,0.0,0.0,0.0,0.0,0.0,0.0,0.0,0.0,0.0,0.0,0.0,-2.9504,-2.994,0.0,0.0,0.0,0.0,0.0,0.0,-3.1849,-3.2038,0.0,0.0,0.0,0.0,0.0,0.0,0.0,0.0,0.0,0.0,0.0,-3.5271,0.0,-3.4884,-3.4433,-3.4211,-3.4125,-3.3977,-3.3481,-3.2969,-3.2493,-3.2493,-3.2088,-3.1476,-3.0931,-3.0786,-3.0682,-3.0099,-2.9994,-2.9942,-2.9617,-2.929,-2.9036,-2.8727,-2.8569,-2.8603,-2.8999,-2.888,-2.9217,-3.0503,-3.038,-3.0464,-3.1414,-3.176,-3.2011,-3.2063,-3.2401,-3.2959,0.0,0.0,0.0,0.0,-3.3761,-3.3761,-3.3761,-3.3761,-3.3761,-3.3761,-3.3494,-3.3306,-3.3337,-3.289,-3.267,-3.2626,-3.2667,-3.2619,-3.2474,0.0,0.0,0.0,-3.1552,-3.1167,-3.09,-3.1134,-3.0804,-3.0246,-3.0714,-3.0727,-3.0498,0.0,0.0,0.0,0.0,0.0,0.0,-3.1285,-3.1285,-3.1508,-3.2168,-3.2182,-3.2189,-3.2477,-3.2066,-3.1472,-3.0721,0.0,0.0,0.0,0.0,0.0,0.0,0.0,0.0,0.0,0.0,-2.9929,-2.9929,-3.0124,0.0,0.0,0.0,0.0,0.0,0.0,-3.1805,-3.2006,0.0,0.0,0.0,0.0,0.0,0.0,0.0,0.0,0.0,0.0,0.0,-3.5175,-3.503,-3.4726,-3.4335,-3.4162,-3.3977,0.0,-3.3431,-3.2919,-3.2493,-3.2493,-3.2088,-3.1527,-3.1127,-3.0931,-3.0672,-3.0349,-3.0141,-2.9942,-2.9659,-2.9343,-2.9026,-2.8727,-2.8706,-2.8797,-2.9055,-2.925,-2.9683,-3.0573,-3.0566,-3.0915,-3.2061,-3.2296,-3.2516,0.0,0.0,-3.3321,0.0,0.0,0.0,0.0,-3.4055,-3.3761,-3.3761,-3.3761,-3.3725,-3.3494,-3.3564,-3.3401,-3.2951,-3.2998,-3.2941,-3.2711,-3.2654,-3.246,-3.2259,0.0,0.0,0.0,-3.1185,-3.1064,-3.1069,-3.0711,-3.0616,-3.0648,-3.0629,-3.0663,-3.0704,0.0,0.0,0.0,0.0,0.0,-3.0984,-3.0984,-3.0984,-3.1298,-3.2096,-3.2225,-3.2393,-3.2781,-3.2863,-3.2462,-3.1537,-3.1318,0.0,0.0,0.0,0.0,0.0,0.0,0.0,0.0,0.0,-3.0216,-3.0216,-3.0216,-3.0216,0.0,0.0,-3.101,-3.1241,0.0,0.0,0.0,0.0,0.0,0.0,0.0,0.0,0.0,0.0,0.0,0.0,0.0,0.0,0.0,0.0,0.0,-3.4249,-3.4075,0.0,0.0,0.0,-3.2919,-3.2493,-3.2493,-3.2088,-3.1527,-3.1281,-3.0983,-3.0724,-3.0443,-3.0193,-2.9942,-2.9774,-2.9448,-2.9185,-2.8877,-2.9021,-2.9219,-2.9252,-2.965,-3.0236,-3.0889,-3.0803,-3.1223,-3.2604,0.0,-3.285,0.0,-3.3578,0.0,0.0,0.0,0.0,0.0,-3.4092,-3.3845,-3.3958,-3.3966,-3.3785,-3.347,-3.3569,-3.3384,-3.285,-3.3163,-3.3046,-3.2654,-3.2705,-3.2503,-3.2005,0.0,0.0,0.0,-3.1037,-3.0976,-3.0894,-3.0489,-3.054,-3.0815,-3.0625,-3.0704,-3.0889,0.0,0.0,0.0,0.0,0.0,0.0,-3.0984,-3.0984,-3.1348,-3.2347,-3.2477,-3.2793,-3.3601,-3.3668,-3.3348,-3.2561,-3.2078,0.0,0.0,0.0,0.0,0.0,0.0,0.0,0.0,0.0,-3.0216,-3.0216,-3.0216,-3.0216,-3.0216,-3.0487,-3.0981,-3.1701,0.0,0.0,0.0,0.0,0.0,0.0,0.0,0.0,0.0,0.0,0.0,0.0,0.0,0.0,0.0,0.0,0.0,0.0,0.0,-3.353,0.0,0.0,-3.2919,-3.2493,-3.2493,-3.2088,-3.1527,-3.1281,-3.0983,-3.0724,-3.0443,-3.0193,-2.9994,-2.9994,-2.9774,-2.9501,-2.9185,-2.9595,-2.9915,-2.9626,-3.0054,0.0,-3.1485,-3.1049,-3.1286,0.0,0.0,-3.2918,-3.3734,0.0,0.0,0.0,0.0,0.0,0.0,-3.3808,-3.3976,-3.4357,-3.4366,-3.418,-3.3799,-3.3491,-3.3287,-3.3269,-3.3318,-3.3053,-3.2638,-3.3007,-3.278,0.0,0.0,0.0,0.0,-3.1188,-3.0838,-3.0153,-3.0746,-3.0717,-3.046,-3.0762,-3.0889,-3.0889,0.0,0.0,0.0,0.0,0.0,0.0,0.0,-3.0454,-3.087,-3.2066,-3.2206,-3.2602,-3.3613,-3.3679,-3.3511,-3.3089,-3.2558,0.0,0.0,0.0,0.0,0.0,0.0,0.0,0.0,0.0,-3.1272,-3.1272,-3.126,-3.126,-3.1319,-3.1541,-3.1844,-3.2242,-3.2545,-3.2884,0.0,0.0,0.0,0.0,0.0,0.0,0.0,0.0,0.0,0.0,0.0,0.0,0.0,0.0,0.0,0.0,0.0,0.0,0.0,-3.3081,-3.2768,-3.2493,-3.2493,-3.2088,-3.1578,-3.1476,-3.1127,-3.0776,-3.0672,-3.0308,-2.9994,-2.9994,-2.9774,-2.9501,-2.9185,-2.9595,-2.9915,-2.9626,-3.0245,0.0,0.0,0.0,0.0,-3.2609,-3.2881,-3.323,0.0,0.0,0.0,0.0,0.0,0.0,0.0,-3.4595,-3.4432,-3.3967,-3.3976,-3.3782,-3.3473,-3.3545,-3.3561,-3.3309,-3.326,-3.3134,-3.2989,-3.2576,0.0,0.0,0.0,0.0,0.0,-3.0646,-3.0569,-3.0717,-3.06,-3.0634,-3.0762,-3.083,-3.0693,-3.042,0.0,0.0,0.0,0.0,0.0,0.0,0.0,-3.0216,-3.0629,-3.1853,-3.1969,-3.2374,-3.3415,-3.353,-3.3481,-3.3331,-3.2982,0.0,0.0,0.0,0.0,0.0,0.0,0.0,-3.1813,-3.1813,-3.1813,-3.1813,-3.1754,-3.1754,-3.1813,-3.1945,-3.2216,-3.2676,-3.2936,-3.3303,0.0,0.0,0.0,0.0,0.0,0.0,-3.5637,0.0,0.0,0.0,0.0,0.0,0.0,0.0,0.0,0.0,0.0,0.0,0.0,0.0,-3.2718,-3.2443,-3.2342,-3.1975,-3.1618,-3.1618,-3.1281,-3.0931,-3.0827,-3.0464,-3.0141,-3.0047,-2.9889,-2.9669,-2.9343,-2.9758,-3.0072,-2.9793,-3.037,0.0,0.0,0.0,0.0,-3.2842,0.0,0.0,0.0,0.0,0.0,0.0,0.0,0.0,0.0,0.0,-3.4284,-3.3857,-3.392,-3.3884,-3.3489,-3.3547,-3.3487,-3.3251,-3.3048,-3.2909,-3.2744,-3.2239,0.0,0.0,0.0,0.0,0.0,-3.041,-3.0462,-3.0748,-3.0432,-3.0441,-3.0605,-3.0449,-3.0215,-2.9961,0.0,0.0,0.0,0.0,0.0,0.0,0.0,-3.0216,-3.0595,-3.1675,-3.1754,-3.2133,-3.3166,-3.3281,-3.3281,-3.3281,0.0,0.0,0.0,0.0,0.0,0.0,0.0,0.0,-3.1928,-3.1928,-3.1928,-3.1928,-3.1928,-3.1928,-3.1928,-3.1928,-3.2303,-3.2973,-3.3215,-3.3776,0.0,0.0,0.0,0.0,0.0,0.0,0.0,0.0,0.0,0.0,0.0,0.0,0.0,0.0,0.0,0.0,0.0,0.0,0.0,0.0,0.0,0.0,0.0,-3.1772,-3.1618,-3.1618,-3.1373,-3.1127,-3.0879,-3.0609,0.0,-3.0047,-2.9994,-2.9952,-2.97,-3.0093,-3.0349,-3.0066,0.0,0.0,0.0,-3.1902,0.0,0.0,-3.363,0.0,0.0,0.0,0.0,0.0,0.0,0.0,0.0,0.0,-3.3762,-3.3725,-3.4082,-3.411,-3.3771,-3.3376,-3.3175,-3.3175,-3.2753,-3.2359,-3.201,-3.1946,0.0,0.0,0.0,0.0,0.0,-3.0389,-3.0422,-3.0354,-3.0237,-3.0176,-3.0107,-2.9717,-2.9551,-2.9521,0.0,0.0,0.0,0.0,0.0,0.0,0.0,0.0,0.0,0.0,-3.1813,-3.2156,-3.3178,-3.3281,-3.3281,0.0,0.0,0.0,0.0,0.0,0.0,0.0,0.0,0.0,-3.2925,-3.2925,-3.2925,-3.2925,-3.2925,-3.2925,-3.2925,-3.2925,-3.3131,-3.3531,-3.3777,-3.4191,0.0,0.0,0.0,0.0,0.0,0.0,0.0,0.0,0.0,0.0,-3.5705,-3.505,0.0,0.0,0.0,0.0,0.0,0.0,0.0,0.0,-3.2555,-3.2392,-3.1823,0.0,-3.1618,-3.1618,-3.1373,-3.1127,0.0,0.0,-3.0339,-3.0047,-2.9994,-2.9993,-3.0046,-3.0459,-3.0737,0.0,0.0,0.0,-3.2111,0.0,0.0,-3.3474,-3.333,0.0,0.0,0.0,0.0,0.0,0.0,0.0,0.0,0.0,-3.3221,-3.289,-3.2973,-3.3129,-3.3358,-3.2955,-3.2744,-3.2735,-3.234,-3.2093,-3.1983,-3.1359,0.0,0.0,0.0,0.0,0.0,-3.0424,-3.0335,-3.0227,-3.0234,-3.0,-2.9707,-2.96,-2.9355,-2.9072,0.0,0.0,0.0,0.0,0.0,0.0,0.0,0.0,0.0,0.0,0.0,0.0,0.0,0.0,0.0,0.0,0.0,0.0,0.0,0.0,0.0,0.0,0.0,-3.3281,-3.3281,-3.3281,-3.3281,-3.3281,-3.3281,-3.3281,-3.3281,-3.3281,-3.3381,-3.3542,-3.4012,-3.4454,0.0,0.0,0.0,0.0,-3.5848,0.0,0.0,0.0,0.0,0.0,-3.54,-3.4723,0.0,-3.3611,-3.3431,-3.3281,0.0,0.0,0.0,0.0,-3.2493,-3.2392,-3.1772,-3.1618,-3.1618,-3.1618,-3.1476,-3.1281,-3.0879,0.0,0.0,-3.0099,-2.9994,-3.0076,-3.036,-3.0704,-3.0878,0.0,-3.1104,0.0,0.0,0.0,-3.3053,-3.3727,0.0,0.0,0.0,0.0,0.0,0.0,0.0,0.0,0.0,0.0,-3.2826,-3.2597,-3.2423,-3.2524,-3.2927,-3.2533,-3.2322,-3.2322,-3.1726,-3.1442,-3.1423,-3.08,0.0,0.0,0.0,0.0,-3.0186,-3.0141,-3.0073,-2.9893,-2.9687,-2.9473,-2.9248,-2.9053,-2.8838,-2.8633,0.0,0.0,0.0,0.0,0.0,0.0,0.0,0.0,0.0,0.0,0.0,0.0,0.0,0.0,0.0,0.0,0.0,0.0,0.0,0.0,0.0,0.0,0.0,-3.3511,-3.3511,-3.3511,-3.3511,-3.3511,-3.3511,-3.3511,-3.3511,-3.3511,-3.3561,-3.3634,-3.424,-3.468,0.0,0.0,-3.5674,0.0,-3.6132,0.0,0.0,0.0,0.0,0.0,0.0,0.0,0.0,-3.3519,-3.3281,-3.3269,-3.3189,0.0,0.0,0.0,0.0,0.0,-3.1772,-3.1618,-3.1618,-3.1618,-3.1618,-3.1476,-3.0931,0.0,0.0,-3.0099,-2.9994,-3.016,-3.0698,-3.0928,0.0,0.0,0.0,0.0,-3.2023,-3.2432,-3.2998,0.0,0.0,0.0,0.0,0.0,0.0,0.0,0.0,0.0,0.0,0.0,0.0,-3.2322,-3.1992,-3.1946,-3.223,-3.1955,-3.1818,-3.1808,-3.1057,-3.0699,-3.069,-3.0348,0.0,0.0,0.0,0.0,-2.9824,-2.9756,-2.9637,-2.9434,-2.9062,-2.8877,-2.8779,-2.8428,-2.8291,-2.8291,0.0,0.0,0.0,0.0,0.0,0.0,0.0,0.0,0.0,0.0,0.0,0.0,0.0,0.0,0.0,0.0,0.0,0.0,0.0,0.0,0.0,-3.4578,-3.4567,-3.4567,-3.4567,-3.4567,-3.4567,-3.4567,-3.4567,-3.4567,-3.4567,-3.4567,-3.467,-3.4929,-3.501,-3.5252,-3.5458,-3.5592,-3.5885,-3.6238,-3.5862,0.0,0.0,0.0,0.0,0.0,0.0,0.0,0.0,-3.3354,-3.3281,-3.3201,-3.2753,0.0,0.0,0.0,0.0,0.0,-3.1772,-3.1618,-3.1618,-3.1618,-3.1618,-3.1476,-3.0931,-3.0786,0.0,0.0,0.0,0.0,0.0,-3.1329,-3.1474,0.0,0.0,-3.1821,0.0,0.0,0.0,0.0,0.0,0.0,0.0,0.0,0.0,0.0,0.0,0.0,0.0,0.0,0.0,-3.1093,-3.1011,-3.0846,-3.0571,-3.0837,-3.0974,-3.0974,-3.0506,-3.0296,-3.0277,-3.018,-3.0088,0.0,0.0,0.0,-2.9795,-2.9655,-2.9358,-2.9014,-2.8945,-2.8701,-2.8379,-2.831,-2.8291,-2.8291,0.0,0.0,0.0,0.0,0.0,0.0,0.0,0.0,0.0,0.0,0.0,0.0,0.0,0.0,0.0,0.0,0.0,0.0,0.0,0.0,0.0,-3.5187,-3.5451,-3.5347,-3.4819,-3.4796,-3.4796,-3.4796,-3.4796,-3.4796,-3.4796,-3.4796,-3.4849,-3.4964,-3.523,-3.545,-3.5555,-3.5555,-3.5683,-3.5857,0.0,0.0,0.0,0.0,0.0,0.0,0.0,0.0,0.0,0.0,-3.2856,-3.2764,-3.2259,0.0,0.0,0.0,0.0,0.0,-3.1387,-3.1422,-3.1618,-3.1618,-3.1618,-3.1476,-3.0931,-3.0786,-3.063,0.0,0.0,0.0,0.0,0.0,-3.1783,-3.1974,0.0,0.0,0.0,0.0,0.0,0.0,0.0,0.0,0.0,0.0,0.0,0.0,0.0,0.0,0.0,0.0,0.0,0.0,-3.0595,-3.0387,-3.0204,-3.0158,-3.025,-3.047,-3.0057,-2.9987,-3.017,-2.9874,-2.9864,-2.9924,0.0,-2.9621,-2.9279,-2.9241,-2.8965,-2.8584,-2.8584,-2.8467,-2.8291,-2.8291,-2.8291,-2.8291,0.0,0.0,0.0,0.0,0.0,0.0,0.0,0.0,0.0,0.0,0.0,0.0,0.0,0.0,0.0,0.0,0.0,0.0,0.0,0.0,-3.5359,-3.5359,-3.5726,-3.568,-3.5152,-3.5141,-3.5141,-3.5141,-3.5141,-3.5141,-3.5141,-3.5141,-3.5141,-3.5152,-3.5405,-3.552,-3.5508,-3.5393,-3.5359,-3.5313,0.0,0.0,0.0,0.0,0.0,0.0,0.0,0.0,0.0,0.0,0.0,0.0,0.0,0.0,0.0,-3.1021,-3.1233,-3.1555,-3.1047,-3.1247,-3.1618,-3.1618,-3.1618,-3.1476,-3.0931,-3.0912,-3.0831,-3.0265,-3.0522,0.0,0.0,-3.1899,0.0,-3.1967,0.0,0.0,0.0,0.0,0.0,0.0,0.0,0.0,0.0,0.0,0.0,0.0,0.0,0.0,0.0,0.0,0.0,0.0,-3.0303,-3.0073,-2.992,-2.9711,-2.9757,-3.0048,-2.9748,-2.9744,-2.9916,-2.9674,-2.9658,-2.9814,-2.9669,-2.9317,-2.8916,-2.8809,-2.8584,-2.8281,-2.8184,-2.8086,-2.8008,-2.8105,-2.8144,-2.8164,0.0,0.0,0.0,0.0,0.0,0.0,0.0,0.0,0.0,0.0,0.0,0.0,0.0,0.0,0.0,0.0,0.0,0.0,0.0,0.0,-3.4854,-3.4854,-3.4888,-3.5301,-3.614,-3.6162,-3.6162,-3.6162,-3.6162,-3.6162,-3.6162,-3.6162,-3.6162,-3.614,-3.5715,-3.552,-3.5485,-3.5049,-3.4854,-3.4808,-3.4268,0.0,0.0,0.0,0.0,0.0,0.0,0.0,0.0,0.0,0.0,0.0,0.0,0.0,-3.1497,-3.0557,-3.0964,-3.1555,-3.1047,-3.1247,-3.1618,-3.1618,-3.1618,-3.1476,-3.0931,-3.1157,-3.1296,-3.0743,-3.1008,-3.1464,0.0,-3.2308,0.0,0.0,0.0,0.0,0.0,0.0,0.0,0.0,0.0,0.0,0.0,0.0,0.0,0.0,0.0,0.0,0.0,0.0,0.0,0.0,0.0,-2.9763,-2.9076,-2.9387,-2.9573,-2.9617,-2.9563,-2.9487,-2.9537,-2.9717,-2.9795,-2.9785,-2.9199,-2.892,-2.8887,-2.8496,-2.832,-2.8252,-2.7861,-2.7461,-2.7158,-2.7559,-2.7767,-2.7826,0.0,0.0,0.0,0.0,0.0,0.0,0.0,0.0,0.0,0.0,0.0,0.0,0.0,0.0,0.0,0.0,0.0,0.0,0.0,-3.4027,-3.4303,-3.4303,-3.4624,-3.498,-3.5347,-3.5359,-3.5508,-3.5807,-3.6117,-3.632,-3.632,-3.632,-3.6105,-3.5795,-3.56,-3.5359,-3.5037,-3.4521,-3.4303,-3.4257,-3.3752,-3.3556,0.0,0.0,0.0,0.0,0.0,0.0,0.0,0.0,-3.1456,-3.1203,0.0,-3.0641,-3.0663,-2.9961,-3.0424,-3.1109,-3.0619,-3.104,-3.1618,-3.1618,-3.1859,-3.1943,-3.1358,-3.138,-3.1423,-3.1212,-3.1474,-3.1836,-3.1957,0.0,0.0,0.0,0.0,0.0,0.0,0.0,0.0,0.0,0.0,0.0,0.0,0.0,0.0,0.0,0.0,0.0,0.0,0.0,0.0,0.0,0.0,-2.9027,-2.8752,-2.8867,-2.8942,-2.8986,-2.9263,-2.9343,-2.925,-2.9326,-2.9341,-2.9228,-2.9008,-2.8769,-2.8516,-2.8359,-2.8135,-2.7861,-2.7432,-2.7168,-2.7031,-2.7197,-2.7266,-2.7285,0.0,0.0,0.0,0.0,0.0,0.0,0.0,0.0,0.0,0.0,0.0,0.0,0.0,0.0,0.0,0.0,0.0,0.0,-3.3281,-3.3591,-3.3775,-3.3775,-3.413,-3.4326,-3.4326,-3.4326,-3.4636,-3.529,-3.5634,-3.5807,-3.5807,-3.5807,-3.5623,-3.5279,-3.5118,-3.4854,-3.4521,-3.3993,-3.3775,-3.374,-3.3419,-3.3281,0.0,0.0,0.0,0.0,0.0,0.0,0.0,0.0,0.0,0.0,0.0,0.0,0.0,0.0,-3.0249,-3.0842,-3.0453,-3.0947,-3.1618,-3.1618,-3.2001,-3.2311,-3.1955,-3.1891,-3.1878,-3.179,-3.1882,-3.1988,-3.1988,-3.193,0.0,0.0,0.0,0.0,0.0,0.0,0.0,0.0,0.0,0.0,0.0,0.0,0.0,0.0,0.0,0.0,0.0,0.0,0.0,0.0,0.0,0.0,-2.8578,-2.8681,-2.8671,-2.8548,-2.9002,-2.9173,-2.9122,-2.9043,-2.8988,-2.8916,-2.8779,-2.8555,-2.8281,-2.8144,-2.7764,-2.7236,-2.6934,-2.6728,-2.6631,-2.6768,-2.6816,-2.6836,0.0,0.0,0.0,0.0,0.0,0.0,0.0,0.0,0.0,0.0,0.0,0.0,0.0,0.0,0.0,0.0,0.0,0.0,-3.3281,-3.3281,-3.3281,-3.3281,-3.3281,-3.3281,-3.3281,-3.3281,-3.3786,-3.4796,-3.4796,-3.4796,-3.4796,-3.4796,-3.4796,-3.4773,-3.4245,-3.4004,-3.3958,-3.3488,-3.3281,-3.3281,-3.3281,-3.3281,-3.3281,0.0,0.0,0.0,0.0,0.0,0.0,0.0,-3.0652,0.0,0.0,0.0,0.0,0.0,-3.0355,-3.0842,-3.0637,-3.1097,-3.1618,-3.1618,0.0,-3.245,-3.2577,-3.278,-3.2812,-3.2545,-3.2211,-3.1988,-3.1977,-3.1671,0.0,0.0,0.0,0.0,0.0,0.0,0.0,0.0,0.0,0.0,0.0,0.0,0.0,0.0,0.0,0.0,0.0,0.0,0.0,0.0,0.0,0.0,-2.8615,-2.8954,-2.8911,-2.8507,-2.8762,-2.8975,-2.9103,-2.8946,-2.8916,-2.8887,-2.8476,-2.8291,-2.8252,-2.7885,-2.7158,-2.6387,-2.6387,-2.6113,-2.5742,-2.6221,-2.6387,-2.6435,0.0,0.0,0.0,0.0,0.0,0.0,0.0,0.0,0.0,0.0,0.0,0.0,0.0,0.0,0.0,0.0,0.0,0.0,-3.2969,-3.3042,-3.3081,-3.3281,-3.3281,-3.3281,-3.3281,-3.3281,-3.3602,-3.4245,-3.4624,-3.4796,-3.4796,-3.4796,-3.4601,-3.4234,-3.4073,-3.3821,-3.3488,-3.3338,-3.3281,-3.3281,-3.3281,-3.3281,-3.3247,0.0,0.0,0.0,0.0,0.0,0.0,0.0,0.0,0.0,0.0,0.0,0.0,-2.9977,-3.0355,-3.0842,-3.0637,-3.1097,0.0,-3.1618,0.0,0.0,0.0,-3.2899,-3.2757,-3.2267,-3.2099,-3.1791,-3.1205,-3.0977,0.0,0.0,0.0,0.0,0.0,0.0,0.0,0.0,0.0,0.0,0.0,0.0,0.0,0.0,0.0,0.0,0.0,0.0,0.0,0.0,0.0,0.0,-2.8401,-2.8509,-2.8505,-2.8379,-2.8423,-2.8491,-2.8563,-2.8481,-2.8476,-2.8467,-2.834,-2.8125,-2.7793,-2.707,-2.6611,-2.6357,-2.6055,-2.5801,-2.5703,-2.584,-2.5937,-2.5898,0.0,0.0,0.0,0.0,0.0,0.0,0.0,0.0,0.0,0.0,-2.9428,-2.978,0.0,0.0,0.0,0.0,0.0,0.0,0.0,-3.2424,-3.2564,-3.2958,-3.3081,-3.3181,-3.3281,-3.3281,-3.343,-3.3717,-3.4039,-3.4199,-3.4199,-3.4199,-3.4027,-3.3717,-3.3717,-3.3556,-3.3281,-3.3281,-3.3281,-3.3258,-3.3051,-3.296,-3.2914,0.0,0.0,0.0,0.0,0.0,0.0,0.0,0.0,0.0,0.0,0.0,0.0,-3.0057,-3.0448,-3.0879,-3.0734,-3.1147,0.0,-3.1618,-3.2001,-3.2503,-3.2791,0.0,0.0,0.0,-3.1698,-3.1329,-3.0791,-3.0532,0.0,0.0,0.0,0.0,0.0,0.0,0.0,0.0,0.0,0.0,0.0,0.0,0.0,0.0,0.0,0.0,0.0,0.0,0.0,0.0,0.0,0.0,-2.7793,-2.7959,-2.7959,-2.7783,-2.7783,-2.7783,-2.7803,-2.8135,-2.8203,-2.8037,-2.7861,-2.7549,-2.7119,-2.6602,-2.6289,-2.6103,-2.5791,-2.5693,-2.5693,-2.5693,-2.5693,-2.5693,0.0,0.0,0.0,0.0,0.0,0.0,0.0,0.0,0.0,0.0,-2.8571,-2.9004,0.0,0.0,0.0,0.0,0.0,0.0,0.0,0.0,-3.186,-3.2404,-3.2695,-3.2992,-3.3281,-3.3281,-3.3281,-3.3281,-3.3281,-3.3281,-3.3281,-3.3281,-3.3281,-3.3281,-3.3281,-3.3281,-3.3281,-3.3235,-3.3212,-3.3166,-3.2627,-3.242,-3.2363,-3.1928,0.0,0.0,0.0,0.0,0.0,0.0,0.0,0.0,0.0,0.0,-3.0216,-3.0216,-3.0519,-3.0879,-3.0879,0.0,0.0,-3.1618,-3.2001,0.0,-3.2523,-3.264,-3.263,-3.202,0.0,-3.0677,-3.0626,0.0,0.0,0.0,0.0,0.0,0.0,0.0,0.0,0.0,0.0,0.0,0.0,0.0,0.0,0.0,0.0,0.0,0.0,0.0,0.0,0.0,0.0,0.0,-2.7021,-2.7402,0.0,0.0,-2.7012,-2.7012,-2.7041,-2.7822,-2.7969,-2.764,-2.7148,-2.6738,-2.6387,-2.6348,-2.6094,-2.5693,-2.5693,-2.5693,-2.5693,-2.5693,-2.5693,-2.5693,0.0,0.0,0.0,0.0,0.0,0.0,0.0,0.0,0.0,0.0,0.0,0.0,0.0,0.0,0.0,0.0,0.0,0.0,0.0,0.0,-3.116,-3.1849,-3.2342,-3.2718,-3.2992,-3.2992,-3.3092,-3.3281,-3.3281,-3.3281,-3.3281,-3.3281,-3.3281,-3.3281,-3.3281,-3.3281,-3.3258,-3.2833,-3.2661,-3.2615,-3.217,-3.1974,-3.1917,-3.1364,-3.1111,0.0,0.0,0.0,0.0,0.0,0.0,0.0,-3.0216,-3.0216,-3.0216,-3.0216,-3.0519,-3.0879,0.0,-3.1246,0.0,0.0,-3.2001,-3.2352,-3.2123,-3.1891,-3.1699,-3.1334,-3.0973,-3.0574,0.0,0.0,0.0,0.0,0.0,0.0,0.0,0.0,0.0,0.0,0.0,0.0,0.0,0.0,0.0,0.0,0.0,0.0,0.0,0.0,0.0,0.0,0.0,-2.7109,-2.7012,-2.7109,-2.7109,0.0,-2.7012,-2.7012,-2.7021,-2.7207,-2.7246,-2.7139,-2.6709,-2.6475,-2.6367,-2.6016,-2.5771,-2.5693,-2.5693,-2.5693,-2.5693,-2.5693,-2.5693,-2.5732,0.0,0.0,0.0,0.0,0.0,0.0,0.0,0.0,0.0,0.0,0.0,0.0,0.0,0.0,0.0,0.0,0.0,0.0,0.0,0.0,0.0,-3.1138,-3.1455,-3.1699,-3.1995,-3.2194,-3.2467,-3.2704,-3.2955,-3.3181,-3.3281,-3.3281,-3.3281,-3.3281,-3.3281,-3.3143,-3.2879,-3.2604,-3.2351,-3.2099,-3.1605,-3.141,-3.1352,-3.0824,-3.0629,-3.0595,-3.0319,0.0,0.0,0.0,0.0,0.0,0.0,0.0,-3.0216,-3.0216,-3.035,-3.0625,0.0,0.0,0.0,0.0,0.0,-3.1971,-3.1804,-3.1544,-3.1272,-3.1032,-3.0611,0.0,0.0,0.0,0.0,0.0,0.0,0.0,0.0,0.0,0.0,0.0,0.0,0.0,0.0,0.0,0.0,0.0,0.0,0.0,0.0,0.0,0.0,0.0,0.0,0.0,-2.6356,-2.6611,-2.6652,-2.6586,-2.6586,-2.6645,-2.6755,-2.6722,-2.6709,-2.6689,-2.626,-2.6074,-2.6064,-2.5918,-2.5868,-2.5917,-2.6024,-2.6072,-2.6072,-2.6072,-2.6072,-2.612,0.0,0.0,0.0,0.0,0.0,0.0,0.0,0.0,0.0,0.0,0.0,0.0,0.0,0.0,0.0,0.0,0.0,0.0,0.0,0.0,0.0,-3.0396,-3.0495,-3.0637,-3.0927,-3.133,-3.1629,-3.1924,-3.2354,-3.273,-3.2979,-3.3201,-3.3281,-3.3281,-3.3189,-3.2902,-3.2466,-3.2305,-3.1995,-3.1641,-3.1077,-3.0882,-3.0824,-3.0388,-3.0216,-3.0216,-3.0216,-3.0216,-3.0216,-3.0216,0.0,0.0,0.0,0.0,-3.0216,-3.0216,-3.0215,-3.0326,0.0,0.0,0.0,0.0,0.0,0.0,0.0,-3.1373,0.0,0.0,0.0,0.0,0.0,0.0,0.0,0.0,0.0,0.0,0.0,0.0,0.0,0.0,0.0,0.0,0.0,0.0,0.0,0.0,0.0,0.0,0.0,0.0,0.0,0.0,0.0,-2.6251,-2.5839,-2.6241,-2.633,-2.6149,-2.6149,-2.6304,-2.6516,-2.6448,-2.6418,-2.6399,-2.5986,-2.583,-2.5878,-2.61,-2.6149,-2.6197,-2.64,-2.6496,-2.6496,-2.6496,-2.6496,-2.6496,0.0,0.0,0.0,0.0,0.0,0.0,0.0,0.0,0.0,0.0,-2.7299,-2.7404,0.0,0.0,0.0,0.0,0.0,0.0,-2.8528,0.0,0.0,-2.9624,-3.004,-3.0405,-3.0637,-3.0703,-3.0882,-3.1162,-3.1229,-3.1371,-3.1706,-3.2769,-3.3281,-3.3258,-3.2799,-3.2546,-3.2431,-3.157,-3.118,-3.1065,-3.0537,-3.0331,-3.0319,-3.025,-3.0216,-3.0216,-3.0216,-3.0216,-3.0216,-3.0216,-3.0216,0.0,0.0,0.0,-3.0216,-3.0216,-3.0342,-3.0518,0.0,0.0,0.0,0.0,0.0,0.0,0.0,0.0,0.0,0.0,0.0,0.0,0.0,0.0,0.0,0.0,0.0,0.0,0.0,0.0,0.0,0.0,0.0,0.0,0.0,0.0,0.0,0.0,0.0,0.0,0.0,0.0,-2.6448,-2.6448,-2.646,0.0,-2.64,-2.646,-2.646,-2.6448,-2.6448,-2.6448,-2.6496,-2.6518,-2.649,-2.649,-2.643,-2.64,-2.64,-2.6448,-2.6448,-2.6448,-2.6496,-2.6496,-2.6496,-2.6496,-2.6496,-2.6544,0.0,0.0,0.0,0.0,0.0,0.0,0.0,0.0,0.0,0.0,0.0,-2.7309,0.0,0.0,0.0,-2.7773,-2.7867,-2.8066,-2.8395,-2.8683,-2.8943,-2.9121,-2.9328,-2.9485,-2.958,-2.9855,-3.0131,-3.0359,-3.0648,-3.0927,-3.1179,-3.1885,-3.2334,-3.2469,-3.2227,-3.1926,-3.1628,-3.1203,-3.0847,-3.0549,-3.0308,-3.0216,-3.0216,-3.0216,-3.0216,-3.0216,-3.0216,-3.0216,-3.0216,-3.0216,-3.0216,-3.0216,-3.0216,0.0,0.0,0.0,-3.0205,-3.0167,-3.0086,0.0,0.0,0.0,0.0,0.0,0.0,0.0,0.0,0.0,0.0,0.0,0.0,0.0,0.0,0.0,0.0,0.0,0.0,0.0,0.0,0.0,0.0,0.0,0.0,0.0,0.0,0.0,0.0,0.0,0.0,-2.6794,-2.6699,-2.6699,-2.6602,0.0,-2.6496,-2.6496,-2.6423,-2.6324,-2.6502,-2.6539,-2.6539,-2.6539,-2.654,-2.6496,-2.6496,-2.6496,-2.6496,-2.6651,-2.6699,-2.6747,-2.688,-2.6928,-2.6928,-2.6928,-2.6928,-2.6976,0.0,0.0,0.0,0.0,0.0,0.0,0.0,0.0,0.0,0.0,0.0,0.0,0.0,0.0,0.0,0.0,-2.7584,-2.782,-2.8243,-2.8348,-2.8488,-2.871,-2.8757,-2.8803,-2.8803,-2.9153,-2.9434,-2.9623,-2.9987,-3.026,-3.0499,-3.0796,-3.1045,-3.134,-3.1525,-3.1364,-3.1008,-3.087,-3.0583,-3.0216,-3.0216,-3.0216,-3.0216,-3.0216,-3.0216,-3.0216,-3.0216,-3.0216,-3.0216,-3.0216,-3.0216,-3.0216,-3.0216,-3.0216,0.0,0.0,0.0,-2.9885,0.0,0.0,0.0,0.0,0.0,0.0,0.0,0.0,0.0,0.0,0.0,0.0,0.0,0.0,0.0,0.0,0.0,0.0,0.0,0.0,0.0,0.0,0.0,0.0,0.0,0.0,0.0,0.0,0.0,0.0,-2.7309,-2.7129,-2.6986,-2.6986,-2.6794,-2.6638,-2.6516,-2.6405,-2.6276,-2.6136,-2.6357,-2.6438,-2.6438,-2.6438,-2.6465,-2.6516,-2.6638,-2.6688,-2.6736,-2.6938,-2.6986,-2.7034,-2.7214,-2.7309,-2.7309,-2.7309,-2.7309,-2.7309,0.0,0.0,0.0,0.0,0.0,0.0,0.0,0.0,0.0,0.0,0.0,-2.7309,-2.7309,-2.7309,-2.7309,-2.7309,-2.7489,-2.7726,-2.7998,-2.8243,-2.8395,-2.8441,-2.8664,0.0,-2.8803,-2.8825,-2.8836,-2.8836,-2.8858,-2.902,-2.9205,-2.9472,-2.9713,-3.0034,-3.0743,-3.1042,-3.0985,-3.0468,-3.025,-3.0216,-3.0216,-3.0216,-3.0216,-3.0216,-3.0216,-3.0216,-3.0216,-3.0216,-3.0216,-3.0216,-3.0216,-3.0216,-3.0216,-3.0216,-3.0216,0.0,0.0,0.0,0.0,-2.9724,0.0,0.0,0.0,0.0,0.0,0.0,0.0,0.0,0.0,0.0,0.0,0.0,0.0,0.0,0.0,0.0,0.0,0.0,0.0,0.0,0.0,0.0,0.0,0.0,0.0,0.0,0.0,0.0,-2.7309,-2.7309,-2.7262,-2.7262,-2.7262,-2.7044,-2.661,-2.6165,-2.5937,-2.5916,-2.5916,-2.5962,-2.5962,-2.5962,-2.6165,-2.663,-2.7065,-2.7262,-2.7262,-2.7262,-2.7262,-2.7262,-2.7309,-2.7309,-2.7309,-2.7309,-2.7309,-2.7309,0.0,0.0,0.0,0.0,0.0,0.0,0.0,0.0,0.0,0.0,0.0,0.0,0.0,-2.7309,-2.7309,-2.7309,-2.7076,-2.6925,-2.6897,-2.7115,-2.7482,-2.792,-2.8161,-2.844,-2.8792,-2.8803,-2.8803,-2.8803,-2.8803,-2.885,-2.8896,-2.9128,-2.9405,-2.9691,-3.0228,-3.0503,-3.0491,-3.0296,-3.0216,-3.0216,-3.0216,-3.0216,-3.0216,-3.0216,-3.0216,-3.0216,-3.0216,-3.0216,-3.0216,-3.0216,-3.0216,-3.0216,-3.0216,-3.0216,-3.0158,-2.9848,-2.9349,-2.8877,-2.8589,0.0,0.0,0.0,0.0,0.0,0.0,0.0,0.0,0.0,0.0,0.0,0.0,0.0,0.0,0.0,0.0,0.0,0.0,0.0,0.0,0.0,0.0,0.0,0.0,0.0,0.0,0.0,0.0,0.0,-2.7309,-2.7309,-2.7164,-2.6874,-2.6864,-2.6646,-2.6179,-2.5958,-2.574,-2.5461,-2.5461,-2.5461,-2.5461,-2.5461,-2.5865,-2.6625,-2.6791,-2.7029,-2.7309,-2.7309,-2.7309,-2.7309,-2.7309,-2.7309,-2.7309,-2.7309,-2.7309,-2.7309,0.0,0.0,0.0,0.0,0.0,0.0,0.0,0.0,-2.7177,-2.7177,0.0,0.0,0.0,0.0,-2.7247,-2.7092,-2.6656,-2.6298,-2.6187,-2.6391,-2.6753,-2.7289,-2.7525,-2.7934,-2.8506,-2.8517,-2.8639,-2.8803,-2.8803,-2.8803,-2.8803,-2.8989,-2.9255,-2.9531,-2.9909,-3.0136,-3.0216,-3.0216,-3.0216,-3.0216,-3.0216,-3.0216,-3.0216,-3.0216,-3.0216,-3.0216,-3.0216,-3.0216,-3.0216,-3.0216,-3.0216,-3.0216,-3.0216,-3.0101,-2.9917,-2.9596,-2.9049,-2.8421,-2.8094,-2.8132,0.0,0.0,0.0,0.0,0.0,0.0,0.0,0.0,0.0,0.0,0.0,0.0,0.0,0.0,0.0,0.0,0.0,0.0,0.0,0.0,0.0,0.0,0.0,0.0,0.0,0.0,0.0,0.0,-2.7081,-2.7081,-2.6864,-2.6397,-2.6196,-2.5968,-2.5668,-2.5513,-2.5285,-2.4962,-2.4962,-2.4962,-2.4962,-2.4962,-2.5409,-2.6134,-2.6324,-2.6739,-2.7309,-2.7309,-2.7309,-2.7309,-2.7309,-2.7309,-2.7309,-2.7309,-2.7309,-2.7309,0.0,0.0,0.0,0.0,0.0,0.0,0.0,0.0,-2.69,-2.69,0.0,0.0,0.0,0.0,0.0,-2.6635,-2.6179,-2.591,-2.5844,-2.6124,-2.6359,-2.6549,-2.6806,-2.73,-2.7969,-2.798,-2.8244,-2.876,-2.876,-2.8771,-2.8781,-2.8967,-2.9198,-2.9485,-2.9794,-3.0011,-3.017,-3.0216,-3.0216,-3.0216,-3.0216,-3.0216,-3.0216,-3.0216,-3.0216,-3.0216,-3.0216,-3.0216,-3.0216,-3.0216,-3.0216,-3.0216,-3.0216,-2.9871,-2.9481,-2.9481,-2.9091,-2.8568,0.0,0.0,0.0,-2.7382,0.0,0.0,0.0,0.0,0.0,0.0,0.0,0.0,0.0,0.0,0.0,0.0,0.0,0.0,0.0,0.0,0.0,0.0,0.0,0.0,0.0,0.0,0.0,0.0,0.0,-2.7081,-2.6625,-2.6584,-2.6366,-2.592,-2.543,-2.5213,-2.5213,-2.4767,-2.4497,-2.4497,-2.4497,-2.4497,-2.4497,-2.4497,-2.4755,-2.521,-2.5678,-2.6428,-2.7289,-2.7299,-2.7309,-2.7309,-2.7309,-2.7309,-2.7309,-2.7309,-2.7309,-2.7309,0.0,0.0,0.0,0.0,0.0,-2.6197,-2.6197,-2.6448,-2.6699,0.0,0.0,0.0,-2.7262,-2.7309,-2.6988,-2.6144,-2.5947,-2.5606,-2.491,-2.5119,-2.5439,-2.5874,-2.629,-2.6724,-2.7278,-2.7423,-2.7577,-2.7708,-2.7708,-2.7894,-2.8244,-2.8289,-2.8602,-2.922,-2.9497,-2.9737,-2.9966,-3.0136,-3.0216,-3.0216,-3.0216,-3.0216,-3.0216,-3.0216,-3.0216,-3.0216,-3.0216,-3.0216,-3.0216,-3.0216,-3.0216,-3.0216,-3.0216,-2.9619,-2.8919,-2.8919,-2.8182,-2.7342,-2.7037,0.0,0.0,0.0,0.0,0.0,0.0,0.0,0.0,0.0,0.0,0.0,0.0,0.0,0.0,0.0,0.0,0.0,0.0,0.0,0.0,0.0,0.0,0.0,0.0,0.0,0.0,0.0,0.0,-2.7077,-2.6647,-2.6264,-2.6011,-2.5885,-2.5431,-2.5189,-2.5189,-2.5051,-2.4999,-2.4988,-2.4871,-2.4786,-2.4786,-2.4583,-2.4755,-2.5199,-2.5357,-2.5927,-2.6832,-2.7164,-2.7309,-2.7309,-2.7309,-2.7309,-2.7309,-2.7309,-2.7309,-2.7309,0.0,0.0,0.0,0.0,0.0,-2.5917,-2.5917,-2.6159,-2.6448,0.0,0.0,0.0,-2.7262,-2.7133,-2.6801,-2.6262,-2.5823,-2.5388,-2.4817,-2.4772,-2.4901,-2.5303,-2.5583,-2.6022,-2.6714,-2.6812,-2.7031,-2.7315,-2.7315,-2.7457,-2.7696,-2.7696,-2.7984,-2.853,-2.8779,-2.9128,-2.9625,-2.9827,-3.0032,-3.0216,-3.0216,-3.0216,-3.0216,-3.0216,-3.0216,-3.0216,-3.0216,-3.0216,-3.0216,-3.0216,-3.0216,-3.0216,-3.0216,-2.9515,-2.87,-2.87,-2.7832,-2.685,-2.6644,-2.6596,-2.6554,-2.6364,0.0,0.0,-2.7031,-2.7347,0.0,0.0,0.0,0.0,0.0,0.0,0.0,0.0,0.0,0.0,0.0,0.0,0.0,0.0,0.0,0.0,0.0,0.0,0.0,0.0,-2.703,-2.6783,-2.6349,-2.587,-2.5615,-2.5615,-2.5338,-2.52,-2.52,-2.52,-2.52,-2.52,-2.5073,-2.5031,-2.5031,-2.4871,-2.4932,-2.5204,-2.5315,-2.5761,-2.6447,-2.6869,-2.7133,-2.7309,-2.7309,-2.7309,-2.7309,-2.7309,-2.7309,-2.7309,0.0,0.0,-2.5693,-2.5693,-2.5693,-2.5693,-2.5693,-2.5917,-2.6149,0.0,-2.6699,-2.6986,-2.7262,-2.6936,-2.6677,-2.6615,-2.5844,-2.5292,-2.5199,-2.4807,-2.4677,-2.4861,-2.4861,-2.5274,-2.6152,-2.6206,-2.6531,-2.7107,-2.7107,-2.7184,-2.7239,-2.7239,-2.736,-2.7646,-2.7887,-2.8386,-2.9137,-2.936,-2.9735,-3.017,-3.017,-3.0216,-3.0216,-3.0216,-3.0216,-3.0216,-3.0216,-3.0216,-3.0216,-3.0216,-3.0216,-3.0216,-3.0216,-2.9515,-2.87,-2.8657,-2.7832,-2.6809,-2.6603,-2.6354,-2.6104,-2.5937,-2.6223,0.0,-2.6508,-2.6911,0.0,0.0,0.0,0.0,0.0,0.0,0.0,0.0,0.0,0.0,0.0,0.0,0.0,0.0,0.0,0.0,0.0,0.0,0.0,-2.6628,-2.6542,-2.6329,-2.5946,-2.5509,-2.5285,-2.5285,-2.5285,-2.5285,-2.5285,-2.5285,-2.5285,-2.5285,-2.5242,-2.5242,-2.5242,-2.52,-2.52,-2.5221,-2.5431,-2.5786,-2.6193,-2.6483,-2.689,-2.7309,-2.7309,-2.7309,-2.7309,-2.7309,-2.7347,-2.7394,0.0,-2.5693,-2.5693,-2.5693,-2.5693,-2.5693,-2.5693,-2.5732,-2.5868,-2.6149,-2.6602,-2.6986,-2.7262,-2.7226,-2.7019,-2.6646,-2.6413,-2.5999,-2.523,-2.5106,-2.4933,-2.4593,-2.4786,-2.4988,-2.5168,-2.553,-2.5796,-2.5925,-2.6084,-2.6376,-2.6726,-2.6726,-2.6966,-2.7403,-2.7635,-2.8044,-2.8578,-2.9037,-2.9511,-2.9977,-3.0136,-3.0216,-3.0216,-3.0216,-3.0216,-3.0216,-3.0216,-3.0216,-3.0216,-3.0216,-3.0216,-3.0216,-3.0216,-2.9515,-2.8657,-2.8507,-2.7589,-2.6603,-2.6354,-2.6104,-2.5948,-2.5895,-2.5972,0.0,-2.6037,-2.642,-2.6726,0.0,0.0,0.0,0.0,0.0,0.0,0.0,0.0,0.0,0.0,0.0,0.0,0.0,0.0,0.0,0.0,0.0,-2.7095,-2.6628,-2.6227,-2.6009,-2.5911,-2.5824,-2.577,-2.577,-2.577,-2.577,-2.577,-2.577,-2.577,-2.577,-2.5601,-2.5517,-2.5517,-2.5285,-2.52,-2.52,-2.5253,-2.5518,-2.5985,-2.6417,-2.6886,-2.7309,-2.7309,-2.7404,-2.7536,-2.7536,-2.7678,-2.7857,-2.5693,-2.5693,-2.5693,-2.5693,-2.5693,-2.5693,-2.5693,-2.5693,-2.5781,-2.6052,-2.6554,-2.6948,-2.7081,-2.7214,-2.7216,-2.6978,-2.675,-2.6382,-2.5927,-2.5482,-2.5086,-2.4848,-2.474,-2.4786,-2.4903,-2.5126,-2.5391,-2.5601,-2.5686,-2.5942,-2.6267,-2.6267,-2.6387,-2.6605,-2.6831,-2.7236,-2.7734,-2.8331,-2.8913,-2.9398,-2.9988,-3.0216,-3.0216,-3.0216,-3.0216,-3.0216,-3.0216,-3.0136,-3.0057,-3.0057,-2.9954,-2.9852,-2.9852,-2.916,-2.8311,-2.8236,-2.7334,-2.6354,-2.624,-2.6074,-2.5895,-2.5895,-2.5895,0.0,0.0,-2.6092,-2.6267,0.0,0.0,0.0,0.0,0.0,0.0,0.0,0.0,0.0,0.0,0.0,0.0,0.0,0.0,0.0,0.0,0.0,-2.678,-2.6299,-2.6037,-2.5797,-2.5546,-2.5535,-2.5437,-2.5207,-2.5196,-2.5196,-2.5196,-2.5415,-2.5535,-2.5546,-2.5703,-2.5728,-2.5728,-2.5591,-2.5549,-2.5549,-2.5422,-2.5648,-2.6075,-2.6468,-2.6893,-2.7327,-2.7537,-2.7715,-2.7809,-2.7809,-2.7857,-2.7998,-2.5693,-2.5693,-2.5693,-2.5693,-2.5693,-2.5693,-2.5693,-2.5693,-2.5781,-2.6052,-2.6496,-2.6805,-2.69,-2.7081,-2.7262,-2.7309,-2.6967,-2.6708,-2.6625,-2.5896,-2.5451,-2.5357,-2.4879,-2.476,-2.4954,-2.4913,-2.5084,-2.5475,-2.5517,-2.5644,-2.5853,-2.5853,-2.5853,-2.5906,-2.6074,-2.6422,-2.695,-2.7643,-2.8221,-2.8813,0.0,-3.008,-3.008,-3.008,-3.008,-3.008,-3.008,-2.9954,-2.984,-2.984,-2.9691,-2.9485,-2.9485,-2.8802,-2.8007,-2.7974,-2.7121,-2.6199,-2.6146,-2.6032,-2.5895,-2.5895,-2.5895,-2.5895,0.0,0.0,0.0,0.0,0.0,0.0,0.0,0.0,0.0,0.0,0.0,0.0,0.0,0.0,0.0,0.0,0.0,0.0,0.0,0.0,-2.6059,-2.5655,-2.5633,-2.5459,-2.5106,-2.5084,-2.4869,-2.4497,-2.4486,-2.4486,-2.4486,-2.4898,-2.5128,-2.5215,-2.5568,-2.5808,-2.5895,-2.5895,-2.5895,-2.5906,-2.5728,-2.586,-2.6163,-2.6462,-2.6899,-2.7334,-2.7832,-2.8034,-2.8092,-2.8092,-2.8092,-2.8128,-2.5693,-2.5693,-2.5693,-2.5693,-2.5693,-2.5693,-2.5693,-2.5693,-2.5781,-2.6052,-2.6149,-2.6342,-2.6853,-2.6948,-2.7034,-2.7262,-2.7258,-2.705,-2.6646,-2.6521,-2.6283,-2.5823,-2.5388,-2.515,-2.515,-2.4995,-2.4946,-2.4988,-2.5158,-2.538,-2.5644,-2.5644,-2.5728,-2.5895,-2.5937,-2.6211,-2.6703,-2.7403,-2.8011,0.0,-2.9284,-2.9577,0.0,-2.9577,-2.9577,-2.9577,-2.9577,-2.9577,-2.9542,-2.9542,-2.9531,-2.9485,-2.9485,-2.8802,-2.7963,-2.7778,-2.7004,-2.6157,-2.5979,-2.5906,-2.5895,-2.5895,-2.5895,-2.5895,-2.5895,0.0,-2.5895,-2.5895,0.0,0.0,0.0,0.0,0.0,0.0,0.0,0.0,0.0,0.0,0.0,0.0,0.0,0.0,0.0,0.0,0.0,-2.465,-2.465,-2.4628,-2.4574,-2.4563,-2.4541,-2.4486,-2.4486,-2.4486,-2.4486,-2.4541,-2.477,-2.5215,-2.527,-2.548,-2.5895,-2.5895,-2.5895,-2.5895,-2.5864,-2.5886,-2.5973,-2.6421,-2.6889,-2.7356,-2.7832,-2.8149,-2.8348,-2.8348,-2.8524,-2.871,-2.5693,-2.5693,-2.5693,-2.5693,-2.5693,-2.5693,-2.5693,-2.5947,-2.6163,-2.6251,-2.6596,-2.6953,-2.7162,-2.7469,-2.7725,-2.7813,-2.795,-2.7852,-2.7386,-2.7164,-2.6812,-2.6345,-2.5844,-2.5492,-2.5199,-2.5124,-2.5015,-2.4903,-2.4988,-2.5158,-2.538,-2.5517,-2.5654,-2.5728,-2.5853,-2.6016,-2.6234,0.0,-2.7327,0.0,0.0,-2.8828,0.0,-2.9393,-2.9485,-2.9485,-2.9485,-2.9393,-2.9255,0.0,-2.9174,-2.9071,-2.9071,-2.8397,-2.758,-2.7503,-2.6778,-2.6032,-2.5937,-2.5895,-2.5895,-2.5895,-2.5895,-2.5895,-2.5895,-2.5895,-2.5895,-2.5895,0.0,0.0,0.0,0.0,0.0,0.0,-2.5087,0.0,0.0,0.0,0.0,0.0,0.0,0.0,0.0,0.0,0.0,0.0,0.0,-2.4355,-2.4061,-2.405,-2.3919,-2.3635,-2.3624,-2.3624,-2.3624,-2.3908,-2.429,-2.4821,-2.5084,-2.5426,-2.5895,-2.5895,-2.5895,-2.5895,-2.5895,-2.5895,-2.5939,-2.6431,-2.6857,-2.7336,-2.7841,-2.8275,-2.8617,-2.8617,-2.871,-2.8803,-2.5538,-2.5645,-2.5693,-2.5693,-2.5693,-2.5732,-2.5849,-2.6182,-2.6426,-2.6543,-2.6968,-2.7298,-2.7399,-2.7763,-2.8026,-2.8187,-2.8378,-2.8373,-2.8131,-2.7686,-2.7293,-2.6951,-2.6382,-2.5916,-2.5606,-2.5313,-2.5155,-2.4974,-2.4838,-2.4903,-2.5115,-2.5295,-2.5475,-2.5612,-2.5728,-2.5853,-2.5928,0.0,-2.6857,-2.7348,-2.7794,-2.8331,-2.885,-2.9163,-2.9301,-2.9301,-2.9301,-2.9163,-2.9035,-2.9035,-2.8943,0.0,-2.8803,-2.8091,-2.7315,-2.7315,-2.6638,-2.5895,-2.5895,-2.5895,-2.5895,-2.5895,-2.5895,-2.5895,-2.5895,-2.5895,-2.5895,-2.5895,-2.5895,0.0,0.0,0.0,-2.5171,-2.5051,0.0,-2.4279,0.0,0.0,0.0,0.0,0.0,0.0,0.0,0.0,0.0,0.0,-2.4082,0.0,-2.3509,-2.3487,-2.3362,-2.3012,-2.3001,-2.3001,-2.3001,-2.3351,-2.3787,-2.429,-2.476,-2.5229,-2.571,-2.5841,-2.5895,-2.5895,-2.5895,-2.5895,-2.5928,-2.6289,-2.678,-2.7348,-2.7664,-2.8211,-2.8803,-2.8803,-2.8803,-2.8803,-2.5333,-2.5538,-2.5693,-2.5693,-2.5693,-2.583,-2.6309,-2.6377,-2.6533,-2.6943,-2.7002,-2.7114,-2.7389,-2.744,-2.7652,-2.8127,-2.8237,-2.8328,-2.8547,-2.8152,-2.7893,-2.7883,-2.7024,-2.6584,-2.6573,-2.5678,-2.5179,-2.5213,-2.4757,-2.4658,-2.4903,-2.4903,-2.5168,-2.5601,-2.5612,-2.5728,-2.5928,-2.6377,-2.6857,-2.7348,-2.7794,-2.8331,-2.8803,0.0,-2.8803,-2.8803,-2.8803,0.0,0.0,-2.8803,-2.8803,0.0,0.0,0.0,0.0,0.0,0.0,0.0,0.0,0.0,0.0,-2.5895,0.0,0.0,-2.5895,-2.5895,-2.5895,-2.5895,-2.5895,-2.5753,-2.5325,-2.5226,-2.5073,-2.4585,-2.4082,0.0,0.0,0.0,0.0,0.0,0.0,0.0,0.0,0.0,0.0,0.0,-2.3045,0.0,-2.3023,-2.3023,-2.3012,-2.3001,-2.3001,-2.3001,-2.3001,-2.3012,-2.3274,-2.3716,-2.4268,-2.4749,-2.5248,-2.5677,-2.5895,-2.5895,-2.5895,-2.5895,-2.5895,-2.5917,-2.6474,-2.7315,-2.7337,-2.7916,-2.8803,-2.8803,-2.8803,-2.8803,-2.5284,-2.5538,-2.5693,-2.5693,-2.5693,-2.584,-2.6328,-2.6875,-2.7285,-2.7432,-2.7685,-2.7914,-2.8009,-2.8177,-2.8334,-2.8501,-2.8699,-2.8724,-2.8533,-2.8523,-2.8276,-2.7672,-2.7538,-2.7179,-2.6625,-2.5968,-2.5513,-2.5189,-2.4724,-2.454,-2.4625,-2.4818,-2.4988,-2.5126,-2.5295,-2.5464,0.0,0.0,0.0,0.0,0.0,-2.8661,-2.8803,0.0,0.0,-2.8803,-2.8803,-2.8803,0.0,-2.8803,-2.8803,-2.8749,-2.8386,-2.7839,-2.725,-2.6955,-2.6409,0.0,0.0,0.0,-2.5895,-2.5895,0.0,0.0,0.0,0.0,-2.5895,-2.5895,-2.5895,-2.5753,-2.5303,-2.4964,-2.4563,-2.4061,-2.3569,-2.3143,0.0,0.0,0.0,0.0,0.0,0.0,0.0,0.0,0.0,-2.2062,-2.2368,-2.2553,0.0,-2.2837,-2.3001,-2.3001,-2.3001,-2.3001,-2.3001,-2.3001,-2.3252,-2.3694,-2.4246,-2.4767,-2.5237,-2.5677,-2.5895,-2.5895,-2.5895,-2.5895,-2.5895,-2.5895,-2.6278,-2.6889,-2.7195,-2.7708,-2.832,-2.8683,-2.8803,-2.8803,-2.5576,-2.5835,-2.5994,-2.5947,-2.6094,-2.6338,-2.6777,-2.7366,-2.7767,-2.7871,-2.8252,-2.8516,-2.8516,-2.8824,-2.9085,-2.9139,-2.9206,-2.9156,-2.8971,-2.8825,-2.8492,-2.7854,-2.7815,-2.751,-2.6934,-2.6398,-2.5906,-2.5461,-2.4962,-2.4662,-2.4497,-2.4658,-2.4828,-2.4903,-2.5031,-2.5253,-2.5464,-2.5464,-2.6141,0.0,0.0,-2.8803,0.0,0.0,-2.8803,-2.8803,0.0,-2.8803,-2.8803,-2.8803,-2.8683,-2.8451,-2.81,-2.7544,-2.7009,-2.6671,-2.6289,-2.5895,-2.5895,-2.5895,0.0,-2.5895,-2.5895,0.0,-2.5895,0.0,-2.5895,0.0,-2.5764,-2.5491,-2.5022,-2.4541,-2.4061,-2.3509,-2.3067,-2.2531,0.0,-2.1527,0.0,0.0,0.0,0.0,0.0,0.0,-2.1592,-2.1592,-2.1876,-2.2062,0.0,0.0,-2.2761,-2.2761,-2.2914,-2.3001,-2.3001,-2.3001,-2.3154,-2.3482,-2.4159,-2.465,-2.4956,-2.56,-2.5895,-2.5895,-2.5895,-2.5895,-2.5895,-2.5895,-2.619,-2.6617,-2.6911,-2.7424,-2.8056,-2.8617,-2.8803,-2.8803,-2.613,-2.6458,-2.6608,-2.6473,-2.6787,-2.7187,-2.765,-2.7748,-2.7924,-2.8271,-2.8691,-2.8945,-2.8945,-2.9316,-2.9682,-2.997,-2.9604,-2.952,-2.9752,-2.9021,-2.8528,-2.8488,-2.7874,-2.7545,-2.7455,-2.6923,-2.6372,-2.5916,-2.5406,-2.4962,-2.4528,-2.4507,-2.4625,-2.4861,-2.4861,0.0,-2.52,-2.52,-2.5872,-2.7081,-2.8272,-2.8757,-2.8803,-2.8803,0.0,-2.8803,-2.8803,-2.8803,-2.8792,-2.8771,-2.8418,-2.7991,-2.7947,-2.7315,-2.6584,-2.6562,-2.6267,-2.5895,-2.5895,-2.5895,-2.5895,-2.5895,0.0,0.0,0.0,0.0,-2.5895,0.0,0.0,-2.5073,-2.4574,-2.4071,-2.3531,-2.3078,-2.2597,-2.1953,-2.1025,-2.0872,-2.0653,0.0,0.0,0.0,0.0,-2.1516,-2.1516,-2.1516,-2.1538,-2.1559,0.0,0.0,0.0,-2.2313,-2.2761,-2.3001,-2.3001,-2.3001,-2.3001,-2.3012,-2.4017,-2.4486,-2.4519,-2.5469,-2.5895,-2.5895,-2.5895,-2.5895,-2.5895,-2.5895,-2.6168,-2.6551,-2.6584,-2.7162,-2.8102,-2.8628,-2.8803,-2.885,-2.613,-2.6852,-2.7409,-2.7353,-2.7422,-2.7539,0.0,-2.8193,-2.8633,-2.874,-2.9131,-2.9404,-2.9404,-2.9502,-2.9626,-2.9682,-2.9594,-2.9433,-2.9164,-2.9164,-2.8864,-2.8155,-2.8215,-2.7935,-2.7209,-2.6886,-2.6529,-2.6126,-2.5482,-2.5127,-2.5003,-2.4662,-2.454,-2.4615,-2.4615,-2.4743,-2.4988,-2.4988,-2.5656,-2.6779,-2.7811,-2.8326,0.0,0.0,-2.8617,-2.8803,-2.8803,-2.8803,-2.8749,-2.8342,-2.81,-2.7871,-2.7173,-2.678,-2.6519,-2.619,-2.5994,-2.5895,-2.5895,-2.5895,-2.5895,-2.5895,-2.5895,-2.5895,0.0,0.0,0.0,0.0,0.0,0.0,0.0,0.0,-2.3531,-2.3078,-2.2313,-2.1559,-2.0982,-2.0555,-2.0249,-2.0129,0.0,0.0,0.0,-2.0489,-2.0489,-2.0489,-2.085,0.0,0.0,0.0,0.0,-2.2313,-2.2761,-2.3001,-2.3001,-2.3001,-2.3001,-2.3012,-2.4017,-2.4486,-2.4519,-2.5469,-2.5895,-2.5895,-2.5895,-2.5895,-2.5895,-2.5895,-2.5972,-2.6125,-2.6442,-2.7294,-2.8317,-2.8674,-2.8896,-2.9035,-2.6511,-2.7338,-2.8062,-2.8213,-2.8369,0.0,-2.8242,-2.8613,0.0,-2.918,-2.958,-2.9844,-2.9844,-3.0029,-3.0146,-3.0146,-2.9961,-2.9736,-2.9492,-2.9306,-2.8937,-2.8445,-2.8324,-2.7951,-2.7242,-2.7048,-2.661,-2.603,-2.5558,-2.5242,-2.5036,-2.4671,-2.4497,-2.4497,-2.4497,-2.4583,-2.4774,-2.5301,-2.5862,-2.6565,-2.7579,0.0,0.0,-2.8243,-2.8384,-2.8617,-2.8617,-2.871,-2.8727,-2.8154,-2.786,-2.7555,-2.6813,-2.6442,-2.6256,-2.5983,-2.5895,-2.5895,-2.5895,-2.5895,-2.5895,-2.5895,-2.5895,-2.5895,-2.5895,-2.5732,-2.5579,0.0,0.0,0.0,0.0,0.0,-2.3187,-2.2499,-2.1942,-2.1341,-2.0653,-2.0282,-2.0118,-2.0118,-2.0118,0.0,0.0,0.0,-2.0118,-2.0118,0.0,0.0,0.0,0.0,0.0,0.0,-2.2455,-2.2794,-2.3001,-2.3001,-2.3001,-2.3012,-2.4017,-2.4486,-2.4519,-2.5469,-2.5895,-2.5895,-2.5895,-2.5895,-2.5895,-2.5895,-2.5895,-2.595,-2.6516,-2.7326,-2.8266,-2.8619,-2.8986,-2.9312,-2.7084,-2.7941,-2.8639,-2.8894,-2.9316,0.0,0.0,-2.9092,0.0,-2.96,0.0,-3.0293,-3.0293,-3.0644,-3.0889,-3.0889,-3.0518,-3.0264,-3.0205,-2.9443,-2.8975,-2.8916,-2.8377,-2.7811,-2.7358,-2.7222,-2.6701,-2.5819,-2.5604,-2.5249,-2.4852,-2.4561,-2.4454,-2.4454,0.0,0.0,0.0,-2.5766,-2.6288,-2.6424,-2.7461,-2.7893,-2.7951,-2.7951,-2.8149,-2.8395,-2.8395,-2.8571,-2.8716,-2.8123,-2.762,-2.7228,-2.6704,-2.6245,-2.5895,-2.5895,-2.5895,-2.5864,-2.5864,-2.5853,-2.579,-2.5777,-2.5755,-2.5744,-2.5732,-2.5382,-2.5128,-2.5128,-2.4366,-2.3694,0.0,0.0,-2.2706,-2.1832,-2.1625,-2.1275,-2.0336,-2.0151,-2.0118,-2.0118,-2.0118,0.0,0.0,0.0,0.0,0.0,0.0,0.0,0.0,0.0,0.0,0.0,-2.2062,0.0,-2.3001,0.0,-2.3001,-2.3012,-2.4017,-2.4486,-2.4519,-2.5469,-2.5895,-2.5895,-2.5895,-2.5895,-2.5895,-2.5937,-2.5948,-2.6065,-2.6641,-2.7309,-2.8017,-2.8477,-2.9015,-2.9544,-2.7893,-2.852,-2.9016,-2.9072,-2.9354,-2.9658,-2.9932,-2.9971,-3.0,-3.0078,-3.0488,-3.0771,-3.0771,-3.084,-3.0889,-3.0889,-3.081,-3.0605,-3.0225,-2.9736,-2.9297,-2.8935,-2.8501,-2.7865,-2.7082,-2.7228,-2.6904,-2.603,-2.5524,-2.5229,-2.5139,-2.454,-2.4239,-2.4249,0.0,0.0,-2.5106,-2.5713,0.0,-2.6588,-2.7186,-2.7536,-2.7678,-2.7678,-2.7961,-2.8395,-2.8395,-2.8571,-2.8661,-2.773,-2.7381,-2.7162,-2.6299,-2.5972,-2.5895,-2.5895,-2.577,-2.5644,-2.5644,-2.5464,-2.5273,-2.5042,-2.4986,-2.493,-2.4774,-2.4672,-2.4607,-2.4607,-2.4137,-2.3694,-2.3694,0.0,0.0,-2.228,-2.1854,-2.1385,-2.085,-2.0402,-2.0118,-2.0118,-2.0118,-2.0118,0.0,0.0,0.0,0.0,0.0,0.0,0.0,0.0,0.0,0.0,0.0,0.0,0.0,0.0,0.0,-2.3012,-2.4017,-2.4486,-2.4519,-2.5469,-2.5895,-2.5895,-2.5895,-2.5895,-2.5895,-2.6074,-2.6271,-2.649,-2.661,-2.706,-2.7714,-2.8245,-2.8875,-2.9554,-2.8135,-2.8624,-2.8994,-2.9174,-2.9642,0.0,0.0,-3.0431,0.0,-3.0557,-3.0752,-3.0889,-3.0889,-3.0889,-3.0889,-3.0889,-3.0889,-3.0801,-3.0576,-2.9941,-2.9473,-2.9268,-2.8633,-2.7998,-2.7363,-2.7273,-2.6891,-2.6261,-2.5613,-2.5205,-2.4975,-2.4549,-2.4247,-2.398,0.0,-2.4625,0.0,0.0,0.0,-2.6656,-2.7123,-2.7357,-2.7441,-2.7441,-2.7689,-2.8019,-2.8149,-2.8337,-2.8476,-2.7598,-2.7315,-2.7151,-2.6201,-2.5895,-2.5895,-2.577,-2.5696,-2.5505,-2.5122,-2.4922,-2.4763,-2.4416,-2.4419,-2.4446,-2.436,-2.42,-2.4093,-2.4093,-2.37,-2.3351,-2.3351,-2.3154,0.0,0.0,0.0,0.0,0.0,-2.0445,-2.0118,-2.0118,-2.0118,-2.0118,0.0,0.0,0.0,0.0,0.0,0.0,0.0,0.0,0.0,0.0,0.0,0.0,0.0,0.0,0.0,-2.3309,-2.405,-2.4537,-2.4842,-2.5532,-2.5986,-2.6271,-2.6271,-2.6271,-2.6271,-2.6354,-2.6561,-2.6768,-2.6768,-2.7186,-2.7854,-2.8357,-2.8958,-2.9573,-2.8318,-2.8684,-2.9014,-2.9323,-2.9879,0.0,-3.0265,-3.0577,-3.083,-3.0889,-3.0889,-3.0889,-3.0889,-3.0889,-3.0889,-3.0889,-3.0889,-3.0889,-3.0889,-3.0059,-2.9626,-2.9626,-2.875,-2.8096,-2.7728,-2.7236,-2.6807,-2.6387,-2.569,-2.5174,-2.4885,-2.4676,-2.4375,0.0,0.0,0.0,0.0,0.0,-2.6253,-2.6708,-2.7117,-2.7309,-2.7309,-2.7309,-2.7404,-2.7631,-2.7857,-2.8102,-2.8301,-2.7509,-2.7271,-2.7151,-2.6201,-2.5895,-2.5864,-2.5644,-2.5495,-2.5239,-2.4604,-2.4341,-2.411,-2.3775,-2.3777,-2.3914,-2.3885,-2.3688,-2.3493,-2.3531,-2.3263,-2.3001,-2.3001,-2.3001,0.0,0.0,0.0,0.0,0.0,0.0,-2.0118,-2.0118,-2.0118,-2.0118,-2.0118,0.0,0.0,0.0,0.0,0.0,0.0,0.0,0.0,0.0,0.0,0.0,-2.3361,0.0,-2.3446,0.0,-2.4071,-2.4563,-2.5133,-2.5598,-2.6091,-2.6603,-2.6603,-2.6633,-2.6644,-2.6644,-2.6768,-2.6974,-2.6974,-2.7307,-2.7885,-2.8367,-2.8884,-2.9401,-2.8933,-2.9189,0.0,0.0,0.0,0.0,-2.9922,-3.0216,-3.0577,-3.083,-3.0889,-3.0889,-3.0889,-3.0889,-3.0889,-3.0889,-3.0889,-3.0889,-3.0889,-3.0059,-2.9626,-2.9626,-2.875,-2.8096,-2.7728,-2.7236,-2.6807,-2.6387,-2.5546,-2.5096,-2.5047,-2.4848,0.0,0.0,0.0,0.0,0.0,-2.6042,-2.6458,-2.6887,-2.7204,-2.7309,-2.7309,-2.7309,-2.7404,-2.7584,-2.7631,-2.7972,-2.8254,-2.7362,-2.716,-2.7151,-2.6201,-2.5895,-2.5864,-2.5644,-2.5122,-2.4551,-2.4293,-2.3772,-2.3253,-2.2982,-2.2906,-2.2917,-2.2853,-2.28,-2.2842,-2.3029,-2.3034,-2.3001,-2.3001,-2.3001,-2.299,0.0,0.0,0.0,0.0,0.0,-2.0118,-2.0118,-2.0118,-2.0118,0.0,0.0,0.0,0.0,0.0,0.0,0.0,0.0,0.0,0.0,0.0,-2.2442,-2.3556,-2.3556,0.0,-2.3604,-2.4071,-2.4563,-2.5133,-2.5598,-2.6091,-2.6603,-2.6603,-2.6685,-2.685,-2.685,-2.6974,-2.719,-2.719,-2.7213,-2.7357,-2.7862,-2.8356,-2.885,0.0,0.0,0.0,0.0,0.0,0.0,0.0,-3.0301,-3.0434,-3.0322,-3.0645,-3.0889,-3.0889,-3.0889,-3.0889,-3.0889,-3.0889,-3.0889,-3.0889,-3.0059,-2.9626,-2.9626,-2.875,-2.8213,-2.8047,-2.7363,-2.6934,-2.6768,-2.5898,-2.5332,-2.5106,-2.5033,0.0,0.0,0.0,-2.5179,-2.5644,-2.5879,-2.633,-2.69,-2.7034,-2.7177,-2.7309,-2.7309,-2.7357,-2.7452,-2.7547,-2.7604,-2.7508,-2.713,-2.7116,-2.7151,-2.6201,-2.5895,-2.5757,-2.512,-2.473,-2.4288,-2.3426,-2.2995,-2.2706,-2.2317,-2.2269,-2.2408,-2.2483,-2.2628,-2.2777,-2.2964,-2.3001,-2.3001,-2.3001,-2.3001,-2.3001,0.0,0.0,0.0,0.0,0.0,-2.0313,-2.0443,-2.0346,-2.0281,-2.0281,0.0,0.0,0.0,0.0,0.0,0.0,0.0,0.0,-2.1872,0.0,-2.2512,-2.3776,-2.3787,-2.3824,-2.397,-2.4138,-2.449,-2.5017,-2.5501,-2.6183,-2.6974,-2.6974,-2.7026,-2.7067,-2.7067,-2.7149,-2.719,-2.719,-2.719,-2.7247,-2.7793,-2.8287,-2.8781,-2.9736,0.0,-3.0204,0.0,-3.038,-3.0426,-3.0018,-3.0185,-3.0216,-2.9861,-3.0284,-3.0645,-3.0762,-3.083,-3.0889,-3.0889,-3.0889,-3.0889,-3.0889,-3.0059,-2.9626,-2.9626,-2.875,0.0,-2.8291,-2.7578,-2.7148,-2.7012,-2.6289,-2.5703,-2.5264,0.0,0.0,0.0,-2.5002,-2.5263,-2.5559,-2.5787,-2.6205,-2.6699,-2.6853,-2.6986,-2.7167,-2.7262,-2.7309,-2.7289,-2.7296,-2.7186,-2.6967,-2.6681,-2.6723,-2.6791,-2.6115,-2.5864,-2.563,-2.476,-2.4351,-2.3963,-2.2827,-2.2397,-2.2211,-2.189,-2.1921,-2.2063,-2.2327,-2.2515,-2.2703,-2.2964,-2.3001,-2.3001,-2.3001,-2.3001,-2.3001,-2.3001,0.0,0.0,0.0,-2.0919,0.0,-2.0508,-2.041,-2.0313,-2.0313,-2.0172,0.0,0.0,0.0,0.0,0.0,0.0,0.0,0.0,0.0,0.0,0.0,0.0,-2.4043,-2.42,-2.42,-2.4453,-2.4935,-2.5624,-2.6404,-2.719,-2.719,-2.719,-2.719,-2.719,-2.719,-2.719,-2.719,-2.719,-2.7236,-2.7633,-2.8069,-2.8563,-3.0112,-3.0195,-3.0204,-3.0204,-3.0204,-3.0057,-2.9696,-2.9893,-2.9934,-2.9555,-2.9745,-3.0039,-3.0392,-3.0704,-3.0889,-3.0889,-3.0889,-3.0889,-3.0889,-3.0059,-2.9626,0.0,0.0,-2.8291,-2.8291,-2.7881,-2.7441,-2.7012,0.0,0.0,-2.5684,0.0,-2.5674,-2.5674,-2.5674,-2.5674,-2.5732,-2.6004,-2.6091,-2.6149,-2.6699,-2.69,-2.6948,-2.7225,-2.7309,-2.7247,-2.6791,-2.6764,-2.6869,-2.5933,-2.5749,-2.5925,-2.588,-2.577,-2.5462,-2.4719,-2.4016,-2.3372,-2.2664,-2.2159,-2.1818,-2.1807,-2.1807,-2.1921,-2.2327,-2.2402,-2.2515,-2.2927,-2.3001,-2.3001,-2.3001,-2.3001,-2.3001,-2.3001,0.0,0.0,0.0,0.0,0.0,-2.0118,-2.0118,-2.0118,-2.0118,0.0,0.0,0.0,0.0,0.0,0.0,0.0,0.0,-2.2148,-2.2332,0.0,-2.4189,-2.42,-2.42,-2.42,-2.42,-2.4453,-2.4946,-2.598,-2.6737,-2.719,-2.719,-2.719,-2.719,-2.719,-2.719,-2.719,-2.719,-2.719,-2.719,-2.7201,-2.7564,-2.81,-3.0462,-3.0818,-3.1002,-3.1002,-3.1002,-3.0772,-3.0103,-3.0125,-2.9947,-2.9246,-2.945,-2.9686,-2.9795,-3.0274,-3.0577,0.0,-3.0762,-3.0889,0.0,-3.0059,-2.9626,-2.9626,-2.875,-2.8291,-2.8291,-2.7933,-2.765,-2.7461,0.0,0.0,0.0,-2.5693,-2.5693,-2.5693,-2.5693,-2.5693,-2.5693,-2.5781,-2.5917,-2.6091,-2.6304,-2.6544,-2.69,-2.6986,-2.6934,-2.6812,-2.6667,-2.6231,-2.575,-2.5625,-2.5441,-2.5231,-2.538,-2.538,-2.5135,-2.4111,-2.3652,-2.3288,-2.2271,-2.1921,-2.1807,-2.1807,-2.1807,-2.1883,-2.2149,-2.2402,-2.2665,-2.2964,-2.3001,-2.3001,-2.3001,-2.3001,-2.3001,-2.3001,-2.2204,0.0,0.0,0.0,-2.0346,-2.0475,-2.0378,-2.0302,0.0,-2.0183,0.0,0.0,0.0,0.0,0.0,0.0,0.0,0.0,-2.2251,0.0,-2.4189,-2.42,-2.42,-2.42,-2.42,-2.4453,-2.4935,-2.5635,-2.6232,-2.6726,-2.7082,-2.719,-2.719,-2.719,-2.719,-2.719,-2.719,-2.719,-2.719,-2.719,-2.7635,-2.8221,-3.0719,-3.1148,-3.1377,-3.1377,-3.1258,-3.0937,-3.0296,-3.0066,-2.9727,-2.9067,-2.9153,-2.9331,-2.9331,-2.9745,0.0,-3.0216,-3.0401,-3.0528,-3.0528,-2.9707,-2.9234,-2.9234,-2.8523,-2.813,-2.813,0.0,0.0,-2.7718,-2.6807,-2.625,-2.5977,-2.5762,-2.5693,-2.5693,-2.5693,-2.5693,-2.5693,-2.5693,-2.5781,-2.5965,-2.6052,-2.6294,-2.6582,-2.6611,-2.6556,-2.6434,-2.614,-2.5709,-2.5202,-2.5201,-2.4983,-2.4786,-2.4914,-2.484,-2.4545,-2.3727,-2.3467,-2.3148,-2.2094,-2.1807,-2.1807,-2.1807,-2.1807,-2.1883,-2.2138,-2.2478,-2.2777,-2.2964,-2.3001,-2.3001,-2.3001,-2.3001,-2.2947,-2.2772,-2.2095,-2.1551,-2.1502,0.0,-2.0335,0.0,0.0,0.0,0.0,-2.0183,0.0,0.0,0.0,0.0,0.0,0.0,0.0,-2.216,-2.2431,0.0,-2.4189,-2.42,-2.42,-2.42,-2.42,-2.4453,-2.4935,-2.5463,-2.5991,-2.6536,-2.7013,-2.719,-2.719,-2.719,-2.719,-2.719,-2.719,-2.719,-2.719,-2.719,-2.7549,-2.8057,-3.0645,-3.1047,0.0,0.0,-3.0992,0.0,-3.0222,-2.9819,-2.9434,-2.9039,-2.8984,-2.8984,-2.8984,-2.9272,-2.9568,-2.9813,0.0,0.0,0.0,-2.9136,-2.8728,-2.8728,-2.8141,0.0,-2.7853,-2.813,-2.8033,-2.7666,-2.6865,-2.6445,-2.6387,-2.5977,-2.5713,-2.5693,-2.5693,-2.5693,-2.5693,-2.5693,-2.5693,-2.5732,-2.5965,-2.6091,-2.6099,-2.6145,-2.615,-2.6064,-2.541,-2.5168,-2.5075,-2.4642,-2.4497,-2.4497,-2.4497,-2.4229,-2.3826,-2.3562,-2.3325,-2.2946,-2.2056,-2.1807,-2.1807,-2.1807,-2.1807,-2.1921,-2.2289,-2.2515,-2.274,-2.2927,-2.3001,-2.3001,-2.3001,-2.3001,-2.2848,-2.239,-2.1909,-2.1452,-2.096,0.0,0.0,0.0,0.0,0.0,0.0,-2.0118,-2.0118,0.0,0.0,0.0,0.0,0.0,-2.1475,-2.2171,-2.2759,-2.3434,-2.4152,-2.4189,-2.42,-2.42,-2.42,-2.443,-2.4889,-2.5417,-2.5934,-2.6478,-2.6955,-2.7156,-2.719,-2.719,-2.719,-2.719,-2.719,-2.719,-2.719,-2.7231,-2.733,-2.7632,0.0,0.0,-3.0148,-3.0416,-3.0406,-3.0195,-2.9782,-2.9635,-2.9434,-2.9039,-2.8984,-2.8984,-2.8984,-2.9044,-2.9163,-2.9213,-2.9627,-2.9922,-2.9922,-2.9136,-2.8728,-2.8728,-2.7922,-2.7539,-2.7539,-2.7593,-2.7544,-2.7323,-2.7347,-2.7031,-2.6387,-2.6279,-2.6055,-2.5693,-2.5693,-2.5693,-2.5693,-2.5693,-2.5693,-2.5693,-2.5781,-2.5917,-2.6051,-2.5767,-2.5678,-2.5579,-2.5129,-2.4831,-2.4642,-2.4538,-2.4497,-2.4497,-2.4497,-2.4229,-2.3826,-2.34,-2.2976,-2.2532,-2.1963,-2.1807,-2.1807,-2.1807,-2.1807,-2.1883,-2.2101,-2.2327,-2.2515,-2.274,-2.2889,-2.3001,-2.3001,-2.3001,-2.2848,-2.239,-2.1909,-2.1452,-2.096,-2.0445,0.0,0.0,-2.0118,-2.0118,-2.0118,-2.0118,-2.0118,0.0,0.0,0.0,0.0,0.0,-2.1634,-2.1975,-2.2607,-2.3279,-2.397,-2.4116,-2.42,-2.42,-2.42,-2.4258,-2.4384,-2.4877,-2.5383,-2.5922,-2.6427,-2.6864,-2.719,-2.719,-2.719,-2.719,-2.719,-2.719,-2.7231,-2.7371,-2.7574,-2.7852,-2.9101,-2.9493,-2.9742,-2.9937,-2.9977,-2.9837,-2.9608,-2.9415,-2.9223,-2.9012,-2.8984,-2.8984,-2.8984,-2.8984,-2.8984,-2.8984,-2.9272,-2.9434,-2.9257,-2.8631,-2.8192,-2.8005,-2.7499,-2.7206,-2.7206,-2.7323,-2.7372,-2.7294,-2.7429,-2.7159,-2.6468,-2.6425,-2.6162,-2.5693,-2.5693,-2.5693,-2.5693,-2.5693,-2.5693,-2.5693,-2.5693,-2.5781,-2.5848,-2.535,-2.5195,-2.5133,-2.4577,-2.4367,-2.4368,-2.4368,-2.4411,-2.4497,-2.4497,-2.4095,-2.3515,-2.3256,-2.2863,-2.2397,-2.1932,-2.1807,-2.1807,-2.1807,-2.1807,-2.1835,-2.2063,-2.2176,-2.2327,-2.2628,-2.2777,-2.2889,-2.2964,-2.3001,-2.2783,-2.2095,-2.1767,-2.1341,-2.0631,-2.0282,0.0,-2.0118,-2.0118,-2.0118,-2.0118,-2.0118,-2.0118,-2.0118,0.0,0.0,-2.0883,-2.1538,-2.2026,-2.2216,-2.2871,-2.3433,-2.3897,-2.4091,-2.42,-2.42,-2.42,-2.42,-2.4212,-2.4694,-2.5199,-2.5739,-2.6283,-2.676,-2.719,-2.719,-2.719,-2.719,-2.719,-2.719,-2.7231,-2.7441,-2.7655,-2.7921,-2.8436,-2.8995,-2.9376,-2.9438,-2.9465,-2.9419,-2.9419,-2.9195,-2.8984,-2.8984,-2.8984,-2.8984,-2.8984,-2.8984,-2.8984,-2.8984,-2.8984,-2.8819,-2.8425,-2.8003,-2.7647,-2.7196,-2.7049,-2.6944,-2.6944,-2.7206,-2.7323,-2.7323,-2.7275,-2.7041,-2.6628,-2.6468,-2.6151,-2.5732,-2.5664,-2.5635,-2.5693,-2.5693,-2.5693,-2.5693,-2.5693,-2.5645,-2.5547,-2.497,-2.4706,-2.4594,-2.3957,-2.3927,-2.4153,-2.4153,-2.4282,-2.4444,-2.4372,-2.3815,-2.3174,-2.3111,-2.2749,-2.2304,-2.1911,-2.1807,-2.1807,-2.1807,-2.1807,-2.1845,-2.2035,-2.2063,-2.2187,-2.2553,-2.2628,-2.2703,-2.2927,-2.2964,-2.268,-2.1843,-2.1636,-2.1275,-2.0347,0.0,-2.0118,-2.0118,-2.0118,-2.0118,-2.0118,-2.0118,-2.014,-2.0216,-2.0631,0.0,0.0,-2.1865,-2.2407,-2.2631,-2.3223,-2.3677,-2.3897,-2.4091,-2.42,-2.42,-2.42,-2.42,-2.4212,-2.4613,-2.5142,-2.5739,-2.6163,-2.668,-2.719,-2.719,-2.719,-2.719,-2.719,-2.719,-2.7231,-2.7441,-2.7655,-2.7921,-2.7626,-2.7756,-2.7938,-2.8197,-2.8463,-2.8667,-2.8667,-2.8851,-2.8984,-2.8984,-2.8984,-2.8984,-2.8984,-2.8984,-2.8984,-2.8984,-2.8984,-2.8819,-2.8425,-2.8003,-2.7647,-2.7196,-2.6848,-2.6636,-2.6636,-2.6944,-2.7043,-2.7043,-2.7257,-2.7172,-2.6764,-2.6389,-2.6114,-2.5843,-2.5496,-2.5489,-2.5693,-2.5693,-2.5693,-2.5693,-2.5693,-2.5508,-2.5117,-2.4656,-2.4382,-2.4133,-2.3726,-2.3667,-2.3841,-2.3841,-2.4024,-2.4178,-2.3789,-2.3443,-2.3111,-2.2718,-2.2273,-2.1901,-2.1828,-2.1807,-2.1807,-2.1807,-2.1807,-2.1807,-2.1845,-2.1997,-2.2101,-2.2176,-2.2327,-2.2515,-2.2703,-2.274,-2.2641,-2.2255,-2.1865,-2.1396,-2.0861,0.0,-2.0118,-2.0118,-2.0118,-2.0118,-2.0118,-2.0118,-2.0282,-2.0752,-2.085,-2.1255,-2.2051,-2.2237,-2.2499,-2.2907,-2.318,-2.3519,-2.3897,-2.4091,-2.42,-2.42,-2.42,-2.42,-2.42,-2.4281,-2.482,-2.5716,-2.5796,-2.637,-2.719,-2.719,-2.719,-2.719,-2.719,-2.719,-2.7231,-2.7441,-2.7655,-2.7921,-2.7237,-2.7401,-2.7581,-2.7702,-2.802,-2.8208,-2.8208,-2.8517,-2.8755,-2.8755,-2.8865,-2.8984,-2.8984,-2.8984,-2.8984,-2.8984,-2.8792,-2.8489,-2.8077,-2.7875,-2.749,-2.6885,-2.6683,-2.6591,-2.6591,-2.6745,-2.6791,-2.6791,-2.7053,-2.6999,-2.6595,-2.6319,-2.5996,-2.5679,-2.5417,-2.5391,-2.5489,-2.5635,-2.5693,-2.5693,-2.5693,-2.5469,-2.5067,-2.458,-2.4196,-2.3865,-2.3433,-2.345,-2.3634,-2.3634,-2.3647,-2.3639,-2.3426,-2.293,-2.2461,-2.2366,-2.2092,-2.1807,-2.1807,-2.1807,-2.1807,-2.1807,-2.1807,-2.1807,-2.1807,-2.1883,-2.1959,-2.2063,-2.2176,-2.2289,-2.2515,-2.2553,-2.2403,-2.2041,-2.1783,0.0,0.0,-2.0818,-2.0756,-2.0756,-2.0824,-2.0926,-2.0926,-2.0926,-2.1013,-2.1266,-2.1494,-2.1843,-2.2291,-2.2553,-2.2783,-2.299,-2.3298,-2.3593,-2.3897,-2.4091,-2.42,-2.42,-2.42,-2.42,-2.42,-2.42,-2.4751,-2.5716,-2.5716,-2.625,-2.719,-2.719,-2.719,-2.719,-2.719,-2.719,-2.7231,-2.7441,-2.7655,-2.7921,-2.7073,-2.7246,-2.7409,-2.7409,-2.765,-2.7891,-2.7891,-2.8148,-2.8397,-2.8397,-2.8687,-2.8865,-2.8865,-2.8925,-2.8948,-2.8856,-2.8572,-2.8177,-2.7664,-2.7684,-2.7315,-2.6619,-2.6591,-2.6591,-2.6591,-2.6591,-2.6591,-2.6591,-2.6791,-2.6732,-2.6417,-2.6167,-2.5857,-2.5569,-2.5267,-2.5186,-2.5333,-2.5538,-2.5635,-2.5693,-2.5693,-2.541,-2.4883,-2.4551,-2.4092,-2.3594,-2.3218,-2.3232,-2.3396,-2.3298,-2.3222,-2.3072,-2.2862,-2.2381,-2.1899,-2.1945,-2.1816,-2.1693,-2.1769,-2.1807,-2.1807,-2.1807,-2.1807,-2.1807,-2.1807,-2.1807,-2.1845,-2.1997,-2.2035,-2.2111,-2.2289,-2.2327,-2.2248,-2.1913,0.0,0.0,0.0,-2.12,-2.1242,-2.1301,-2.1452,-2.1557,-2.1592,-2.1592,-2.1636,-2.1745,-2.2106,-2.2368,-2.2466,-2.2805,-2.3001,-2.3001,-2.3335,-2.3641,-2.3824,-2.4043,-2.4152,-2.42,-2.42,-2.42,-2.42,-2.42,-2.4751,-2.5716,-2.5716,-2.625,-2.719,-2.719,-2.719,-2.719,-2.719,-2.719,-2.7231,-2.7371,-2.7574,-2.7841,-2.7073,-2.7133,-2.7133,-2.7133,-2.7358,-2.7521,-2.7521,-2.7831,-2.802,-2.802,-2.8328,-2.8526,-2.8526,-2.8806,-2.8838,-2.8471,-2.8416,-2.8058,-2.727,-2.7215,-2.7031,-2.6609,-2.6591,-2.6591,-2.6591,-2.6591,-2.6591,-2.6591,-2.6646,-2.6627,-2.6581,-2.5791,-2.5561,-2.5755,-2.4892,-2.4833,-2.5284,-2.5333,-2.5489,-2.5693,-2.5693,-2.5177,-2.4463,-2.4424,-2.3861,-2.314,-2.311,-2.3091,-2.3076,-2.2695,-2.2719,-2.2762,-2.1897,-2.176,-2.1838,-2.1415,-2.1274,-2.132,-2.1693,-2.1807,-2.1807,-2.1807,-2.1807,-2.1807,-2.1807,-2.1807,-2.1807,-2.1807,-2.1807,-2.1873,-2.2111,-2.2101,-2.2166,-2.2322,0.0,0.0,-2.1647,-2.1286,-2.1101,-2.1277,-2.1312,-2.1417,-2.1592,-2.1592,-2.1778,-2.2237,-2.2302,-2.2499,-2.2925,-2.2979,-2.3001,-2.3001,-2.3224,-2.3409,-2.3641,-2.3824,-2.4007,-2.42,-2.42,-2.42,-2.42,-2.42,-2.4751,-2.5716,-2.5716,-2.625,-2.719,-2.719,-2.719,-2.719,-2.719,-2.719,-2.719,-2.7231,-2.733,-2.7563,-2.7073,-2.7073,-2.7073,-2.7073,-2.7185,-2.7246,-2.7246,-2.747,-2.7702,-2.7702,-2.796,-2.8208,-2.8208,-2.8328,-2.8277,-2.8124,-2.787,-2.7546,-2.7215,-2.6949,-2.6747,-2.6591,-2.6591,-2.6591,-2.6591,-2.6591,-2.6591,-2.6591,-2.6591,-2.6454,-2.6241,-2.5681,-2.5347,-2.514,-2.4699,-2.4627,-2.4833,-2.4981,-2.5186,-2.5411,-2.516,-2.4829,-2.4385,-2.4121,-2.3662,-2.3091,-2.3091,-2.2925,-2.2682,-2.2568,-2.22,-2.1793,-2.1418,-2.1204,-2.1065,-2.1023,-2.1099,-2.1244,-2.1397,-2.1512,-2.1617,-2.1617,-2.1693,-2.1807,-2.1807,-2.1807,-2.1807,-2.1807,-2.1807,-2.1807,-2.1921,-2.1911,-2.1959,-2.2035,0.0,-2.1763,-2.1763,-2.1728,-2.1697,-2.1771,-2.2028,-2.2211,-2.2284,-2.2393,-2.2542,-2.2728,-2.2739,-2.2815,-2.299,-2.3001,-2.3001,-2.3001,-2.3075,-2.3224,-2.3409,-2.3751,-2.3934,-2.4007,-2.4152,-2.42,-2.42,-2.42,-2.4751,-2.5716,-2.5716,-2.625,-2.719,-2.719,-2.719,-2.719,-2.719,-2.719,-2.719,-2.719,-2.733,-2.751,-2.7073,-2.7073,-2.7073,-2.7073,-2.7073,-2.7073,-2.7073,-2.7237,-2.7349,-2.7349,-2.765,-2.7831,-2.7831,-2.7845,-2.7792,-2.7575,-2.7238,-2.69,-2.6735,-2.6564,-2.6473,-2.6591,-2.6591,-2.6591,-2.6591,-2.6591,-2.6591,-2.6591,-2.6591,-2.6371,-2.6002,-2.5607,-2.5212,-2.4817,-2.4535,-2.444,-2.4529,-2.4686,-2.4932,-2.5148,-2.4737,-2.4448,-2.4227,-2.3809,-2.3427,-2.3081,-2.2945,-2.2711,-2.2471,-2.2165,-2.1678,-2.1171,-2.1064,-2.081,-2.0644,-2.078,-2.0896,-2.1002,-2.1002,-2.1167,-2.132,-2.1397,-2.154,-2.1693,-2.1693,-2.1769,-2.1807,-2.1807,-2.1807,-2.1807,-2.1807,-2.1807,-2.1807,-2.1807,-2.1807,-2.1807,-2.1807,-2.1921,-2.2035,-2.2111,-2.2327,-2.2553,-2.2703,-2.2815,-2.2927,-2.3001,-2.3001,-2.3001,-2.3001,-2.3001,-2.3001,-2.3001,-2.3001,-2.3075,-2.3187,-2.3519,-2.374,-2.3824,-2.4007,-2.4116,-2.4116,-2.4164,-2.4751,-2.5716,-2.5716,-2.625,-2.719,-2.719,-2.719,-2.719,-2.719,-2.719,-2.719,-2.719,-2.7301,-2.7412,-2.7073,-2.7073,-2.7073,-2.7073,-2.7073,-2.7073,-2.7073,-2.7073,-2.7073,-2.7073,-2.7358,-2.7521,-2.7521,-2.7478,-2.7333,-2.6951,-2.6551,-2.6151,-2.5714,-2.5962,-2.6245,-2.6591,-2.6591,-2.6591,-2.6591,-2.6591,-2.6591,-2.6591,-2.6582,-2.6371,-2.6002,-2.5607,-2.5161,-2.4757,-2.4395,-2.4301,-2.448,-2.448,-2.4627,-2.4845,-2.4438,-2.4146,-2.394,-2.3573,-2.3293,-2.3042,-2.2623,-2.251,-2.2373,-2.1483,-2.119,-2.1112,-2.0742,-2.0605,-2.0605,-2.0605,-2.0605,-2.0605,-2.0605,-2.0741,-2.0945,-2.1167,-2.1359,-2.1502,-2.1502,-2.1655,-2.1807,-2.1807,-2.1807,-2.1807,-2.1807,-2.1807,-2.1807,-2.1807,-2.1807,-2.1807,-2.1807,-2.1807,-2.1883,-2.2063,-2.2101,-2.2252,-2.2665,-2.2703,-2.2777,-2.2964,-2.3001,-2.3001,-2.3001,-2.3001,-2.3001,-2.3001,-2.3001,-2.3001,-2.3001,-2.3187,-2.3409,-2.3593,-2.3787,-2.3897,-2.3897,-2.4116,-2.4751,-2.5716,-2.5716,-2.625,-2.719,-2.719,-2.719,-2.719,-2.719,-2.719,-2.719,-2.719,-2.719,-2.7231,-2.7073,-2.7073,-2.7073,-2.7073,-2.7073,-2.7073,-2.7073,-2.7073,-2.7073,-2.7073,-2.7194,-2.7246,-2.7246,-2.6961,-2.6748,-2.6539,-2.6211,-2.5881,-2.5714,-2.5789,-2.5852,-2.5962,-2.6364,-2.6591,-2.6591,-2.6591,-2.6591,-2.6591,-2.6342,-2.5993,-2.5589,-2.5194,-2.4739,-2.4385,-2.4257,-2.4251,-2.4301,-2.4301,-2.4223,-2.4178,-2.3776,-2.3495,-2.3336,-2.2872,-2.2678,-2.2561,-2.215,-2.1849,-2.1547,-2.1113,-2.0817,-2.0556,-2.0576,-2.0605,-2.0605,-2.0605,-2.0605,-2.0605,-2.0605,-2.0644,-2.0731,-2.0935,-2.1128,-2.132,-2.1474,-2.154,-2.1617,-2.1769,-2.1807,-2.1807,-2.1807,-2.1807,-2.1807,-2.1807,-2.1807,-2.1807,-2.1807,-2.1807,-2.1807,-2.1883,-2.1987,-2.2138,-2.2252,-2.2515,-2.274,-2.2777,-2.2927,-2.3001,-2.3001,-2.3001,-2.3001,-2.3001,-2.3001,-2.3001,-2.3001,-2.3187,-2.3335,-2.3372,-2.3593,-2.3677,-2.3714,-2.3897,-2.4528,-2.5522,-2.5638,-2.625,-2.719,-2.719,-2.719,-2.719,-2.719,-2.719,-2.719,-2.719,-2.719,-2.7231,-2.6882,-2.7012,-2.7073,-2.7073,-2.7073,-2.7073,-2.7073,-2.7073,-2.7073,-2.7073,-2.7073,-2.7073,-2.7073,-2.6593,-2.6241,-2.6232,-2.573,-2.5444,-2.5523,-2.5514,-2.5569,-2.5679,-2.6081,-2.6245,-2.6245,-2.6245,-2.6227,-2.6181,-2.5926,-2.5578,-2.5133,-2.4895,-2.4606,-2.4202,-2.4202,-2.4202,-2.4202,-2.4202,-2.4021,-2.3703,-2.3305,-2.3084,-2.2883,-2.2469,-2.2215,-2.2095,-2.1722,-2.1305,-2.092,-2.0614,-2.0427,-2.0342,-2.0527,-2.0605,-2.0605,-2.0605,-2.0605,-2.0605,-2.0605,-2.0605,-2.0644,-2.0741,-2.0935,-2.1099,-2.1244,-2.1397,-2.154,-2.1655,-2.1731,-2.1807,-2.1807,-2.1807,-2.1807,-2.1807,-2.1807,-2.1807,-2.1807,-2.1807,-2.1807,-2.1807,-2.1921,-2.1987,-2.2111,-2.2327,-2.2515,-2.2703,-2.2889,-2.3001,-2.3001,-2.3001,-2.3001,-2.3001,-2.3001,-2.3001,-2.3001,-2.3113,-2.3187,-2.3187,-2.3372,-2.3482,-2.3494,-2.388,-2.4521,-2.5289,-2.5677,-2.6303,-2.7097,-2.719,-2.719,-2.719,-2.719,-2.719,-2.719,-2.719,-2.719,-2.719,-2.6571,-2.6822,-2.7073,-2.7073,-2.7073,-2.7073,-2.7073,-2.7073,-2.7073,-2.7073,-2.7073,-2.7073,-2.7073,-2.6396,-2.5876,-2.5876,-2.5258,-2.4923,-2.5174,-2.5174,-2.5284,-2.5633,-2.5597,-2.558,-2.558,-2.5634,-2.5575,-2.5442,-2.5424,-2.5186,-2.4785,-2.4739,-2.4519,-2.4202,-2.4202,-2.4202,-2.4202,-2.4165,-2.3868,-2.3407,-2.3014,-2.2741,-2.2554,-2.2192,-2.1933,-2.1683,-2.1291,-2.0876,-2.0469,-2.0004,-2.0069,-2.0303,-2.0489,-2.0566,-2.0566,-2.0605,-2.0605,-2.0605,-2.0605,-2.0605,-2.0605,-2.0605,-2.0731,-2.0867,-2.0906,-2.1167,-2.1474,-2.1502,-2.1655,-2.1769,-2.1807,-2.1807,-2.1807,-2.1807,-2.1807,-2.1807,-2.1807,-2.1807,-2.1807,-2.1807,-2.1807,-2.1883,-2.2073,-2.2111,-2.2252,-2.2665,-2.2852,-2.2964,-2.3001,-2.3001,-2.3001,-2.3001,-2.3001,-2.3001,-2.3001,-2.3001,-2.3001,-2.3001,-2.3187,-2.3261,-2.332,-2.3969,-2.4574,-2.5105,-2.5774,-2.6415,-2.6891,-2.7108,-2.719,-2.719,-2.719,-2.719,-2.719,-2.719,-2.719,-2.719,-2.6144,-2.651,-2.67,-2.67,-2.6952,-2.7073,-2.7073,-2.7073,-2.7073,-2.7073,-2.7073,-2.7073,-2.7073,-2.6396,-2.5876,-2.5876,-2.5258,-2.4812,-2.4868,-2.4868,-2.4923,-2.4979,-2.4686,-2.4522,-2.4522,-2.4965,-2.52,-2.5174,-2.4613,-2.4385,-2.4461,-2.4135,-2.4085,-2.4202,-2.4202,-2.4202,-2.4183,-2.3813,-2.3398,-2.2995,-2.2584,-2.2217,-2.1905,-2.1813,-2.1563,-2.1192,-2.0786,-2.0389,-2.0024,-1.9736,-1.9794,-2.002,-2.0303,-2.0381,-2.0381,-2.0566,-2.0605,-2.0605,-2.0605,-2.0605,-2.0605,-2.0605,-2.0644,-2.0693,-2.0867,-2.0984,-2.1128,-2.1436,-2.154,-2.1617,-2.1769,-2.1807,-2.1807,-2.1807,-2.1807,-2.1807,-2.1807,-2.1807,-2.1807,-2.1807,-2.1807,-2.1807,-2.1845,-2.1987,-2.2252,-2.2665,-2.274,-2.2815,-2.3001,-2.3001,-2.3001,-2.3001,-2.3001,-2.3001,-2.3001,-2.3001,-2.3001,-2.3001,-2.3038,-2.3075,-2.3097,-2.3769,-2.4382,-2.4909,-2.5558,-2.6265,-2.6891,-2.6933,-2.7056,-2.719,-2.719,-2.719,-2.719,-2.719,-2.719,-2.719,-2.5839,-2.6144,-2.6388,-2.6388,-2.651,-2.67,-2.683,-2.6882,-2.6943,-2.7073,-2.7073,-2.7004,-2.6816,-2.6285,-2.5739,-2.5437,-2.4996,-2.4821,-2.4821,-2.4821,-2.4735,-2.4547,-2.4287,-2.4145,-2.3965,-2.4059,-2.4184,-2.4342,-2.3938,-2.3801,-2.3919,-2.3854,-2.3845,-2.4003,-2.4152,-2.4091,-2.3849,-2.3581,-2.3151,-2.2593,-2.2364,-2.2044,-2.1668,-2.1511,-2.1138,-2.0778,-2.0383,-1.998,-1.9595,-1.9592,-1.9676,-1.9794,-2.0029,-2.0186,-2.0303,-2.042,-2.0527,-2.0605,-2.0605,-2.0605,-2.0605,-2.0605,-2.0605,-2.0644,-2.0731,-2.0819,-2.0945,-2.1167,-2.1359,-2.154,-2.1655,-2.1731,-2.1807,-2.1807,-2.1807,-2.1807,-2.1807,-2.1807,-2.1807,-2.1807,-2.1807,-2.1807,-2.1807,-2.1997,-2.2176,-2.2402,-2.2515,-2.259,-2.2703,-2.2815,-2.2852,-2.2852,-2.2964,-2.3001,-2.3001,-2.3001,-2.3001,-2.3001,-2.3001,-2.3121,-2.3362,-2.3941,-2.4502,-2.5014,-2.5713,-2.6203,-2.6561,-2.6685,-2.6891,-2.7067,-2.7067,-2.7108,-2.719,-2.719,-2.719,-2.719,-2.548,-2.5778,-2.6014,-2.6014,-2.6075,-2.6197,-2.6449,-2.651,-2.6631,-2.6882,-2.6892,-2.673,-2.6465,-2.6047,-2.5566,-2.4881,-2.4821,-2.4795,-2.4727,-2.4718,-2.4547,-2.4153,-2.4076,-2.3888,-2.358,-2.3203,-2.3152,-2.3418,-2.3357,-2.3361,-2.3347,-2.3546,-2.3696,-2.3805,-2.4053,-2.3874,-2.3489,-2.3425,-2.2959,-2.2272,-2.2254,-2.1989,-2.165,-2.1273,-2.086,-2.0466,-2.0031,-1.9659,-1.9341,-1.9478,-1.9557,-1.9597,-1.9784,-1.999,-2.0186,-2.0264,-2.042,-2.0566,-2.0605,-2.0605,-2.0605,-2.0605,-2.0605,-2.0605,-2.0605,-2.0731,-2.0867,-2.0906,-2.1167,-2.1436,-2.1512,-2.1655,-2.1769,-2.1807,-2.1807,-2.1807,-2.1807,-2.1807,-2.1807,-2.1807,-2.1807,-2.1807,-2.1807,-2.1959,-2.2063,-2.2101,-2.2252,-2.2365,-2.2402,-2.2553,-2.2665,-2.2665,-2.2852,-2.2964,-2.2964,-2.2964,-2.3001,-2.3001,-2.3001,-2.3263,-2.3716,-2.4257,-2.4738,-2.5237,-2.5854,-2.6157,-2.624,-2.6437,-2.6644,-2.685,-2.685,-2.6974,-2.7149,-2.719,-2.719,-2.719,-2.5173,-2.5418,-2.5672,-2.5672,-2.59,-2.6136,-2.6136,-2.6197,-2.6197,-2.6258,-2.6,-2.5852,-2.6032,-2.57,-2.5275,-2.4855,-2.4821,-2.4675,-2.4279,-2.4253,-2.4136,-2.3759,-2.3434,-2.3246,-2.3186,-2.2818,-2.2834,-2.316,-2.2834,-2.2847,-2.3046,-2.3097,-2.3347,-2.3805,-2.3854,-2.3726,-2.3471,-2.3133,-2.2712,-2.2245,-2.1906,-2.1742,-2.165,-2.1273,-2.086,-2.0466,-2.0031,-1.9659,-1.9301,-1.9341,-1.9341,-1.9381,-1.9597,-1.9685,-1.9754,-2.0186,-2.0303,-2.0381,-2.0566,-2.0605,-2.0605,-2.0605,-2.0605,-2.0605,-2.0605,-2.0605,-2.0693,-2.0867,-2.0945,-2.1099,-2.1436,-2.1512,-2.1617,-2.1769,-2.1807,-2.1807,-2.1807,-2.1807,-2.1807,-2.1807,-2.1807,-2.1807,-2.1807,-2.1807,-2.1911,-2.2111,-2.2138,-2.2214,-2.2402,-2.244,-2.244,-2.244,-2.2628,-2.274,-2.274,-2.2927,-2.3001,-2.3001,-2.3001,-2.3263,-2.3716,-2.4257,-2.4738,-2.5237,-2.5729,-2.6032,-2.6199,-2.624,-2.6396,-2.6644,-2.6644,-2.6768,-2.6974,-2.7149,-2.719,-2.719,-2.5111,-2.5234,-2.5296,-2.5296,-2.541,-2.5594,-2.5778,-2.5847,-2.5835,-2.5811,-2.5714,-2.5466,-2.5219,-2.4988,-2.4777,-2.4616,-2.4505,-2.4364,-2.4185,-2.4033,-2.3751,-2.3374,-2.3203,-2.3014,-2.28,-2.268,-2.268,-2.28,-2.268,-2.2644,-2.2795,-2.2946,-2.3147,-2.3338,-2.3273,-2.3156,-2.2903,-2.2552,-2.2235,-2.1934,-2.176,-2.1696,-2.1623,-2.0982,-2.0668,-2.0438,-1.9806,-1.9457,-1.9301,-1.9301,-1.9301,-1.9301,-1.939,-1.9518,-1.9645,-1.9843,-2.0069,-2.0303,-2.042,-2.0489,-2.0605,-2.0605,-2.0605,-2.0605,-2.0605,-2.0605,-2.0644,-2.0693,-2.0819,-2.0945,-2.1138,-2.1359,-2.154,-2.1617,-2.1731,-2.1807,-2.1807,-2.1807,-2.1807,-2.1807,-2.1807,-2.1807,-2.1807,-2.1807,-2.1845,-2.1921,-2.1911,-2.1959,-2.2073,-2.2176,-2.2214,-2.2214,-2.244,-2.259,-2.2703,-2.2777,-2.2889,-2.3001,-2.3001,-2.3405,-2.4159,-2.4388,-2.4891,-2.559,-2.5808,-2.5948,-2.6021,-2.6021,-2.6157,-2.6396,-2.6396,-2.652,-2.6727,-2.6809,-2.685,-2.685]}]]